[[{"header":{"parameterUnit":"m.s-1","parameterCategory":1,"la1":30.6,"la2":28.766,"lo1":-90.7593,"lo2":-88.6598,"dy":0.0162,"dx":0.0183,"nx":116,"ny":114,"refTime":"2024-02-23T06:00:00:Z","depth":0,"parameterNumber":2,"parameterNumberName":"U-component_of_WINDS"},"data":[0.0,0.0,0.0,0.0,0.0,0.0,0.0,0.0,0.0,0.0,0.0,0.0,0.0,0.0,0.0,0.0,0.0,0.0,0.0,0.0,0.0,0.0,0.0,0.0,0.0,0.0,0.0,0.0,0.0,0.0,0.0,0.0,0.0,0.0,0.0,0.0,0.0,0.0,0.0,0.0,0.0,0.0,0.0,0.0,0.0,0.0,0.0,0.0,0.0,0.0,0.0,0.0,0.0,0.0,0.0,0.0,0.0,0.0,0.0,0.0,0.0,0.0,0.0,0.0,0.0,0.0,0.0,0.0,0.0,0.0,0.0,0.0,0.0,0.0,0.0,0.0,0.0,0.0,0.0,0.0,0.0,0.0,0.0,0.0,0.0,0.0,0.0,0.0,0.0,0.0,0.0,0.0,0.0,0.0,0.0,0.0,0.0,0.0,0.0,0.0,0.0,0.0,0.0,0.0,0.0,0.0,0.0,0.0,0.0,0.0,0.0,0.0,0.0,0.0,0.0,0.0,0.0,0.0,0.0,0.0,0.0,0.0,0.0,0.0,0.0,0.0,0.0,0.0,0.0,0.0,0.0,0.0,0.0,0.0,0.0,0.0,0.0,0.0,0.0,0.0,0.0,0.0,0.0,0.0,0.0,0.0,0.0,0.0,0.0,0.0,0.0,0.0,0.0,0.0,0.0,0.0,0.0,0.0,0.0,0.0,0.0,0.0,0.0,0.0,0.0,0.0,0.0,0.0,0.0,0.0,0.0,0.0,0.0,0.0,0.0,0.0,0.0,0.0,0.0,0.0,0.0,0.0,0.0,0.0,0.0,0.0,0.0,0.0,0.0,0.0,0.0,0.0,0.0,0.0,0.0,0.0,0.0,0.0,0.0,0.0,0.0,0.0,0.0,0.0,0.0,0.0,0.0,0.0,0.0,0.0,0.0,0.0,0.0,0.0,0.0,0.0,0.0,0.0,0.0,0.0,0.0,0.0,0.0,0.0,0.0,0.0,0.0,0.0,0.0,0.0,0.0,0.0,0.0,0.0,0.0,0.0,0.0,0.0,0.0,0.0,0.0,0.0,0.0,0.0,0.0,0.0,0.0,0.0,0.0,0.0,0.0,0.0,0.0,0.0,0.0,0.0,0.0,0.0,0.0,0.0,0.0,0.0,0.0,0.0,0.0,0.0,0.0,0.0,0.0,0.0,0.0,0.0,0.0,0.0,0.0,0.0,0.0,0.0,0.0,0.0,0.0,0.0,0.0,0.0,0.0,0.0,0.0,0.0,0.0,0.0,0.0,0.0,0.0,0.0,0.0,0.0,0.0,0.0,0.0,0.0,0.0,0.0,0.0,0.0,0.0,0.0,0.0,0.0,0.0,0.0,0.0,0.0,0.0,0.0,0.0,0.0,0.0,0.0,0.0,0.0,0.0,0.0,0.0,0.0,0.0,0.0,0.0,0.0,0.0,0.0,0.0,0.0,0.0,0.0,0.0,0.0,0.0,0.0,0.0,0.0,0.0,0.0,0.0,0.0,0.0,0.0,0.0,0.0,0.0,0.0,0.0,0.0,0.0,0.0,0.0,0.0,0.0,0.0,0.0,0.0,0.0,0.0,0.0,0.0,0.0,0.0,0.0,0.0,0.0,0.0,0.0,0.0,0.0,0.0,0.0,0.0,0.0,0.0,0.0,0.0,0.0,0.0,0.0,0.0,0.0,0.0,0.0,0.0,0.0,0.0,0.0,0.0,0.0,0.0,0.0,0.0,0.0,0.0,0.0,0.0,0.0,0.0,0.0,0.0,0.0,0.0,0.0,0.0,0.0,0.0,0.0,0.0,0.0,0.0,0.0,0.0,0.0,0.0,0.0,0.0,0.0,0.0,0.0,0.0,0.0,0.0,0.0,0.0,0.0,0.0,0.0,0.0,0.0,0.0,0.0,0.0,0.0,0.0,0.0,0.0,0.0,0.0,0.0,0.0,0.0,0.0,0.0,0.0,0.0,0.0,0.0,0.0,0.0,0.0,0.0,0.0,0.0,0.0,0.0,0.0,0.0,0.0,0.0,0.0,0.0,0.0,0.0,0.0,0.0,0.0,0.0,0.0,0.0,0.0,0.0,0.0,0.0,0.0,0.0,0.0,0.0,0.0,0.0,0.0,0.0,0.0,0.0,0.0,0.0,0.0,0.0,0.0,0.0,0.0,0.0,0.0,0.0,0.0,0.0,0.0,0.0,0.0,0.0,0.0,0.0,0.0,0.0,0.0,0.0,0.0,0.0,0.0,0.0,0.0,0.0,0.0,0.0,0.0,0.0,0.0,0.0,0.0,0.0,0.0,0.0,0.0,0.0,0.0,0.0,0.0,0.0,0.0,0.0,0.0,0.0,0.0,0.0,0.0,0.0,0.0,0.0,0.0,0.0,0.0,0.0,0.0,0.0,0.0,0.0,0.0,0.0,0.0,0.0,0.0,0.0,0.0,0.0,0.0,0.0,0.0,0.0,0.0,0.0,0.0,0.0,0.0,0.0,0.0,0.0,0.0,0.0,0.0,0.0,0.0,0.0,0.0,0.0,0.0,0.0,0.0,0.0,0.0,0.0,0.0,0.0,0.0,0.0,0.0,0.0,0.0,0.0,0.0,0.0,0.0,0.0,0.0,0.0,0.0,0.0,0.0,0.0,0.0,0.0,0.0,0.0,0.0,0.0,0.0,0.0,0.0,0.0,0.0,0.0,0.0,0.0,0.0,0.0,0.0,0.0,0.0,0.0,0.0,0.0,0.0,0.0,0.0,0.0,0.0,0.0,0.0,0.0,0.0,0.0,0.0,0.0,0.0,0.0,0.0,0.0,0.0,0.0,0.0,0.0,0.0,0.0,0.0,0.0,0.0,0.0,0.0,0.0,0.0,0.0,0.0,0.0,0.0,0.0,0.0,0.0,0.0,0.0,0.0,0.0,0.0,0.0,0.0,0.0,0.0,0.0,0.0,0.0,0.0,0.0,0.0,0.0,0.0,0.0,0.0,0.0,0.0,0.0,0.0,0.0,0.0,0.0,0.0,0.0,0.0,0.0,0.0,0.0,0.0,0.0,0.0,0.0,0.0,0.0,0.0,0.0,0.0,0.0,0.0,0.0,0.0,0.0,0.0,0.0,0.0,0.0,0.0,0.0,0.0,0.0,0.0,0.0,0.0,0.0,0.0,0.0,0.0,0.0,0.0,0.0,0.0,0.0,0.0,0.0,0.0,0.0,0.0,0.0,0.0,0.0,0.0,0.0,0.0,0.0,0.0,0.0,0.0,0.0,0.0,0.0,0.0,0.0,0.0,0.0,0.0,0.0,0.0,0.0,0.0,0.0,0.0,0.0,0.0,0.0,0.0,0.0,0.0,0.0,0.0,0.0,0.0,0.0,0.0,0.0,0.0,0.0,0.0,0.0,0.0,0.0,0.0,0.0,0.0,0.0,0.0,0.0,0.0,0.0,0.0,0.0,0.0,0.0,0.0,0.0,0.0,0.0,0.0,0.0,0.0,0.0,0.0,0.0,0.0,0.0,0.0,0.0,0.0,0.0,0.0,0.0,0.0,0.0,0.0,0.0,0.0,0.0,0.0,0.0,0.0,0.0,0.0,0.0,0.0,0.0,0.0,0.0,0.0,0.0,0.0,0.0,0.0,0.0,0.0,0.0,0.0,0.0,0.0,0.0,0.0,0.0,0.0,0.0,0.0,0.0,0.0,0.0,0.0,0.0,0.0,0.0,0.0,0.0,0.0,0.0,0.0,0.0,0.0,0.0,0.0,0.0,0.0,0.0,0.0,0.0,0.0,0.0,0.0,0.0,0.0,0.0,0.0,0.0,0.0,0.0,0.0,0.0,0.0,0.0,0.0,0.0,0.0,0.0,0.0,0.0,0.0,0.0,0.0,0.0,0.0,0.0,0.0,0.0,0.0,0.0,0.0,0.0,0.0,0.0,0.0,0.0,0.0,0.0,0.0,0.0,0.0,0.0,0.0,0.0,0.0,0.0,0.0,0.0,0.0,0.0,0.0,0.0,0.0,0.0,0.0,0.0,0.0,0.0,0.0,0.0,0.0,0.0,0.0,0.0,0.0,0.0,0.0,0.0,0.0,0.0,0.0,0.0,0.0,0.0,0.0,0.0,0.0,0.0,0.0,0.0,0.0,0.0,0.0,0.0,0.0,0.0,0.0,0.0,0.0,0.0,0.0,0.0,0.0,0.0,0.0,0.0,0.0,0.0,0.0,0.0,0.0,0.0,0.0,0.0,0.0,0.0,0.0,0.0,0.0,0.0,0.0,0.0,0.0,0.0,0.0,0.0,0.0,0.0,0.0,0.0,0.0,0.0,0.0,0.0,0.0,0.0,0.0,0.0,0.0,0.0,0.0,0.0,0.0,0.0,0.0,0.0,0.0,0.0,0.0,0.0,0.0,0.0,0.0,0.0,0.0,0.0,0.0,0.0,0.0,0.0,0.0,0.0,0.0,0.0,0.0,0.0,0.0,0.0,0.0,0.0,0.0,0.0,0.0,0.0,0.0,0.0,0.0,0.0,0.0,0.0,0.0,0.0,0.0,0.0,0.0,0.0,0.0,0.0,0.0,0.0,0.0,0.0,0.0,0.0,0.0,0.0,0.0,0.0,0.0,0.0,0.0,0.0,0.0,0.0,0.0,0.0,0.0,0.0,0.0,0.0,0.0,0.0,0.0,0.0,0.0,0.0,0.0,0.0,0.0,0.0,0.0,0.0,0.0,0.0,0.0,0.0,0.0,0.0,0.0,0.0,0.0,0.0,0.0,0.0,0.0,0.0,0.0,0.0,0.0,0.0,0.0,0.0,0.0,0.0,0.0,0.0,0.0,0.0,0.0,0.0,0.0,0.0,0.0,0.0,0.0,0.0,0.0,0.0,0.0,0.0,0.0,0.0,0.0,0.0,0.0,0.0,0.0,0.0,0.0,0.0,0.0,0.0,0.0,0.0,0.0,0.0,0.0,0.0,0.0,0.0,0.0,0.0,0.0,0.0,0.0,0.0,0.0,0.0,0.0,0.0,0.0,0.0,0.0,0.0,0.0,0.0,0.0,0.0,0.0,0.0,0.0,0.0,0.0,0.0,0.0,0.0,0.0,0.0,0.0,0.0,0.0,0.0,0.0,0.0,0.0,0.0,0.0,0.0,0.0,0.0,0.0,0.0,0.0,0.0,0.0,0.0,0.0,0.0,0.0,0.0,0.0,0.0,0.0,0.0,0.0,0.0,0.0,0.0,0.0,0.0,0.0,0.0,0.0,0.0,0.0,0.0,0.0,0.0,0.0,0.0,0.0,0.0,0.0,0.0,0.0,0.0,0.0,0.0,0.0,0.0,0.0,0.0,0.0,0.0,0.0,0.0,0.0,0.0,0.0,0.0,0.0,0.0,0.0,0.0,0.0,0.0,0.0,0.0,0.0,0.0,0.0,0.0,0.0,0.0,0.0,0.0,0.0,0.0,0.0,0.0,0.0,0.0,0.0,0.0,0.0,0.0,0.0,0.0,0.0,0.0,0.0,0.0,0.0,0.0,0.0,0.0,0.0,0.0,0.0,0.0,0.0,0.0,0.0,0.0,0.0,0.0,0.0,0.0,0.0,0.0,0.0,0.0,0.0,0.0,0.0,0.0,0.0,0.0,0.0,0.0,0.0,0.0,0.0,0.0,0.0,0.0,0.0,0.0,0.0,0.0,0.0,0.0,0.0,0.0,0.0,0.0,0.0,0.0,0.0,0.0,0.0,0.0,0.0,0.0,0.0,0.0,0.0,0.0,0.0,0.0,0.0,0.0,0.0,0.0,0.0,0.0,0.0,0.0,0.0,0.0,0.0,0.0,0.0,0.0,0.0,0.0,0.0,0.0,0.0,0.0,0.0,0.0,0.0,0.0,0.0,0.0,0.0,0.0,0.0,0.0,0.0,0.0,0.0,0.0,0.0,0.0,0.0,0.0,0.0,0.0,0.0,0.0,0.0,0.0,0.0,0.0,0.0,0.0,0.0,0.0,0.0,0.0,0.0,0.0,0.0,0.0,0.0,0.0,0.0,0.0,0.0,0.0,0.0,0.0,0.0,0.0,0.0,0.0,0.0,0.0,0.0,0.0,0.0,-4.7091,0.0,0.0,0.0,0.0,0.0,0.0,0.0,0.0,0.0,0.0,0.0,0.0,0.0,0.0,0.0,0.0,0.0,0.0,0.0,0.0,0.0,0.0,0.0,0.0,0.0,0.0,0.0,-4.1108,-4.11,-4.1109,-4.1064,-4.1056,-4.1052,-4.099,-4.0949,-4.0957,-4.0917,-4.0904,-4.0904,-4.0863,-4.0849,-4.0854,-4.0926,-4.0997,-4.1052,0.0,0.0,0.0,0.0,0.0,0.0,0.0,0.0,0.0,0.0,0.0,0.0,0.0,0.0,0.0,0.0,0.0,0.0,0.0,0.0,0.0,0.0,0.0,0.0,0.0,0.0,0.0,0.0,0.0,0.0,0.0,0.0,0.0,0.0,0.0,0.0,0.0,0.0,0.0,0.0,0.0,0.0,0.0,0.0,0.0,0.0,0.0,0.0,0.0,0.0,0.0,0.0,0.0,0.0,0.0,0.0,0.0,0.0,0.0,0.0,0.0,0.0,0.0,0.0,0.0,0.0,0.0,0.0,0.0,0.0,0.0,-4.7333,0.0,0.0,0.0,0.0,0.0,0.0,0.0,0.0,0.0,0.0,0.0,0.0,0.0,0.0,0.0,0.0,0.0,0.0,0.0,0.0,0.0,0.0,0.0,0.0,-4.0388,-4.1031,-4.1097,-4.1097,-4.1083,-4.1025,-4.0979,-4.0975,-4.0915,-4.0888,-4.0873,-4.0804,-4.0768,-4.0743,-4.0754,-4.0742,-4.0742,-4.0897,-4.0945,0.0,0.0,0.0,0.0,0.0,0.0,0.0,0.0,0.0,0.0,0.0,0.0,0.0,0.0,0.0,0.0,0.0,0.0,0.0,0.0,0.0,0.0,0.0,0.0,0.0,0.0,0.0,0.0,0.0,0.0,0.0,0.0,0.0,0.0,0.0,0.0,0.0,0.0,0.0,0.0,0.0,0.0,0.0,0.0,0.0,0.0,0.0,0.0,0.0,0.0,0.0,0.0,0.0,0.0,0.0,0.0,0.0,0.0,0.0,0.0,0.0,0.0,0.0,0.0,0.0,-5.0737,-5.1438,-5.2736,-5.2011,-5.1247,-5.0407,-4.9203,-4.8443,-4.8,-4.739,0.0,0.0,0.0,0.0,0.0,0.0,0.0,0.0,0.0,0.0,0.0,0.0,0.0,0.0,0.0,0.0,0.0,0.0,0.0,0.0,0.0,-4.0076,-4.0988,-4.1094,-4.1094,-4.1083,-4.1026,-4.0945,-4.0891,-4.0833,-4.0821,-4.0794,-4.0733,-4.0662,-4.0609,-4.0535,-4.0537,-4.0542,-4.0561,-4.1305,-4.1277,-4.057,0.0,0.0,0.0,0.0,0.0,0.0,0.0,0.0,0.0,0.0,0.0,0.0,0.0,0.0,0.0,0.0,0.0,0.0,0.0,0.0,0.0,0.0,0.0,0.0,0.0,0.0,0.0,0.0,0.0,0.0,0.0,0.0,0.0,0.0,0.0,0.0,0.0,0.0,0.0,0.0,0.0,0.0,0.0,0.0,-4.6442,-4.6442,0.0,0.0,0.0,0.0,0.0,0.0,0.0,0.0,0.0,0.0,0.0,0.0,0.0,-4.8348,-4.9802,-4.9821,-5.0647,-5.2303,-5.229,-5.2404,-5.2614,-5.25,-5.2024,-5.1237,-5.1053,0.0,-4.7835,-4.7806,0.0,0.0,0.0,0.0,0.0,0.0,0.0,0.0,0.0,0.0,0.0,0.0,0.0,0.0,0.0,0.0,0.0,0.0,0.0,0.0,0.0,-3.9659,-4.0566,-4.1055,-4.1061,-4.102,-4.096,-4.0873,-4.0798,-4.0687,-4.0688,-4.0635,-4.0534,-4.0496,-4.0414,-4.0274,-4.023,-4.0471,-4.0959,-4.1342,-4.1571,-4.1655,-4.1303,-4.1007,-4.0754,-4.0313,0.0,0.0,0.0,0.0,0.0,0.0,0.0,0.0,0.0,0.0,0.0,0.0,0.0,0.0,0.0,0.0,0.0,0.0,0.0,0.0,0.0,0.0,0.0,0.0,0.0,0.0,0.0,0.0,0.0,0.0,0.0,0.0,0.0,0.0,0.0,0.0,0.0,0.0,0.0,-4.6108,-4.655,-4.7045,-4.7159,-4.7212,0.0,0.0,0.0,0.0,0.0,0.0,0.0,0.0,0.0,-4.8985,-4.948,-5.0317,-5.1484,-5.1464,-5.2058,-5.3275,-5.3233,-5.3452,-5.387,-5.3414,-5.275,-5.1934,-5.1478,-5.0417,-4.8953,-4.8613,-4.846,-4.8395,0.0,0.0,0.0,0.0,-4.5592,-4.4854,0.0,0.0,0.0,0.0,0.0,0.0,0.0,0.0,0.0,0.0,0.0,0.0,-3.8507,-3.951,-4.0387,-4.1022,-4.1013,-4.0948,-4.0854,-4.0771,-4.0675,-4.0537,-4.0515,-4.0446,-4.0341,-4.027,-4.0158,-4.0001,-3.9941,-4.0262,-4.0897,-4.1125,-4.1461,-4.1865,-4.149,-4.1167,-4.0875,-4.0069,-3.9624,0.0,0.0,0.0,0.0,0.0,0.0,0.0,0.0,0.0,0.0,0.0,0.0,0.0,0.0,0.0,0.0,0.0,0.0,0.0,0.0,0.0,0.0,0.0,0.0,0.0,0.0,0.0,0.0,0.0,0.0,0.0,0.0,0.0,0.0,0.0,0.0,0.0,0.0,-4.643,-4.6992,-4.7643,-4.7808,-4.7858,0.0,0.0,0.0,0.0,0.0,0.0,-4.8156,-4.9182,-5.0043,-5.0618,-5.1264,-5.1985,-5.2802,-5.276,-5.3168,-5.4021,-5.3754,-5.3951,-5.45,-5.3686,-5.2834,-5.1982,-5.1377,-5.0638,-4.9814,-4.9366,-4.9174,-4.911,-4.8369,-4.7686,-4.7056,-4.6628,-4.6094,-4.554,0.0,0.0,0.0,0.0,0.0,0.0,0.0,0.0,0.0,0.0,0.0,-3.8534,-3.8514,-4.0016,-4.1022,-4.1016,-4.0935,-4.0856,-4.0712,-4.0589,-4.0473,-4.0402,-4.0297,-4.0196,-4.0108,-3.9933,-3.9785,-3.9728,-3.9728,-3.9735,-3.9792,-4.0634,-4.062,-3.9977,-4.0764,-4.127,-4.1508,-4.0705,-3.9946,-3.9295,0.0,0.0,0.0,0.0,0.0,0.0,0.0,0.0,0.0,0.0,0.0,0.0,0.0,0.0,0.0,0.0,0.0,0.0,0.0,0.0,0.0,0.0,0.0,0.0,0.0,0.0,0.0,0.0,0.0,0.0,0.0,0.0,0.0,0.0,0.0,0.0,0.0,0.0,0.0,-4.8348,-4.8459,0.0,0.0,0.0,0.0,-4.7403,-4.8894,-4.9762,-4.9679,-5.1244,-5.2122,-5.2085,-5.2141,-5.2537,-5.3345,-5.3349,-5.3783,-5.4648,-5.3802,-5.3443,-5.3443,-5.2647,-5.1798,-5.0971,-5.0914,-5.0462,-4.9721,-4.9868,-4.9942,-4.9866,-4.9131,-4.8826,-4.8597,-4.6998,-4.637,-4.6237,0.0,0.0,0.0,0.0,0.0,0.0,0.0,0.0,-3.6123,-3.6754,-3.787,-3.8795,-3.9273,-4.0354,-4.1009,-4.095,-4.0823,-4.0713,-4.0586,-4.0446,-4.0295,-4.0158,-4.0059,-3.9916,-3.9717,-3.9477,-3.9337,-3.9311,-3.9232,-3.9439,-3.9974,-4.0327,-4.0643,-4.0953,-4.0828,-4.0871,-4.0988,-4.0444,-4.0114,-3.9909,-3.9369,0.0,0.0,0.0,0.0,0.0,0.0,0.0,0.0,0.0,0.0,0.0,0.0,0.0,0.0,0.0,0.0,0.0,0.0,0.0,0.0,0.0,0.0,0.0,0.0,0.0,0.0,0.0,0.0,0.0,0.0,0.0,0.0,0.0,0.0,0.0,0.0,0.0,0.0,-4.9618,-5.0288,0.0,-5.0719,-5.0455,-5.0305,-5.0305,-5.085,-5.1189,-5.1143,-5.1723,-5.2271,-5.2763,-5.2782,-5.2914,-5.3193,-5.3212,-5.3099,-5.2889,-5.2588,-5.2438,-5.2419,-5.2137,-5.1569,-5.0843,-5.0843,-5.0402,-4.9707,-4.9792,-4.9821,-4.9783,-4.9527,-4.9073,-4.8448,-4.7326,-4.6587,-4.6019,0.0,0.0,0.0,0.0,0.0,0.0,0.0,0.0,-3.6245,-3.7186,-3.8062,-3.89,-3.9704,-4.0497,-4.0932,-4.0848,-4.0719,-4.0566,-4.0406,-4.0242,-4.008,-3.987,-3.9717,-3.9508,-3.9234,-3.9022,-3.8898,-3.8855,-3.877,-3.9001,-3.9531,-3.9559,0.0,0.0,0.0,0.0,0.0,0.0,0.0,0.0,0.0,0.0,-3.9004,0.0,0.0,0.0,0.0,0.0,0.0,0.0,0.0,0.0,0.0,0.0,0.0,0.0,0.0,0.0,0.0,0.0,0.0,0.0,0.0,0.0,0.0,0.0,0.0,0.0,0.0,0.0,0.0,0.0,0.0,0.0,0.0,0.0,0.0,0.0,-4.9718,-5.0556,-5.1274,-5.1695,-5.1695,-5.1695,-5.1695,-5.1695,-5.1974,-5.2143,-5.2143,-5.2404,-5.2797,-5.3321,-5.3076,-5.2927,-5.2925,-5.2663,-5.2252,-5.1744,-5.1445,-5.1295,-5.1276,-5.1014,-5.0635,-5.0193,-5.0193,-4.979,-4.913,-4.913,-4.8942,-4.8731,-4.9116,-4.8919,-4.8277,-4.7183,-4.6461,-4.5881,0.0,0.0,0.0,0.0,0.0,0.0,0.0,-3.5855,-3.6241,-3.7207,-3.8061,-3.8917,-3.975,-4.0466,-4.0844,-4.0709,-4.0581,-4.0417,-4.0214,-4.0,-3.9796,-3.9587,-3.9259,-3.8956,-3.8685,-3.8612,-3.8507,-3.8382,-3.8366,-3.8366,0.0,0.0,0.0,0.0,0.0,0.0,0.0,0.0,0.0,0.0,0.0,0.0,-3.8822,0.0,0.0,0.0,0.0,0.0,0.0,0.0,0.0,0.0,0.0,0.0,0.0,0.0,0.0,0.0,0.0,0.0,0.0,0.0,0.0,0.0,0.0,0.0,0.0,0.0,0.0,0.0,0.0,0.0,0.0,0.0,0.0,0.0,-4.855,-4.9436,-5.0361,-5.1139,-5.1306,-5.1361,-5.1361,-5.1361,-5.1361,-5.1361,-5.2141,-5.2624,-5.2624,-5.3348,-5.3775,-5.3738,-5.2995,-5.2549,-5.2494,-5.1732,-5.1342,-5.1304,-5.045,-5.0042,-5.0023,-4.9226,-4.8925,-4.8956,-4.8937,-4.8557,-4.7962,-4.7962,-4.7457,-4.6797,-4.7922,-4.8357,-4.8169,-4.6579,-4.5976,-4.5825,0.0,0.0,0.0,0.0,0.0,0.0,0.0,-3.5858,-3.6441,-3.7968,-3.8372,-3.9064,-4.0516,-4.0762,-4.0784,-4.072,-4.0519,-4.0342,-4.0128,-3.9884,-3.9587,-3.9178,-3.884,0.0,-3.8328,-3.817,-3.8019,-3.7879,-3.7845,0.0,0.0,0.0,0.0,0.0,0.0,0.0,0.0,0.0,0.0,0.0,0.0,0.0,-3.9377,0.0,0.0,0.0,0.0,0.0,0.0,0.0,0.0,0.0,0.0,0.0,0.0,0.0,0.0,0.0,0.0,0.0,0.0,0.0,0.0,0.0,0.0,0.0,0.0,0.0,0.0,0.0,0.0,0.0,0.0,0.0,0.0,-4.8108,-4.8284,-5.0048,-5.1389,-5.161,-5.2208,-5.26,-5.26,-5.26,-5.26,-5.26,-5.2841,-5.297,-5.297,-5.3173,-5.3044,-5.251,-5.227,-5.159,-5.0374,-5.0135,-4.9729,-4.9139,-4.89,-4.8789,-4.8789,-4.8568,-4.8218,-4.7773,-4.7808,-4.7432,-4.6771,-4.6873,-4.6759,-4.6605,-4.7117,-4.7301,-4.7185,-4.6153,-4.5397,-4.4871,0.0,0.0,0.0,0.0,0.0,0.0,0.0,-3.5869,-3.6533,-3.8278,-3.8492,-3.9144,-4.0814,-4.0889,-4.0757,-4.0674,-4.0465,-4.0262,-4.0036,-3.9658,-3.9298,0.0,0.0,-3.832,-3.8069,-3.781,-3.7613,-3.7449,-3.7392,0.0,0.0,0.0,0.0,0.0,0.0,0.0,0.0,0.0,0.0,0.0,0.0,0.0,-3.997,-4.0008,-4.0502,-4.1194,-4.1172,-4.1417,-4.1754,-4.1698,0.0,0.0,0.0,0.0,0.0,0.0,0.0,0.0,0.0,0.0,0.0,0.0,0.0,0.0,0.0,0.0,0.0,0.0,0.0,0.0,0.0,0.0,0.0,0.0,-4.8204,-4.9079,-4.9487,-5.0809,-5.1834,-5.2181,-5.2666,-5.2965,-5.2965,-5.2965,-5.2965,-5.2965,-5.2965,-5.2965,-5.2965,-5.2636,-5.2291,-5.1852,-5.1193,-5.0369,-4.9378,-4.905,-4.8648,-4.817,-4.817,-4.817,-4.8152,-4.7802,-4.7439,0.0,-4.6765,-4.623,-4.5562,-4.5685,-4.5534,0.0,0.0,0.0,0.0,0.0,-4.4866,-4.4416,0.0,0.0,0.0,0.0,0.0,0.0,0.0,-3.5852,-3.6497,-3.8136,-3.8436,-3.9096,-4.0694,-4.082,-4.0757,-4.0622,-4.0425,-4.0168,-3.9859,0.0,0.0,-3.8807,-3.8467,-3.8157,-3.7864,-3.754,-3.7261,-3.7069,-3.6989,0.0,0.0,0.0,0.0,0.0,0.0,0.0,0.0,0.0,0.0,0.0,0.0,0.0,-4.0356,-4.05,-4.1013,-4.1667,-4.176,-4.1802,-4.1792,-4.1776,0.0,0.0,0.0,0.0,0.0,0.0,0.0,0.0,0.0,0.0,0.0,0.0,0.0,0.0,0.0,0.0,0.0,0.0,0.0,0.0,0.0,0.0,0.0,0.0,-4.934,-5.0566,-5.1274,-5.1566,-5.196,-5.2688,-5.2779,-5.2779,-5.2779,-5.2779,-5.2779,-5.2779,-5.2779,-5.2725,-5.2652,0.0,0.0,0.0,0.0,-4.9117,-4.9026,-4.8316,-4.7972,-4.7972,-4.7951,-4.7951,-4.7915,-4.705,-4.6632,-4.6567,-4.5766,-4.5002,-4.4327,-4.4436,-4.4086,-4.357,-4.4758,-4.523,-4.5168,-4.4591,-4.4383,-4.4285,0.0,0.0,0.0,0.0,0.0,0.0,0.0,-3.5853,-3.627,-3.7311,-3.8066,-3.8887,-3.9923,-4.0529,-4.0833,-4.0687,-4.0446,-4.009,0.0,0.0,-3.8993,-3.8719,-3.8352,-3.7984,-3.7667,-3.7318,-3.705,-3.6851,0.0,0.0,0.0,0.0,0.0,0.0,0.0,0.0,0.0,0.0,0.0,0.0,0.0,0.0,-3.9279,-3.9941,-4.07,-4.1462,-4.2112,-4.319,-4.4301,-4.418,-4.4572,-4.5089,-4.5037,0.0,0.0,0.0,0.0,0.0,0.0,0.0,0.0,0.0,0.0,0.0,0.0,0.0,0.0,0.0,0.0,0.0,0.0,0.0,0.0,-4.8385,-4.9888,-5.1013,-5.1271,-5.1914,-5.2368,-5.2531,-5.2549,-5.2549,-5.2549,-5.2549,-5.2549,-5.2549,-5.2549,-5.2259,-5.1606,-5.1425,-5.0754,-4.9466,-4.9122,-4.8669,-4.7998,-4.7853,-4.7762,-4.7762,0.0,0.0,-4.756,-4.6678,-4.5954,-4.5307,-4.4594,-4.3857,-4.3135,-4.323,-4.3251,-4.3304,-4.3832,-4.4165,-4.4333,-4.4211,-4.4218,-4.4198,0.0,0.0,0.0,0.0,0.0,0.0,0.0,-3.5818,-3.617,-3.7084,-3.7968,-3.8663,-3.9097,-3.9841,-4.0242,-4.0105,-4.0172,-4.0031,0.0,-3.9376,-3.9073,-3.8807,-3.8446,-3.8086,-3.7757,-3.7392,-3.7106,-3.6908,0.0,0.0,0.0,0.0,0.0,0.0,0.0,0.0,0.0,0.0,0.0,0.0,0.0,0.0,-3.8857,-4.0176,-4.1185,-4.1949,-4.273,-4.3526,-4.4229,-4.4436,-4.4766,-4.515,-4.5494,-4.4902,-4.4004,0.0,0.0,0.0,0.0,0.0,0.0,0.0,0.0,0.0,0.0,0.0,0.0,0.0,0.0,-4.5701,-4.6382,0.0,-4.8575,-4.9717,-5.0597,-5.1293,-5.1846,-5.2245,-5.2498,-5.2498,-5.2498,-5.2498,-5.2498,-5.2498,-5.2498,-5.2498,-5.2118,-5.1719,-5.1303,-5.0542,-4.9727,-4.8927,-4.8511,-4.8094,-4.7717,-4.7717,-4.7717,-4.7717,-4.7554,-4.7295,-4.6858,-4.5935,-4.506,-4.4273,-4.356,-4.3023,-4.2665,-4.2727,-4.2843,-4.3012,-4.3232,-4.3528,-4.3857,-4.3889,-4.4002,-4.3975,0.0,0.0,0.0,0.0,0.0,0.0,0.0,-3.5768,-3.6083,-3.6852,-3.7728,-3.8279,-3.8276,-3.8982,-3.9466,-3.9466,-3.9733,0.0,0.0,-3.952,-3.9307,-3.9172,-3.8857,-3.8594,-3.8419,-3.7861,-3.7488,-3.7294,0.0,0.0,0.0,0.0,0.0,0.0,0.0,0.0,0.0,0.0,0.0,0.0,0.0,0.0,-3.8656,-4.0375,-4.1475,-4.2239,-4.2982,-4.3392,-4.3651,-4.405,-4.4263,-4.4441,-4.4991,-4.4466,-4.3655,-4.3635,-4.275,0.0,0.0,0.0,0.0,0.0,0.0,0.0,0.0,0.0,-4.4222,-4.4618,-4.5809,-4.6881,-4.7287,-4.8514,-4.9811,-5.0878,-5.1182,-5.1594,-5.2384,-5.2498,-5.2498,-5.2498,-5.2498,-5.2498,-5.2498,-5.2498,-5.2426,-5.2281,-5.1665,-5.1158,-5.085,-4.9601,-4.8818,-4.8656,-4.8022,-4.7717,-4.7717,-4.7717,-4.7717,-4.7717,-4.7533,-4.7053,-4.626,-4.5236,-4.4324,-4.354,-4.2785,-4.2463,-4.2483,-4.2528,-4.2627,-4.2763,-4.2804,-4.3087,-4.3477,-4.3595,-4.3668,-4.3512,0.0,0.0,0.0,0.0,0.0,0.0,0.0,0.0,-3.585,-3.6018,-3.6859,-3.7421,-3.7435,-3.8159,-3.8813,-3.927,0.0,0.0,-3.9863,-3.9686,-3.9733,-4.0127,-3.982,-3.9816,-4.0202,-3.9174,-3.8534,-3.8321,0.0,0.0,0.0,0.0,0.0,0.0,0.0,0.0,0.0,0.0,0.0,0.0,0.0,0.0,-3.854,-3.963,-4.054,-4.135,-4.2075,-4.3176,-4.4272,-4.4156,-4.4467,-4.488,-4.4742,-4.3989,-4.3154,-4.3045,0.0,-4.1471,-4.1471,-4.1307,-4.1313,-4.2053,-4.2243,-4.2608,0.0,0.0,-4.5819,-4.6695,-4.7525,-4.8206,-4.8618,-4.9401,-5.0197,-5.0832,-5.1514,-5.2114,-5.2457,-5.2498,-5.2498,-5.2498,-5.2498,-5.2498,-5.2498,-5.2498,-5.219,-5.1484,-5.1339,-5.0669,-4.9235,-4.8999,-4.8565,-4.7859,-4.7753,-4.7717,-4.7717,-4.7717,-4.7717,-4.7696,-4.7428,-4.6946,-4.619,-4.5111,-4.4214,-4.3486,-4.2665,-4.2308,-4.2308,-4.2328,-4.2407,-4.2524,-4.2544,-4.2707,-4.3013,-4.3392,-4.3155,-4.2546,0.0,0.0,0.0,0.0,0.0,0.0,0.0,0.0,0.0,-3.5886,-3.668,-3.7062,-3.6581,-3.7267,-3.801,0.0,0.0,0.0,-4.0146,-3.9972,-4.0049,-4.0576,-4.03,-4.0397,-4.0904,-4.0254,-3.9824,-3.966,-3.8611,0.0,0.0,0.0,0.0,0.0,0.0,0.0,0.0,0.0,0.0,0.0,0.0,0.0,-3.8515,-3.9009,-3.9698,-4.049,-4.1147,-4.1756,0.0,0.0,-4.2548,-4.2703,-4.2921,-4.2277,-4.1464,-4.1398,-4.0674,0.0,-4.033,-4.0689,0.0,0.0,-4.278,-4.3195,-4.4775,-4.5788,-4.6534,-4.7098,-4.8216,-4.9214,-4.9531,-5.0388,-5.1166,0.0,-5.1958,-5.2269,-5.2475,-5.2498,-5.2498,-5.2498,-5.2498,-5.2498,-5.2498,-5.2063,-5.1647,-5.1321,-5.0434,-4.9619,-4.8927,-4.8456,-4.8061,-4.7717,-4.7717,-4.7717,-4.7717,-4.7717,-4.7464,-4.699,-4.6762,-4.6007,-4.4785,-4.421,-4.3554,-4.2769,-4.2468,-4.2308,-4.2308,-4.2308,-4.2328,-4.2387,-4.2463,-4.2588,-4.2767,-4.3123,-4.2915,-4.2339,0.0,0.0,0.0,0.0,0.0,0.0,0.0,0.0,0.0,0.0,-3.6431,-3.6635,-3.6054,-3.6716,-3.7509,0.0,0.0,0.0,0.0,-4.0247,-4.0355,-4.0892,-4.0871,0.0,-4.165,-4.1383,-4.115,-4.0994,-3.9967,0.0,0.0,0.0,0.0,0.0,0.0,0.0,0.0,0.0,0.0,0.0,0.0,0.0,-3.8927,-3.8808,-3.9118,-3.9677,-4.0255,-4.054,0.0,0.0,-4.0808,-4.0674,-4.0955,-4.0529,-3.9936,-3.9853,-3.9472,-3.9138,-3.9583,0.0,0.0,-4.281,-4.3214,-4.3662,-4.5234,-4.6274,-4.6987,-4.7219,-4.8407,-4.952,-4.9809,-5.0514,-5.1146,-5.1437,-5.1573,-5.1667,-5.1805,-5.1828,-5.1828,-5.1828,-5.1828,-5.1828,-5.1828,-5.1502,-5.1104,-5.0669,-4.9564,-4.88,-4.8565,-4.8025,-4.7717,-4.7717,-4.7717,-4.7588,-4.7373,-4.7373,-4.6975,-4.6178,-4.5969,-4.5144,-4.3796,-4.3373,-4.2858,-4.2308,-4.2308,-4.2308,-4.2308,-4.2308,-4.2308,-4.2308,-4.2405,-4.2508,-4.2611,-4.2683,-4.2412,-4.1914,0.0,0.0,0.0,0.0,0.0,0.0,0.0,0.0,0.0,0.0,0.0,0.0,0.0,0.0,0.0,0.0,0.0,0.0,0.0,-4.0456,-4.0626,-4.1161,-4.1732,-4.2288,-4.2837,-4.2649,-4.2435,-4.2248,-4.1301,-4.0815,0.0,0.0,0.0,0.0,0.0,0.0,0.0,0.0,0.0,0.0,0.0,0.0,-3.9959,-3.9187,-3.8885,-3.8891,-3.9447,0.0,0.0,0.0,-3.9929,-3.959,-3.9277,-3.9107,0.0,-3.8718,-3.9134,0.0,0.0,0.0,-4.1274,-4.281,-4.3289,-4.3786,-4.5243,-4.643,-4.7245,-4.7372,-4.8113,-4.8862,-4.9256,-4.9347,-4.9484,-4.9915,-4.9961,-5.0028,-5.0162,-5.0184,-5.0184,-5.0184,-5.0184,-5.0184,0.0,-5.085,-5.0651,-4.9072,-4.8927,-4.8547,-4.779,-4.7696,-4.7717,-4.7717,-4.7717,-4.7337,-4.654,-4.654,-4.6142,-4.5327,-4.5122,-4.4605,-4.3778,-4.2765,-4.2325,-4.2308,-4.2308,-4.2308,-4.2308,-4.2308,-4.2308,-4.2308,-4.2308,-4.243,-4.2539,-4.1938,-4.1396,-4.0978,0.0,0.0,0.0,0.0,0.0,0.0,0.0,0.0,0.0,0.0,0.0,0.0,0.0,0.0,0.0,0.0,0.0,0.0,0.0,-4.0726,-4.091,-4.1505,-4.1599,-4.1933,-4.2541,-4.2376,-4.2188,-4.2023,-4.1623,-4.1404,0.0,0.0,0.0,0.0,0.0,0.0,0.0,0.0,0.0,0.0,0.0,0.0,-3.9472,-3.9212,-3.9036,-3.8943,0.0,0.0,0.0,0.0,-3.7238,-3.6533,-3.6831,0.0,0.0,-3.6964,-3.7974,-3.8979,0.0,0.0,-4.1393,-4.3013,-4.3499,-4.4021,-4.5631,-4.6768,-4.7505,-4.7685,-4.8451,-4.9172,-4.9407,-4.9572,-4.9734,-4.9888,-4.9978,-5.0045,-5.009,-5.0112,-5.0112,-5.0112,-5.0112,0.0,0.0,0.0,0.0,-4.8927,-4.8402,-4.7986,-4.7696,-4.7717,-4.7717,-4.7717,-4.7717,-4.7319,-4.6504,-4.6504,-4.5812,-4.4431,-4.3688,-4.3151,-4.2803,-4.2453,-4.2308,-4.2308,-4.2308,-4.2308,-4.2308,-4.2308,-4.2308,-4.2308,-4.2308,-4.2407,-4.2458,-4.1862,-4.1252,-4.0681,0.0,0.0,0.0,0.0,0.0,0.0,0.0,0.0,0.0,0.0,0.0,0.0,0.0,0.0,0.0,0.0,0.0,0.0,0.0,0.0,-4.0997,-4.1364,-4.1505,-4.175,-4.2113,-4.2256,-4.2248,-4.2109,-4.2001,-4.1911,-4.1817,0.0,0.0,0.0,0.0,0.0,0.0,0.0,0.0,0.0,0.0,0.0,-3.9806,-3.9481,-3.9251,0.0,0.0,0.0,0.0,0.0,0.0,-3.5155,-3.5734,-3.5871,-3.5908,-3.6309,-3.7343,-3.8382,-3.8764,-3.9815,-4.118,-4.2764,-4.3296,-4.3793,-4.5176,-4.6029,-4.6566,-4.6758,-4.7306,-4.7796,-4.7913,-4.8303,-4.863,-4.8674,-4.9014,-4.9238,-4.9238,-4.9238,-4.9238,-4.9238,-4.9238,-4.9039,0.0,0.0,0.0,-4.8456,-4.7986,-4.7717,-4.7717,-4.7717,-4.7717,-4.7717,-4.7428,-4.6884,-4.6087,-4.5798,-4.4903,-4.3482,-4.2817,-4.2425,-4.2308,-4.2308,-4.2308,-4.2308,-4.2308,-4.2308,-4.2308,-4.2308,-4.2308,-4.2308,-4.2308,-4.2366,-4.2398,-4.1499,-4.0926,-4.0559,0.0,0.0,0.0,0.0,0.0,0.0,0.0,0.0,0.0,0.0,0.0,0.0,0.0,0.0,0.0,0.0,0.0,0.0,0.0,0.0,0.0,-4.0811,-4.1473,-4.1764,-4.1566,-4.2247,-4.2536,-4.239,-4.2384,-4.2314,-4.2167,-4.2212,0.0,0.0,0.0,0.0,0.0,0.0,0.0,-4.2198,-4.1358,0.0,-4.0856,-3.9967,0.0,0.0,0.0,0.0,0.0,0.0,0.0,0.0,0.0,-3.6432,-3.6809,-3.6725,-3.7224,-3.799,-3.8798,-3.9669,-4.0696,-4.223,-4.2763,-4.3164,-4.4014,-4.4432,-4.4668,-4.4775,-4.492,-4.5024,0.0,0.0,-4.6362,-4.6483,-4.7192,-4.7717,-4.7717,-4.7717,-4.7717,0.0,0.0,0.0,0.0,0.0,0.0,-4.7717,0.0,-4.7717,-4.7717,-4.7717,-4.7717,-4.7717,-4.692,-4.6106,-4.5309,-4.4458,-4.3526,-4.2609,-4.2526,-4.2425,-4.2308,-4.2308,-4.2308,-4.2308,-4.2308,-4.2308,-4.2308,-4.2308,-4.2308,-4.2308,-4.2308,-4.2366,-4.2306,-4.0903,-4.0474,-4.0524,0.0,0.0,0.0,0.0,0.0,0.0,0.0,0.0,0.0,0.0,0.0,0.0,0.0,0.0,0.0,0.0,0.0,0.0,0.0,0.0,0.0,0.0,0.0,0.0,0.0,0.0,0.0,0.0,0.0,-4.1837,-4.1772,-4.2315,-4.2548,0.0,0.0,0.0,0.0,-4.2616,-4.2293,-4.1681,0.0,-4.0948,-4.0295,0.0,0.0,0.0,0.0,0.0,0.0,0.0,0.0,0.0,0.0,-3.6586,-3.7143,-3.6968,-3.7451,-3.8225,-3.9135,-3.993,-4.0901,-4.2578,-4.3164,-4.3554,-4.432,-4.4711,-4.492,-4.5027,-4.505,-4.5109,0.0,0.0,0.0,-4.6504,-4.7192,0.0,-4.7717,-4.7717,0.0,-4.7717,0.0,-4.7717,-4.7717,-4.7717,0.0,0.0,-4.7717,-4.7717,-4.7717,-4.7717,-4.7717,-4.7717,-4.692,-4.6106,-4.5309,-4.3758,-4.2866,-4.2609,-4.243,-4.2328,-4.2308,-4.2308,-4.2308,-4.2308,-4.2308,-4.2308,-4.2308,-4.2308,-4.2308,-4.2308,-4.2308,-4.2308,-4.217,-4.0754,-4.0329,-4.0311,0.0,0.0,0.0,0.0,0.0,0.0,0.0,0.0,0.0,0.0,0.0,0.0,0.0,0.0,0.0,0.0,0.0,0.0,0.0,0.0,0.0,0.0,0.0,0.0,0.0,0.0,0.0,0.0,0.0,0.0,0.0,-4.1639,-4.1813,-4.179,-4.1773,-4.1766,-4.1729,0.0,0.0,0.0,0.0,0.0,0.0,0.0,0.0,0.0,0.0,0.0,0.0,0.0,0.0,-3.6842,-3.6486,-3.6934,-3.7521,-3.7317,0.0,-3.8145,-3.9354,-4.0015,-4.0786,-4.2391,-4.295,-4.3238,-4.3709,-4.3937,-4.4041,-4.4104,-4.4124,0.0,0.0,0.0,0.0,0.0,0.0,0.0,-4.7717,-4.7717,-4.7717,0.0,-4.7717,0.0,-4.7717,-4.7717,-4.7554,0.0,-4.7518,-4.7717,-4.7717,-4.7373,-4.7174,-4.7174,-4.6051,-4.5055,-4.424,-4.3217,-4.2649,-4.2609,-4.2447,-4.2366,-4.2308,-4.2308,-4.2308,-4.2308,0.0,-4.2308,-4.2308,-4.2308,-4.2308,-4.2308,-4.2308,-4.2073,-4.1629,-4.057,-4.0038,-3.9734,0.0,0.0,0.0,0.0,0.0,0.0,0.0,0.0,0.0,0.0,0.0,0.0,0.0,0.0,0.0,0.0,0.0,0.0,0.0,0.0,0.0,0.0,0.0,0.0,0.0,0.0,0.0,0.0,0.0,0.0,0.0,0.0,0.0,0.0,0.0,0.0,0.0,0.0,0.0,0.0,0.0,0.0,0.0,0.0,0.0,0.0,0.0,0.0,0.0,0.0,-3.8436,-3.7377,-3.7038,-3.7408,-3.7934,-3.7703,-3.7721,-3.8132,-3.956,-4.01,-4.0606,-4.2074,-4.246,-4.2505,-4.2602,-4.2568,-4.2552,-4.27,0.0,-4.2755,-4.2883,0.0,-4.5182,-4.5273,0.0,-4.7591,-4.7681,-4.7717,-4.7717,-4.7717,-4.7717,-4.7663,-4.7554,-4.7554,-4.721,-4.6413,-4.6993,-4.7391,-4.7391,-4.6721,-4.6287,-4.6178,-4.482,-4.3697,-4.2919,-4.2823,-4.2745,-4.2609,-4.2526,-4.2425,-4.2308,-4.2308,-4.2308,-4.2308,-4.2308,0.0,-4.2308,-4.2308,-4.2308,-4.2308,-4.2183,-4.1698,-4.1022,-4.0225,-3.9623,-3.9102,0.0,0.0,0.0,0.0,0.0,0.0,0.0,0.0,0.0,0.0,0.0,0.0,0.0,0.0,0.0,0.0,0.0,0.0,0.0,0.0,0.0,0.0,0.0,0.0,0.0,0.0,0.0,0.0,0.0,0.0,0.0,0.0,0.0,0.0,0.0,0.0,0.0,0.0,0.0,0.0,0.0,0.0,0.0,0.0,0.0,0.0,0.0,0.0,0.0,0.0,-3.9112,-3.8556,-3.8274,-3.8257,-3.8252,-3.8001,-3.84,-3.9103,-3.9929,-4.0647,-4.1384,-4.2336,-4.2182,-4.1772,-4.1791,-4.1323,0.0,0.0,0.0,-4.2122,-4.2774,-4.3661,0.0,-4.5182,0.0,0.0,0.0,0.0,-4.7717,0.0,0.0,0.0,0.0,0.0,0.0,0.0,0.0,-4.5725,-4.5725,-4.558,-4.52,-4.453,-4.424,-4.3697,-4.2919,-4.2823,-4.2745,-4.2609,-4.2526,-4.2425,-4.2308,-4.2308,-4.2308,-4.2308,-4.2308,0.0,-4.2308,-4.2308,-4.2308,-4.2236,-4.1556,-4.1217,-4.0951,-3.96,-3.912,-3.9031,0.0,0.0,0.0,0.0,0.0,0.0,0.0,0.0,0.0,0.0,-4.2871,-4.2991,0.0,0.0,0.0,0.0,0.0,0.0,0.0,0.0,0.0,0.0,0.0,0.0,0.0,0.0,0.0,0.0,0.0,0.0,0.0,0.0,0.0,0.0,0.0,0.0,0.0,0.0,0.0,0.0,0.0,0.0,0.0,0.0,0.0,0.0,0.0,0.0,0.0,0.0,-3.9957,-3.9259,-3.8884,-3.871,-3.8621,-3.835,-3.8832,-3.9615,-4.0328,-4.1071,-4.1848,-4.2662,-4.2246,-4.1649,-4.1649,0.0,0.0,0.0,0.0,-4.1813,-4.2212,0.0,0.0,0.0,0.0,0.0,0.0,0.0,0.0,0.0,0.0,0.0,0.0,0.0,0.0,0.0,0.0,-4.4856,-4.5273,-4.4892,-4.4313,-4.3498,-4.3462,-4.33,-4.2901,-4.2862,-4.2765,-4.2609,-4.2568,-4.2468,-4.2308,-4.2308,-4.2308,-4.2308,-4.2308,0.0,-4.2308,-4.2308,-4.2308,-4.2216,-4.1413,-4.0842,-4.0342,-3.9257,-3.8652,-3.8331,0.0,0.0,0.0,0.0,0.0,0.0,0.0,-4.1962,-4.2393,-4.3239,-4.4066,-4.4333,-4.3692,-4.3469,0.0,0.0,0.0,0.0,0.0,0.0,0.0,0.0,0.0,0.0,0.0,0.0,0.0,0.0,0.0,0.0,0.0,0.0,0.0,0.0,0.0,0.0,0.0,0.0,0.0,0.0,0.0,0.0,0.0,0.0,0.0,0.0,0.0,0.0,0.0,0.0,-4.0648,-3.9693,-3.9311,-3.9087,-3.8917,-3.8664,-3.9284,-4.0166,-4.0676,-4.1502,-4.2305,-4.2741,-4.2159,-4.1452,-4.1252,-4.0583,0.0,0.0,-4.089,-4.1488,-4.1669,0.0,0.0,0.0,0.0,0.0,0.0,0.0,0.0,0.0,0.0,0.0,0.0,0.0,0.0,0.0,0.0,0.0,-4.4747,-4.4186,-4.3534,-4.2919,-4.2901,-4.2901,-4.2901,-4.2901,-4.2824,-4.2649,-4.2609,-4.251,-4.2346,-4.2308,-4.2308,-4.2308,-4.2308,0.0,0.0,-4.2308,-4.2308,-4.2218,-4.1217,-4.0467,-3.9788,-3.8879,-3.8185,-3.7721,0.0,0.0,0.0,0.0,0.0,0.0,0.0,-4.247,-4.3278,-4.4085,-4.494,-4.546,-4.5383,-4.4724,0.0,0.0,0.0,0.0,0.0,0.0,0.0,0.0,0.0,0.0,0.0,0.0,0.0,0.0,0.0,0.0,0.0,0.0,0.0,0.0,0.0,0.0,0.0,0.0,0.0,0.0,0.0,0.0,0.0,0.0,0.0,0.0,0.0,0.0,0.0,0.0,0.0,-3.9935,-3.9781,-3.9514,-3.9205,-3.8931,0.0,0.0,-4.0938,-4.2005,-4.2976,-4.2214,-4.1396,-4.058,-3.9785,0.0,0.0,-3.9351,-4.0093,-4.0836,-4.156,-4.2411,-4.3244,0.0,0.0,0.0,0.0,0.0,0.0,0.0,0.0,0.0,0.0,0.0,0.0,0.0,0.0,0.0,-4.3137,-4.3064,-4.2992,-4.2901,-4.2901,-4.2901,-4.2901,-4.2901,-4.2862,-4.2783,-4.2649,-4.2568,-4.2483,-4.2366,-4.2308,-4.2308,-4.2308,0.0,0.0,-4.2308,-4.2308,-4.2144,-4.061,-3.9966,-3.9716,-3.8237,-3.7721,-3.7721,0.0,0.0,0.0,0.0,0.0,0.0,0.0,-4.2874,-4.3585,-4.4921,-4.5836,-4.6374,-4.6374,-4.6095,-4.5706,0.0,0.0,0.0,0.0,0.0,0.0,0.0,0.0,0.0,0.0,0.0,0.0,0.0,0.0,0.0,0.0,0.0,0.0,0.0,0.0,0.0,0.0,0.0,0.0,0.0,0.0,0.0,0.0,0.0,0.0,0.0,0.0,0.0,0.0,0.0,0.0,0.0,-3.9933,-3.977,0.0,0.0,-3.9928,-4.0781,-4.0539,-4.1277,-4.1987,-4.1528,-4.0715,-3.9938,-3.9545,0.0,0.0,-3.8625,-3.9297,-4.0075,-4.0836,-4.1651,-4.2448,0.0,0.0,0.0,0.0,0.0,0.0,0.0,0.0,0.0,0.0,0.0,0.0,0.0,0.0,0.0,-4.2901,-4.2901,-4.2901,-4.2901,-4.2901,-4.2901,-4.2901,-4.2901,-4.2862,-4.2803,-4.2668,-4.2568,-4.2483,-4.2366,-4.2308,-4.2308,-4.2308,0.0,0.0,-4.2308,-4.2308,-4.22,-4.1056,-4.0342,-3.977,-3.8719,-3.8023,-3.7649,0.0,0.0,0.0,0.0,0.0,0.0,-4.2835,-4.3104,-4.3701,-4.5383,-4.6124,-4.6605,-4.6865,-4.6904,-4.6672,-4.61,0.0,0.0,0.0,0.0,0.0,0.0,0.0,0.0,0.0,0.0,0.0,0.0,0.0,0.0,0.0,0.0,0.0,0.0,0.0,0.0,0.0,0.0,0.0,0.0,0.0,0.0,0.0,0.0,0.0,0.0,0.0,0.0,0.0,0.0,0.0,0.0,0.0,0.0,0.0,0.0,-3.9962,-4.0549,-4.0337,-4.0822,-4.1292,-4.088,-4.0223,-3.9599,0.0,0.0,-3.8207,-3.8209,-3.8826,-3.9623,-4.0347,-4.1162,-4.1958,0.0,0.0,0.0,0.0,0.0,0.0,0.0,0.0,0.0,0.0,0.0,0.0,0.0,0.0,0.0,-4.2556,-4.2755,-4.2901,-4.2901,-4.2901,-4.2901,-4.2901,-4.2901,-4.2881,-4.2841,-4.2668,-4.2588,-4.2526,-4.2387,-4.2308,-4.2308,-4.2308,0.0,0.0,-4.2308,-4.2308,-4.2216,-4.1413,-4.061,-3.9805,-3.9075,-3.829,-3.7613,0.0,0.0,0.0,0.0,0.0,0.0,0.0,-4.3104,-4.3701,-4.5383,-4.5614,-4.5932,-4.6817,-4.6904,-4.6904,-4.6894,0.0,0.0,0.0,0.0,0.0,0.0,0.0,0.0,0.0,0.0,0.0,-4.367,-4.367,0.0,0.0,0.0,0.0,0.0,0.0,0.0,0.0,0.0,0.0,0.0,0.0,0.0,0.0,0.0,0.0,0.0,0.0,0.0,0.0,0.0,0.0,0.0,0.0,0.0,0.0,0.0,-4.0171,-4.0759,-4.0544,-4.1045,-4.1349,-4.0274,-3.9963,-3.9617,0.0,0.0,-3.8274,-3.8225,-3.8826,-3.9623,-4.0347,-4.1162,-4.1958,-4.2755,0.0,0.0,0.0,0.0,0.0,0.0,0.0,0.0,0.0,0.0,0.0,0.0,0.0,0.0,-4.1741,-4.2466,-4.2901,-4.2901,-4.2901,-4.2901,-4.2901,-4.2901,-4.2901,-4.29,-4.2707,-4.2609,-4.2589,-4.2389,-4.2308,0.0,0.0,0.0,0.0,-4.2308,-4.2308,-4.2216,-4.1413,-4.061,-3.9805,-3.9075,-3.829,-3.7613,0.0,0.0,0.0,0.0,0.0,0.0,0.0,-4.3104,-4.3701,-4.5383,-4.6124,-4.6797,-4.7625,-4.7721,-4.798,-4.8613,0.0,0.0,0.0,0.0,0.0,0.0,0.0,0.0,0.0,0.0,-4.3658,-4.37,-4.3707,-4.369,-4.3691,0.0,0.0,0.0,0.0,0.0,0.0,0.0,0.0,0.0,0.0,0.0,0.0,0.0,0.0,0.0,0.0,0.0,0.0,0.0,0.0,0.0,0.0,0.0,0.0,-3.9922,-3.9981,0.0,-3.9871,-3.9943,-3.9978,-3.9509,-3.9265,-3.9029,-3.8551,0.0,-3.8274,-3.8225,-3.8408,-3.8971,-4.0257,-4.0709,-4.1325,-4.2665,-4.2901,0.0,0.0,0.0,0.0,0.0,0.0,0.0,0.0,0.0,0.0,0.0,0.0,0.0,-4.0762,-4.0997,-4.1431,-4.2049,-4.2611,-4.2901,-4.2901,-4.2901,-4.2881,-4.2823,-4.2668,-4.2588,-4.2526,-4.2387,-4.2308,0.0,0.0,0.0,0.0,-4.2308,-4.2308,-4.2216,-4.1413,-4.061,-3.9805,-3.9075,-3.829,-3.7595,0.0,0.0,0.0,0.0,0.0,0.0,0.0,-4.3355,-4.4047,-4.5421,-4.6067,-4.674,-4.7567,-4.7951,-4.8382,-4.8967,0.0,0.0,0.0,0.0,0.0,0.0,0.0,0.0,0.0,-4.4578,-4.4619,-4.4686,-4.468,-4.4686,-4.4668,-4.4336,-4.3906,0.0,0.0,0.0,0.0,0.0,0.0,0.0,0.0,0.0,-4.5008,0.0,0.0,0.0,0.0,0.0,0.0,0.0,0.0,0.0,0.0,0.0,0.0,0.0,-3.9943,-3.9792,0.0,-3.9489,-3.935,-3.9183,-3.8993,0.0,0.0,0.0,-3.8305,-3.8225,-3.8209,-3.8663,-4.022,-4.0492,-4.1035,-4.2647,-4.2881,0.0,0.0,0.0,0.0,0.0,0.0,0.0,0.0,0.0,0.0,0.0,0.0,0.0,-3.9859,-4.0147,-4.0418,-4.0709,-4.1523,-4.2102,-4.2448,-4.241,-4.2535,-4.2803,-4.2647,-4.2546,-4.2483,-4.2366,-4.2308,0.0,0.0,0.0,0.0,-4.152,-4.1395,-4.1341,-4.0842,-4.0182,-3.9431,-3.8967,-3.829,-3.7595,0.0,0.0,0.0,0.0,0.0,0.0,0.0,0.0,0.0,0.0,-4.5594,-4.5941,-4.6797,-4.7679,0.0,0.0,0.0,0.0,0.0,0.0,0.0,0.0,0.0,0.0,0.0,-4.6153,-4.6223,-4.6298,-4.6295,-4.6304,-4.6287,-4.5468,-4.5058,-4.4961,0.0,0.0,0.0,0.0,0.0,0.0,0.0,-4.499,0.0,0.0,0.0,0.0,0.0,0.0,0.0,0.0,0.0,0.0,0.0,0.0,0.0,0.0,0.0,0.0,0.0,-3.957,-3.9363,-3.9237,-3.9064,-3.8833,0.0,0.0,0.0,0.0,-3.8209,-3.8663,-4.022,-4.0492,-4.1035,-4.2629,-4.2842,0.0,0.0,0.0,0.0,0.0,0.0,0.0,0.0,0.0,0.0,0.0,0.0,0.0,-3.9031,-3.9697,-3.9769,-3.9013,-3.9788,-4.0673,-4.1596,-4.154,-4.1881,-4.2602,-4.2424,-4.2304,-4.2304,-4.2206,-4.2126,0.0,0.0,0.0,0.0,-4.0198,-3.9895,-3.9877,-3.9841,-3.9395,-3.8789,-3.8754,-3.8237,-3.7595,0.0,0.0,0.0,0.0,0.0,0.0,0.0,0.0,0.0,0.0,0.0,-4.593,-4.6803,-4.7677,0.0,0.0,0.0,0.0,0.0,0.0,0.0,0.0,0.0,0.0,0.0,-4.6091,-4.6151,-4.6216,-4.6266,-4.6301,-4.6307,-4.6094,-4.5644,-4.498,-4.4785,0.0,0.0,0.0,0.0,0.0,-4.4917,-4.499,0.0,0.0,0.0,0.0,-4.2695,-4.1988,0.0,0.0,0.0,0.0,0.0,0.0,0.0,0.0,-4.0005,-3.9878,-3.9735,0.0,-3.9439,-3.9251,-3.9064,-3.8833,0.0,0.0,0.0,0.0,0.0,0.0,0.0,0.0,-4.0999,-4.257,-4.2803,0.0,0.0,0.0,0.0,0.0,0.0,0.0,0.0,0.0,0.0,0.0,0.0,-3.815,-3.7953,-3.8132,-3.8187,-3.8026,-3.8223,-3.9067,-4.0599,-4.0598,-4.065,-4.0736,-4.0697,-4.062,-4.0505,-4.0467,-4.0467,0.0,0.0,0.0,-4.0182,-3.9966,-3.9895,-3.9841,-3.927,-3.8949,-3.8736,-3.8112,-3.7773,-3.7595,0.0,0.0,0.0,0.0,0.0,0.0,0.0,0.0,0.0,0.0,0.0,0.0,0.0,0.0,0.0,0.0,0.0,0.0,0.0,0.0,0.0,0.0,0.0,0.0,-4.6,-4.6069,-4.6134,-4.6198,-4.6278,-4.6297,-4.6305,-4.6308,-4.6055,-4.5605,-4.5605,0.0,0.0,0.0,0.0,-4.5608,-4.56,0.0,0.0,0.0,0.0,0.0,-4.1908,-4.1388,0.0,-4.0812,-4.0688,-4.0534,0.0,0.0,0.0,0.0,-4.0005,-3.9878,-3.9747,-3.9599,-3.9452,-3.9251,-3.9064,-3.8833,-3.8556,0.0,0.0,0.0,0.0,0.0,0.0,0.0,0.0,0.0,0.0,0.0,0.0,0.0,0.0,0.0,0.0,0.0,0.0,0.0,0.0,0.0,0.0,-3.7595,-3.7595,-3.7595,-3.7613,-3.7649,-3.7649,-3.833,-3.9733,-3.9696,-3.9802,-4.0104,-4.0047,-3.9972,-3.9895,-3.9895,-3.9895,0.0,0.0,0.0,-3.936,-3.9004,-3.8843,-3.8808,-3.8415,-3.8255,-3.8201,-3.7773,-3.7595,-3.7595,0.0,0.0,0.0,0.0,0.0,0.0,0.0,0.0,0.0,0.0,0.0,0.0,0.0,0.0,0.0,0.0,0.0,0.0,0.0,0.0,0.0,0.0,0.0,-4.5923,-4.5997,-4.6065,-4.613,-4.6206,-4.6394,-4.6433,-4.6301,-4.6445,-4.6426,-4.6308,-4.6307,-4.6306,0.0,0.0,-4.6293,-4.6291,-4.6303,0.0,0.0,0.0,0.0,0.0,0.0,0.0,0.0,-4.0824,-4.0712,-4.0574,-4.0446,0.0,0.0,0.0,0.0,0.0,-3.9728,-3.9599,-3.9439,-3.9219,-3.9017,-3.8818,0.0,0.0,0.0,0.0,0.0,0.0,0.0,0.0,0.0,0.0,0.0,0.0,0.0,0.0,0.0,0.0,0.0,0.0,0.0,0.0,0.0,0.0,0.0,-3.7595,-3.7595,-3.7595,-3.7595,-3.7595,-3.7595,-3.8007,-3.8869,-3.8743,-3.9028,-3.9708,-3.9595,-3.9557,-3.9557,-3.9557,-3.9557,-3.9502,0.0,0.0,-3.8558,-3.788,-3.7595,-3.7595,-3.7595,-3.7595,-3.7595,-3.7595,-3.7595,-3.7595,0.0,0.0,0.0,0.0,0.0,0.0,0.0,0.0,0.0,0.0,0.0,0.0,0.0,0.0,0.0,0.0,0.0,0.0,0.0,0.0,0.0,0.0,-4.6726,-4.5923,-4.5997,-4.6065,-4.613,-4.6206,-4.7018,-4.7019,-4.6321,-4.707,-4.7011,-4.6307,-4.6307,-4.6304,-4.6296,-4.6294,-4.6309,-4.6302,-4.6302,0.0,0.0,0.0,0.0,0.0,0.0,0.0,0.0,-4.0845,-4.0705,-4.0574,-4.0446,0.0,0.0,0.0,0.0,0.0,-3.9724,-3.9551,-3.9363,-3.917,-3.8946,-3.8762,0.0,0.0,0.0,0.0,0.0,0.0,0.0,0.0,0.0,0.0,0.0,0.0,0.0,0.0,0.0,0.0,0.0,0.0,0.0,0.0,0.0,0.0,0.0,-3.7595,-3.7595,-3.7595,-3.7595,-3.7595,-3.7595,-3.7666,-3.7828,-3.7809,-3.7863,-3.7988,-3.7952,-3.7952,-3.7952,-3.7952,-3.7952,-3.7952,0.0,-3.7791,-3.7773,-3.7648,-3.7595,-3.7595,-3.7595,-3.7595,-3.7595,-3.7595,-3.7595,-3.7595,0.0,0.0,0.0,0.0,0.0,0.0,0.0,0.0,0.0,0.0,0.0,0.0,0.0,0.0,0.0,0.0,0.0,0.0,0.0,0.0,0.0,-4.7695,-4.6552,-4.5923,-4.5997,-4.6065,-4.6371,-4.6903,-4.7373,-4.7646,-4.7692,-4.7637,-4.7128,-4.6307,-4.6303,-4.6299,-4.6293,-4.6308,-4.6305,-4.63,0.0,0.0,0.0,0.0,0.0,0.0,0.0,0.0,0.0,0.0,-4.0765,-4.0629,-4.0492,0.0,0.0,0.0,0.0,0.0,-3.9712,-3.9539,-3.935,-3.9156,-3.895,0.0,0.0,0.0,0.0,0.0,0.0,0.0,0.0,0.0,0.0,0.0,0.0,0.0,0.0,0.0,0.0,0.0,0.0,0.0,0.0,0.0,0.0,0.0,0.0,0.0,-3.697,-3.6934,-3.6934,-3.6934,-3.6934,-3.7166,-3.7595,-3.7595,-3.7595,-3.7595,-3.7595,-3.7595,-3.7595,-3.7595,-3.7595,-3.7595,0.0,-3.7595,-3.7595,-3.7595,-3.7595,-3.7595,-3.7595,-3.7595,-3.7595,-3.7595,-3.7595,-3.7595,0.0,0.0,0.0,0.0,0.0,0.0,0.0,0.0,0.0,0.0,0.0,0.0,0.0,0.0,0.0,0.0,0.0,0.0,0.0,0.0,-4.7103,-4.711,-4.6339,-4.5929,-4.6003,-4.6074,-4.6576,-4.7504,-4.7769,-4.8255,-4.8886,-4.8007,-4.7125,-4.6305,-4.6297,-4.6293,-4.6309,-4.6303,-4.63,-4.63,0.0,0.0,0.0,0.0,0.0,0.0,0.0,0.0,0.0,0.0,0.0,0.0,0.0,0.0,0.0,-4.0118,-3.9943,-3.977,-3.9712,-3.9557,-3.9343,-3.9156,0.0,0.0,0.0,0.0,0.0,0.0,0.0,0.0,0.0,0.0,0.0,0.0,0.0,0.0,0.0,0.0,0.0,0.0,0.0,0.0,0.0,0.0,0.0,0.0,0.0,0.0,-3.6167,-3.6114,-3.6114,-3.6114,-3.6114,-3.6417,-3.7041,-3.7023,-3.7238,-3.7595,-3.7595,-3.7595,-3.7595,-3.7595,-3.7595,-3.7595,-3.7595,-3.7595,-3.7595,-3.7595,-3.7595,-3.7595,-3.7595,-3.7595,-3.7595,-3.7595,-3.7595,-3.7595,0.0,0.0,0.0,0.0,0.0,0.0,0.0,0.0,0.0,0.0,0.0,0.0,0.0,0.0,0.0,0.0,0.0,0.0,0.0,0.0,-4.7136,-4.7184,-4.6352,-4.5941,-4.5997,-4.6134,-4.6612,-4.7496,-4.8383,-4.8846,-4.8885,-4.8003,-4.7138,-4.6294,-4.6294,-4.6309,-4.6302,-4.63,-4.63,-4.63,-4.63,0.0,0.0,0.0,0.0,0.0,0.0,0.0,0.0,0.0,0.0,0.0,0.0,0.0,-4.0187,-4.0118,-3.9911,-3.9701,-3.9701,-3.9539,-3.936,-3.9142,0.0,0.0,0.0,0.0,0.0,0.0,0.0,0.0,0.0,0.0,0.0,0.0,0.0,0.0,0.0,0.0,0.0,0.0,0.0,0.0,0.0,0.0,0.0,0.0,0.0,0.0,-3.5346,-3.5276,-3.5276,-3.5276,-3.5276,-3.5311,-3.5382,-3.5382,-3.6114,-3.7595,-3.7595,-3.7595,-3.7595,-3.7595,-3.7595,-3.7595,-3.7595,-3.7595,-3.7595,-3.7595,-3.7595,-3.7595,-3.7595,-3.7595,-3.7595,-3.7595,-3.7595,-3.7595,0.0,0.0,0.0,0.0,0.0,0.0,0.0,0.0,0.0,0.0,0.0,0.0,0.0,0.0,0.0,0.0,0.0,0.0,0.0,0.0,-4.6358,-4.639,-4.6117,-4.5989,-4.6061,-4.6142,-4.6894,-4.8308,-4.9254,-4.9433,-4.8882,-4.8018,-4.7135,-4.6293,-4.6308,-4.6303,-4.63,-4.63,-4.63,-4.63,-4.63,-4.5773,0.0,0.0,0.0,0.0,0.0,0.0,0.0,0.0,-4.0814,-4.0675,0.0,-4.0364,-4.0187,-4.0118,-3.9911,-3.9701,-3.9701,-3.9558,-3.9346,-3.9142,0.0,0.0,0.0,0.0,0.0,0.0,0.0,0.0,0.0,0.0,0.0,0.0,0.0,0.0,0.0,0.0,0.0,0.0,0.0,0.0,0.0,0.0,0.0,0.0,0.0,0.0,-3.4544,-3.4526,-3.4526,-3.4526,-3.4526,-3.4723,-3.5186,-3.5186,-3.5525,-3.6114,-3.6114,-3.6114,-3.6114,-3.6114,-3.6114,-3.6114,-3.6114,-3.6114,-3.6149,-3.6649,-3.6845,-3.6899,-3.7398,-3.7595,-3.7595,-3.7595,-3.7595,-3.7595,0.0,0.0,0.0,0.0,0.0,0.0,0.0,0.0,0.0,0.0,0.0,0.0,0.0,0.0,0.0,0.0,0.0,0.0,0.0,-4.5935,-4.5947,-4.5953,-4.6014,-4.6056,-4.6132,-4.6189,-4.6925,-4.8392,-4.9336,-4.9331,-4.8486,-4.7874,-4.7129,-4.6309,-4.6303,-4.63,-4.63,-4.63,-4.63,-4.63,-4.63,-4.5948,0.0,0.0,0.0,0.0,0.0,0.0,0.0,0.0,-4.0815,0.0,0.0,0.0,0.0,0.0,-3.9943,-3.9724,-3.9701,-3.9558,-3.9346,0.0,0.0,0.0,0.0,0.0,0.0,0.0,0.0,0.0,0.0,0.0,0.0,0.0,0.0,0.0,0.0,0.0,0.0,0.0,0.0,0.0,0.0,0.0,0.0,0.0,0.0,0.0,0.0,-3.3723,-3.3723,-3.3723,-3.3723,-3.3955,-3.4472,-3.4472,-3.4472,-3.4472,-3.4472,-3.474,-3.5186,-3.5186,-3.5186,-3.5186,-3.5186,-3.5186,-3.524,-3.5792,-3.6167,-3.647,-3.7291,-3.7595,-3.7595,-3.7595,-3.7613,-3.7631,0.0,0.0,0.0,0.0,0.0,0.0,0.0,0.0,0.0,0.0,0.0,0.0,0.0,0.0,0.0,0.0,0.0,0.0,0.0,-4.6005,-4.6032,-4.61,-4.61,-4.6132,-4.6196,-4.6192,-4.6631,-4.7492,-4.8437,-4.8447,-4.7602,-4.7592,-4.7139,-4.63,-4.63,-4.63,-4.63,-4.63,-4.63,-4.63,-4.63,-4.63,-4.6105,0.0,0.0,0.0,0.0,0.0,0.0,0.0,-4.0859,0.0,0.0,0.0,0.0,0.0,-4.0007,-3.9792,-3.9712,-3.9539,0.0,0.0,0.0,0.0,0.0,0.0,0.0,0.0,0.0,0.0,0.0,0.0,0.0,0.0,0.0,0.0,0.0,0.0,0.0,0.0,0.0,0.0,0.0,0.0,0.0,0.0,0.0,0.0,0.0,-3.2882,-3.2882,-3.2882,-3.2882,-3.2882,-3.2882,-3.2882,-3.2882,-3.2882,-3.2882,-3.3687,-3.5169,-3.5169,-3.5169,-3.5169,-3.5169,-3.5169,-3.5169,-3.5204,-3.5667,-3.647,-3.7274,-3.7595,-3.7595,-3.7595,-3.7649,-3.7703,0.0,0.0,0.0,0.0,0.0,0.0,0.0,0.0,0.0,0.0,0.0,0.0,0.0,0.0,0.0,0.0,0.0,0.0,0.0,-4.6111,-4.6146,-4.617,-4.6174,-4.6173,-4.6192,-4.6243,-4.6694,-4.7578,-4.7849,-4.7858,-4.7592,-4.6965,-4.6554,-4.63,-4.63,-4.63,-4.63,-4.63,-4.63,-4.63,-4.63,-4.63,-4.6105,0.0,0.0,0.0,0.0,0.0,0.0,0.0,0.0,0.0,0.0,0.0,0.0,-4.0244,-3.9638,-3.9129,-3.9573,-3.9132,0.0,0.0,0.0,0.0,0.0,0.0,0.0,0.0,0.0,0.0,0.0,0.0,0.0,0.0,0.0,0.0,0.0,0.0,0.0,0.0,0.0,0.0,0.0,0.0,0.0,0.0,0.0,0.0,0.0,-3.2061,-3.1796,-3.1225,-3.1207,-3.1207,-3.1207,-3.1207,-3.1207,-3.1207,-3.1207,-3.2045,-3.358,-3.358,-3.358,-3.358,-3.358,-3.358,-3.3632,-3.4187,-3.4865,-3.565,-3.6435,-3.6756,-3.6827,-3.7435,-3.7685,-3.7721,0.0,0.0,0.0,0.0,0.0,0.0,0.0,0.0,0.0,0.0,-4.618,-4.6209,0.0,0.0,0.0,0.0,0.0,0.0,0.0,0.0,-4.6203,-4.6209,-4.6209,-4.6209,-4.6241,-4.6284,-4.6562,-4.7084,-4.7082,-4.7075,-4.7061,-4.6554,-4.63,-4.63,0.0,-4.6105,-4.5773,-4.5789,-4.5572,-4.5279,-4.5275,-4.5275,-4.5117,0.0,0.0,0.0,0.0,0.0,0.0,0.0,0.0,0.0,0.0,0.0,0.0,-3.985,-3.9261,-3.8803,-3.9143,0.0,0.0,0.0,0.0,0.0,0.0,0.0,0.0,0.0,0.0,0.0,0.0,0.0,0.0,0.0,0.0,0.0,0.0,0.0,0.0,0.0,0.0,0.0,0.0,0.0,0.0,0.0,0.0,0.0,0.0,-3.1225,-3.1011,-3.0514,-3.0496,-3.0496,-3.0496,-3.0496,-3.0496,-3.0496,-3.0496,-3.1011,-3.1956,-3.2275,-3.2418,-3.2436,-3.2757,-3.29,-3.2953,-3.3776,-3.4365,-3.4847,-3.5632,-3.5953,-3.6076,-3.6593,-3.6841,-3.6926,0.0,0.0,-4.4785,-4.5652,0.0,0.0,0.0,0.0,0.0,0.0,-4.6204,-4.6212,0.0,0.0,0.0,-4.6098,0.0,0.0,0.0,0.0,-4.6199,-4.621,-4.6212,-4.6249,-4.6307,-4.6308,-4.6306,-4.6293,-4.6293,-4.6309,0.0,0.0,-4.63,-4.63,0.0,-4.5734,-4.499,-4.4924,-4.4413,-4.3706,-4.3697,-4.3692,-4.3595,-4.2715,0.0,0.0,0.0,0.0,0.0,0.0,0.0,0.0,0.0,0.0,-4.0308,-3.9303,-3.8861,-3.8646,0.0,0.0,0.0,0.0,0.0,0.0,0.0,0.0,0.0,0.0,0.0,0.0,0.0,0.0,0.0,0.0,0.0,0.0,0.0,0.0,0.0,0.0,0.0,0.0,0.0,0.0,0.0,0.0,0.0,0.0,0.0,-3.0389,-3.0368,-3.0282,-3.0282,-3.0282,-3.0282,-3.0282,-3.0282,-3.0282,-3.0282,-3.0282,-3.0318,-3.1189,-3.1617,-3.1742,-3.2472,-3.2829,-3.2953,-3.3687,-3.399,-3.4062,-3.4811,-3.5183,-3.5303,-3.5392,-3.554,-3.5729,0.0,0.0,-4.4853,-4.5725,0.0,0.0,0.0,0.0,0.0,0.0,0.0,0.0,0.0,-4.6272,0.0,-4.5326,-4.5874,0.0,0.0,0.0,-4.6276,-4.6277,-4.6284,-4.6288,-4.6308,-4.6305,-4.6297,-4.6293,-4.6293,0.0,0.0,0.0,0.0,-4.6261,0.0,-4.5184,-4.4963,-4.4276,-4.386,-4.3697,-4.3643,-4.3618,-4.354,-4.2649,-4.2311,0.0,0.0,0.0,0.0,0.0,0.0,0.0,-4.0815,-4.0707,-4.0379,-3.9364,-3.8541,-3.788,0.0,0.0,0.0,0.0,0.0,0.0,0.0,0.0,0.0,0.0,0.0,0.0,0.0,0.0,0.0,0.0,0.0,0.0,0.0,0.0,0.0,0.0,0.0,0.0,0.0,0.0,0.0,0.0,0.0,0.0,-2.96,-2.9608,-2.9337,-2.8713,-2.8695,-2.8695,-2.8695,-2.8695,-2.8695,0.0,-2.8695,-2.8695,-2.8748,-3.0136,-3.11,-3.1706,-3.1867,-3.2329,-3.2918,-3.3096,-3.3168,-3.3239,-3.4026,-3.4397,-3.4549,-3.529,-3.565,-3.5805,0.0,0.0,0.0,0.0,0.0,0.0,0.0,0.0,0.0,0.0,0.0,0.0,0.0,-4.5677,0.0,0.0,-4.4793,-4.4851,-4.4402,-4.5186,-4.5854,-4.6287,-4.6308,-4.6307,-4.6305,-4.6297,-4.6291,0.0,0.0,0.0,0.0,0.0,0.0,-4.6255,0.0,-4.4766,-4.4326,-4.3417,-4.2783,-4.2401,-4.2331,-4.2325,-4.2309,-4.1804,-4.1645,-4.1613,-4.1201,0.0,0.0,0.0,0.0,0.0,0.0,0.0,-4.0453,-3.945,-3.847,-3.7651,0.0,0.0,0.0,0.0,0.0,0.0,0.0,0.0,0.0,0.0,0.0,0.0,0.0,0.0,0.0,0.0,0.0,0.0,0.0,0.0,0.0,0.0,0.0,0.0,0.0,0.0,0.0,0.0,0.0,-2.9071,-2.8738,-2.8763,-2.8596,-2.8213,-2.8196,-2.8196,-2.8196,-2.8196,-2.8196,-2.8196,-2.8196,-2.8196,-2.8249,-2.9426,-3.0386,-3.1153,-3.1528,-3.1938,-3.2364,-3.2739,-3.29,-3.2936,-3.3414,-3.3655,-3.3836,-3.4357,-3.4682,-3.4885,0.0,0.0,0.0,0.0,0.0,0.0,0.0,0.0,0.0,0.0,0.0,0.0,0.0,-4.4862,-4.4412,0.0,0.0,0.0,-4.3491,-4.4429,-4.5311,-4.6035,-4.6229,-4.6302,-4.6293,-4.6291,-4.623,0.0,0.0,0.0,0.0,0.0,0.0,-4.6032,0.0,-4.4285,-4.3409,-4.2467,-4.165,-4.0974,-4.0917,-4.092,-4.0975,-4.0915,-4.092,-4.098,-4.0988,-4.0972,-4.0988,-4.0991,0.0,0.0,0.0,0.0,-4.0513,-3.9503,-3.8512,-3.7641,0.0,0.0,0.0,0.0,0.0,0.0,0.0,0.0,0.0,0.0,0.0,0.0,0.0,0.0,0.0,0.0,0.0,0.0,0.0,0.0,0.0,0.0,0.0,0.0,0.0,0.0,0.0,0.0,0.0,-2.7946,-2.8056,-2.8085,-2.8126,-2.8168,-2.8182,-2.8196,-2.8196,-2.8196,-2.8196,-2.8196,-2.8196,-2.8196,-2.8231,-2.8891,-2.9587,-3.035,-3.1011,-3.1367,-3.1564,-3.2364,-3.2686,-3.2704,-3.291,-3.3122,-3.3307,-3.3396,-3.3591,-3.3834,0.0,0.0,0.0,0.0,0.0,0.0,0.0,0.0,0.0,0.0,-4.5644,-4.5137,0.0,-4.4336,-4.3515,-4.2656,-4.3262,-4.3379,-4.2617,0.0,0.0,-4.5174,-4.5891,-4.6295,-4.6293,-4.6306,-4.5931,0.0,0.0,0.0,0.0,0.0,0.0,-4.5135,0.0,0.0,-4.2425,-4.1549,-4.1069,-4.0913,-4.084,-4.0858,-4.0917,-4.0833,-4.0839,-4.0908,-4.0915,-4.0913,-4.0913,-4.0987,-4.1006,0.0,0.0,0.0,-4.0584,-3.959,-3.857,0.0,0.0,0.0,0.0,0.0,0.0,0.0,0.0,0.0,0.0,0.0,0.0,0.0,0.0,0.0,0.0,0.0,0.0,0.0,0.0,0.0,0.0,0.0,0.0,0.0,0.0,0.0,0.0,0.0,-2.7827,-2.7921,-2.7935,-2.8046,-2.8099,-2.8112,-2.8168,-2.8196,-2.8196,-2.8196,-2.8196,-2.8196,-2.8196,-2.8196,-2.8196,-2.832,-2.8784,-2.9547,-2.9654,-3.0083,-3.0725,-3.1528,-3.1849,-3.1936,-3.2695,-3.3122,-3.3325,-3.3437,-3.3675,-3.3895,0.0,0.0,0.0,0.0,0.0,0.0,0.0,0.0,0.0,0.0,0.0,-4.4082,0.0,-4.3203,-4.2637,-4.1797,-4.207,-4.2324,-4.2402,-4.3124,-4.3982,-4.4956,-4.538,-4.5567,-4.5563,-4.5579,0.0,0.0,0.0,0.0,0.0,-4.4484,-4.4636,0.0,0.0,0.0,0.0,0.0,-4.0917,-4.084,-4.0767,-4.0769,-4.0773,-4.0757,-4.0794,-4.084,-4.0848,-4.0878,-4.0903,-4.0922,-4.0931,-4.0936,-4.0917,0.0,0.0,0.0,0.0,0.0,0.0,0.0,0.0,0.0,0.0,0.0,0.0,0.0,0.0,0.0,0.0,0.0,0.0,0.0,0.0,0.0,0.0,0.0,0.0,0.0,0.0,0.0,0.0,0.0,0.0,0.0,0.0,0.0,-2.7748,-2.7827,-2.7888,-2.7961,-2.8014,-2.8099,-2.8126,-2.8154,-2.8196,-2.8196,-2.8196,-2.8196,-2.8196,-2.8196,-2.8196,-2.8196,-2.8392,-2.8748,-2.9194,-2.9583,-2.9925,-3.0707,-3.1296,-3.174,-3.2253,-3.282,-3.3382,-3.3509,-3.3726,-3.3959,0.0,0.0,0.0,0.0,0.0,0.0,0.0,0.0,0.0,0.0,0.0,0.0,0.0,0.0,0.0,0.0,-4.1191,-4.1445,-4.2031,-4.2283,-4.2983,-4.4288,-4.4556,-4.4667,-4.468,0.0,0.0,0.0,0.0,0.0,-4.3045,-4.3049,-4.3039,0.0,-4.2503,0.0,0.0,0.0,0.0,0.0,0.0,-4.0526,0.0,0.0,0.0,-4.0113,-4.0364,-4.0483,-4.0585,-4.0819,-4.0898,-4.0893,-4.0898,0.0,0.0,0.0,0.0,0.0,0.0,0.0,0.0,0.0,0.0,0.0,0.0,0.0,0.0,0.0,0.0,0.0,0.0,0.0,0.0,0.0,0.0,0.0,0.0,0.0,0.0,0.0,0.0,0.0,0.0,0.0,0.0,0.0,-2.7701,-2.7748,-2.7842,-2.7874,-2.7961,-2.8071,-2.8085,-2.8126,-2.8196,-2.8196,-2.8196,-2.8196,-2.8196,-2.8196,-2.8196,-2.8196,-2.8196,-2.8231,-2.882,-2.9101,-2.9141,-2.9922,-3.0582,-3.1168,-3.176,-3.2447,-3.3107,-3.3462,-3.3753,-3.3947,0.0,0.0,0.0,0.0,0.0,0.0,0.0,0.0,0.0,0.0,0.0,0.0,0.0,-4.1719,-4.125,-4.1191,-4.1191,-4.1191,-4.117,-4.1945,-4.2447,-4.2526,-4.3339,0.0,0.0,0.0,0.0,0.0,0.0,0.0,-4.125,-4.1245,-4.1206,-4.1169,-4.1951,-4.1813,-4.0966,0.0,0.0,0.0,-4.0549,-4.0023,0.0,0.0,0.0,0.0,0.0,0.0,0.0,-4.061,0.0,0.0,0.0,0.0,0.0,0.0,0.0,0.0,0.0,0.0,0.0,0.0,0.0,0.0,0.0,0.0,0.0,0.0,0.0,0.0,0.0,0.0,0.0,0.0,0.0,0.0,0.0,0.0,0.0,0.0,0.0,0.0,0.0,0.0,0.0,0.0,-2.7701,-2.7701,-2.7716,-2.7827,-2.7932,-2.8014,-2.8071,-2.8126,-2.8196,-2.8196,-2.8196,-2.8196,-2.8196,-2.8196,-2.8196,-2.8196,-2.8196,-2.8196,-2.8249,-2.8267,-2.832,-2.9123,-2.9494,-2.9687,-3.1347,-3.2075,-3.2275,-3.3247,-3.3684,-3.3815,0.0,0.0,0.0,0.0,0.0,0.0,0.0,0.0,0.0,0.0,0.0,0.0,0.0,-4.1306,-4.113,-4.113,-4.113,-4.113,-4.1109,-4.1396,-4.1822,-4.2388,-4.2693,0.0,0.0,0.0,0.0,0.0,0.0,-4.1402,-4.11,-4.1103,-4.1055,-4.1015,-4.1272,-4.1183,-4.0833,-4.0712,0.0,0.0,-3.9853,-3.941,-3.9084,0.0,0.0,0.0,0.0,0.0,0.0,0.0,0.0,0.0,0.0,0.0,0.0,0.0,0.0,0.0,0.0,0.0,0.0,0.0,0.0,0.0,0.0,0.0,0.0,0.0,0.0,0.0,0.0,0.0,0.0,0.0,0.0,0.0,0.0,0.0,0.0,0.0,0.0,0.0,0.0,0.0,0.0,0.0,0.0,-2.7701,-2.7701,-2.7748,-2.7839,-2.8,-2.8011,-2.8085,-2.8196,-2.8196,-2.8196,-2.8196,-2.8196,-2.8196,-2.8196,-2.8196,-2.8196,-2.8196,-2.8196,-2.8196,-2.8231,-2.8517,-2.8927,-2.9472,-3.0123,-3.1081,-3.2152,-3.2605,-3.3205,-3.3802,0.0,0.0,0.0,0.0,0.0,-4.6191,0.0,0.0,0.0,0.0,0.0,0.0,0.0,0.0,-4.1107,-4.1107,-4.1106,-4.1104,-4.1104,-4.1099,-4.1369,-4.1936,-4.195,0.0,0.0,0.0,0.0,0.0,0.0,0.0,0.0,-4.1073,-4.1039,-4.0992,-4.0939,-4.0864,0.0,0.0,0.0,-4.0388,0.0,-3.8914,-3.8533,0.0,0.0,0.0,0.0,0.0,0.0,0.0,0.0,0.0,0.0,0.0,0.0,0.0,0.0,0.0,0.0,0.0,0.0,0.0,0.0,0.0,0.0,0.0,0.0,0.0,0.0,0.0,0.0,0.0,0.0,0.0,0.0,0.0,0.0,0.0,0.0,0.0,0.0,0.0,0.0,0.0,0.0,0.0,0.0,0.0,-2.7701,-2.7701,-2.7792,-2.7982,-2.8042,-2.8112,-2.8196,-2.8196,-2.8196,-2.8196,-2.8196,-2.8196,-2.8196,-2.8196,-2.8196,-2.8196,-2.8196,-2.8196,-2.8196,-2.8196,-2.8517,-2.903,-2.9364,-3.0391,-3.1708,-3.2117,-3.2898,-3.3753,0.0,-4.6264,-4.63,-4.6308,-4.6308,-4.6015,0.0,0.0,0.0,0.0,0.0,0.0,0.0,0.0,0.0,-4.1107,-4.1102,-4.1098,-4.1098,-4.1093,-4.1109,-4.1109,-4.1109,0.0,0.0,0.0,0.0,0.0,0.0,0.0,0.0,0.0,-4.0995,0.0,-4.0937,-4.0851,-4.0788,0.0,-4.0523,-4.0321,0.0,-3.851,-3.7617,0.0,0.0,0.0,-3.6255,-3.663,0.0,-3.7745,0.0,0.0,0.0,0.0,0.0,0.0,0.0,0.0,0.0,0.0,0.0,0.0,0.0,0.0,0.0,0.0,0.0,0.0,0.0,0.0,0.0,0.0,0.0,0.0,0.0,0.0,0.0,0.0,0.0,0.0,0.0,0.0,0.0,0.0,0.0,0.0,-2.7701,-2.7701,-2.7701,-2.7716,-2.7806,-2.7982,-2.8126,-2.8196,-2.8196,-2.8196,-2.8196,-2.8196,-2.8196,-2.8196,-2.8196,-2.8196,-2.8196,-2.8196,-2.8196,-2.8196,-2.8196,-2.8196,-2.8196,-2.8267,-2.9132,-2.9986,-3.0876,-3.183,-3.275,-3.3597,-4.6266,-4.6282,-4.6308,-4.6308,-4.6307,-4.6226,0.0,0.0,0.0,0.0,0.0,0.0,0.0,0.0,-4.1095,-4.1095,-4.1094,-4.1093,-4.1093,-4.109,-4.1109,-4.1109,-4.1109,0.0,0.0,0.0,0.0,0.0,0.0,0.0,0.0,0.0,0.0,0.0,-4.0854,-4.0792,-4.072,-4.0579,0.0,0.0,-3.871,-3.794,0.0,0.0,0.0,0.0,0.0,-3.6082,-3.6668,0.0,-3.768,-3.8376,0.0,0.0,0.0,0.0,0.0,0.0,-3.5193,0.0,0.0,0.0,0.0,0.0,-3.4666,-3.3323,0.0,0.0,0.0,0.0,0.0,0.0,0.0,0.0,0.0,0.0,0.0,0.0,0.0,0.0,0.0,0.0,0.0,0.0,0.0,0.0,-2.7748,-2.7701,-2.7701,-2.7836,-2.794,-2.8014,-2.8126,-2.8196,-2.8196,-2.8196,-2.8196,-2.8196,-2.8196,-2.8196,-2.8196,-2.8196,-2.8196,-2.8196,-2.8196,-2.8196,-2.8196,-2.8196,-2.8196,-2.8213,-2.8473,-2.9124,-3.0048,-3.0975,-3.1942,-3.283,-4.6303,-4.6308,-4.6307,-4.6306,-4.6302,-4.6297,0.0,0.0,0.0,0.0,0.0,0.0,0.0,0.0,0.0,-4.1109,-4.1109,-4.1109,-4.1109,-4.1109,-4.1109,-4.1109,0.0,0.0,0.0,0.0,0.0,0.0,0.0,0.0,0.0,0.0,0.0,0.0,0.0,0.0,0.0,0.0,0.0,0.0,-3.8435,0.0,0.0,-3.584,-3.5209,0.0,0.0,0.0,-3.6056,-3.6101,-3.6479,0.0,0.0,0.0,0.0,0.0,0.0,0.0,0.0,0.0,0.0,0.0,0.0,0.0,-3.4758,-3.3659,-3.2582,0.0,0.0,0.0,0.0,0.0,0.0,0.0,0.0,0.0,0.0,0.0,0.0,0.0,0.0,0.0,0.0,-2.8042,-2.7989,-2.7989,-2.7882,-2.7806,-2.7777,-2.794,-2.8042,-2.8014,-2.8126,-2.8196,-2.8196,-2.8196,-2.8196,-2.8196,-2.8196,-2.8196,-2.8196,-2.8196,-2.8196,-2.8196,-2.8196,-2.8196,-2.8196,-2.8196,-2.8196,-2.8196,-2.8196,-2.877,-2.967,-3.0261,-3.1279,-3.2484,0.0,-4.6306,-4.63,-4.6294,-4.6293,0.0,0.0,0.0,0.0,0.0,0.0,0.0,0.0,0.0,0.0,0.0,-4.1165,-4.1106,-4.1106,-4.1106,0.0,0.0,0.0,0.0,0.0,0.0,0.0,0.0,0.0,0.0,0.0,0.0,0.0,0.0,-4.0804,-4.0713,0.0,0.0,0.0,-4.0111,-3.8397,-3.7655,0.0,0.0,-3.5209,0.0,-3.5209,-3.5234,-3.5285,-3.5304,-3.5339,0.0,0.0,0.0,0.0,0.0,-3.5285,0.0,0.0,0.0,0.0,0.0,0.0,0.0,-3.4819,-3.4136,-3.3275,-3.2504,0.0,0.0,0.0,0.0,0.0,0.0,0.0,0.0,0.0,0.0,0.0,0.0,0.0,0.0,-2.8618,-2.8397,-2.8265,-2.8251,-2.811,-2.7971,-2.7903,-2.8028,-2.8071,-2.7996,-2.8126,-2.8196,-2.8196,-2.8196,-2.8196,-2.8196,-2.8196,-2.8196,-2.8196,-2.8196,-2.8196,-2.8196,-2.8196,-2.8196,-2.8196,-2.8196,-2.8196,-2.8196,-2.8196,-2.8734,-2.9494,-2.9665,-3.0749,-3.2173,-4.6305,-4.63,-4.6294,-4.6293,0.0,0.0,0.0,0.0,0.0,0.0,0.0,0.0,0.0,0.0,0.0,0.0,0.0,-4.11,0.0,0.0,0.0,0.0,0.0,0.0,0.0,0.0,0.0,0.0,0.0,0.0,0.0,0.0,0.0,0.0,0.0,0.0,0.0,0.0,0.0,-3.9252,-3.814,0.0,-3.6615,-3.5583,-3.5209,-3.5209,-3.5209,-3.5209,-3.5226,0.0,-3.5304,-3.5361,0.0,0.0,0.0,0.0,0.0,0.0,0.0,0.0,0.0,0.0,0.0,0.0,-3.4877,-3.4156,-3.3445,0.0,0.0,0.0,0.0,0.0,0.0,0.0,0.0,0.0,0.0,0.0,0.0,0.0,0.0,0.0,-3.0557,-2.9796,-2.9273,-2.9231,-2.8464,-2.8,-2.7986,-2.8056,-2.8099,-2.8085,-2.8154,-2.8196,-2.8196,-2.8196,-2.8196,-2.8196,-2.8196,-2.8196,-2.8196,-2.8196,-2.8196,-2.8196,-2.8196,-2.8196,-2.8196,-2.8196,-2.8196,-2.8196,-2.8246,-2.8434,-2.8725,-2.9567,-3.0132,-3.0586,-4.6299,-4.6293,-4.6306,-4.6306,0.0,0.0,0.0,0.0,0.0,0.0,0.0,0.0,0.0,0.0,0.0,0.0,0.0,0.0,0.0,0.0,0.0,0.0,0.0,0.0,0.0,0.0,0.0,0.0,0.0,0.0,0.0,0.0,0.0,0.0,0.0,0.0,0.0,0.0,-3.855,-3.7712,-3.7247,0.0,-3.6351,-3.5475,-3.517,-3.5196,-3.5196,-3.5204,-3.5209,-3.5234,-3.525,0.0,0.0,-3.5258,-3.5261,0.0,-3.5226,-3.5193,0.0,0.0,0.0,-3.4983,0.0,0.0,0.0,-3.4546,-3.4061,0.0,0.0,0.0,0.0,0.0,0.0,0.0,0.0,0.0,0.0,0.0,0.0,0.0,0.0,0.0,-3.1303,-3.0745,-3.0166,-2.9579,-2.905,-2.855,-2.8074,-2.8112,-2.8126,-2.8099,-2.8168,-2.8196,-2.8196,-2.8196,-2.8196,-2.8196,-2.8196,-2.8196,-2.8196,-2.8196,-2.7981,-2.7603,-2.7603,-2.7357,-2.7018,-2.7442,-2.7603,-2.7638,-2.8112,-2.8367,-2.8508,-2.9098,-2.9624,-3.0124,-4.6308,-4.6303,-4.6296,-4.6275,0.0,0.0,0.0,0.0,0.0,0.0,0.0,0.0,0.0,0.0,0.0,0.0,0.0,0.0,0.0,0.0,0.0,0.0,0.0,-4.1078,0.0,0.0,0.0,0.0,0.0,0.0,0.0,0.0,0.0,0.0,0.0,0.0,0.0,0.0,0.0,-3.6365,0.0,-3.6146,-3.607,-3.5377,-3.5138,-3.5191,-3.5191,-3.5198,-3.5193,-3.5193,0.0,-3.498,-3.498,-3.4846,0.0,0.0,0.0,0.0,0.0,0.0,0.0,0.0,0.0,-3.4917,0.0,0.0,0.0,0.0,0.0,0.0,0.0,0.0,0.0,0.0,0.0,0.0,0.0,0.0,0.0,0.0,0.0,0.0,0.0,-3.1658,-3.1018,-2.9972,-2.9669,-2.9186,-2.8403,-2.8271,-2.8186,-2.8112,-2.8168,-2.8196,-2.8196,-2.8196,-2.8196,-2.8196,-2.8196,-2.8196,-2.8196,-2.8035,-2.762,-2.6978,-2.6848,-2.6407,-2.5854,-2.6496,-2.6866,-2.708,-2.7964,-2.8393,-2.851,-2.8657,-2.9199,-2.9856,-4.6286,-4.6308,-4.6284,-4.6214,0.0,0.0,0.0,0.0,0.0,0.0,0.0,0.0,0.0,0.0,0.0,0.0,0.0,0.0,-4.0906,0.0,0.0,0.0,0.0,0.0,-4.1007,0.0,0.0,0.0,0.0,0.0,0.0,0.0,0.0,0.0,-4.0481,0.0,0.0,0.0,-3.725,0.0,-3.5475,-3.5199,0.0,-3.5131,-3.5092,-3.5101,-3.5101,-3.5147,-3.5208,0.0,-3.4718,-3.4147,0.0,-3.3605,-3.3138,0.0,0.0,0.0,0.0,0.0,0.0,0.0,-3.5001,0.0,0.0,0.0,0.0,0.0,0.0,0.0,0.0,0.0,0.0,0.0,0.0,0.0,0.0,0.0,0.0,0.0,0.0,0.0,0.0,-3.2923,-3.1963,-3.1002,-3.0094,-2.9529,-2.9343,-2.8629,-2.8213,-2.8182,-2.8213,-2.8196,-2.8196,-2.8196,-2.8196,-2.8196,-2.8196,-2.8196,-2.8178,-2.746,-2.7098,-2.6955,-2.6247,-2.5877,-2.5818,-2.5908,-2.6354,-2.708,-2.8035,-2.8411,-2.8432,-2.8687,-2.887,-2.8968,-4.6231,-4.6248,-4.622,0.0,0.0,0.0,0.0,0.0,0.0,0.0,0.0,0.0,0.0,0.0,0.0,0.0,0.0,-4.0776,0.0,0.0,0.0,0.0,0.0,0.0,0.0,0.0,0.0,0.0,-4.0846,0.0,0.0,0.0,0.0,0.0,-4.0339,0.0,-3.8209,0.0,0.0,0.0,0.0,0.0,0.0,-3.4973,-3.5011,-3.4981,-3.4513,-3.4367,-3.4327,0.0,-3.3468,0.0,0.0,0.0,0.0,0.0,0.0,0.0,0.0,0.0,0.0,0.0,0.0,0.0,-3.4917,0.0,-3.4907,0.0,0.0,0.0,0.0,0.0,0.0,0.0,0.0,0.0,0.0,0.0,0.0,0.0,0.0,0.0,0.0,0.0,0.0,0.0,-3.0984,-3.0157,-2.9583,-2.873,-2.825,-2.8196,-2.8196,-2.8196,-2.8196,-2.8196,-2.8196,-2.8196,-2.8196,-2.7964,-2.7496,-2.7139,-2.6496,-2.564,-2.5319,-2.4908,-2.4504,-2.498,-2.5604,-2.6384,-2.7297,-2.798,-2.8484,-2.8675,-2.8761,-2.8798,-4.6157,0.0,0.0,0.0,0.0,0.0,0.0,0.0,0.0,0.0,0.0,0.0,-4.4262,-4.3405,0.0,0.0,0.0,-4.0642,0.0,0.0,-4.0726,0.0,0.0,0.0,0.0,0.0,0.0,0.0,0.0,0.0,0.0,0.0,0.0,0.0,0.0,-3.9251,-3.765,0.0,0.0,-3.4983,-3.4927,-3.4908,-3.4908,-3.4908,-3.4794,-3.4565,-3.3975,-3.364,-3.3344,-3.2773,-3.242,0.0,-3.2246,0.0,0.0,0.0,0.0,0.0,-3.3246,0.0,0.0,0.0,0.0,0.0,0.0,0.0,0.0,0.0,0.0,0.0,0.0,0.0,0.0,0.0,0.0,0.0,0.0,0.0,0.0,0.0,0.0,0.0,0.0,0.0,0.0,-3.2955,-3.1764,-3.0771,-3.003,-2.8919,-2.8304,-2.8237,-2.8209,-2.8196,-2.8196,-2.8196,-2.8196,-2.8196,-2.8196,-2.7767,-2.6978,-2.6777,-2.5943,-2.4694,-2.448,-2.404,-2.3559,-2.4129,-2.4944,-2.5872,-2.6537,-2.7469,-2.8453,-2.8625,-2.8724,-2.8773,-4.6014,-4.6052,0.0,0.0,0.0,0.0,0.0,0.0,0.0,0.0,0.0,0.0,0.0,0.0,0.0,0.0,0.0,-4.0504,-4.0504,0.0,-4.0518,0.0,0.0,-4.0602,0.0,0.0,0.0,0.0,0.0,0.0,0.0,0.0,0.0,0.0,0.0,-3.9195,-3.7518,-3.7489,-3.6492,-3.4889,-3.4908,-3.4908,-3.4908,0.0,-3.4415,-3.3733,-3.3723,0.0,0.0,-3.2514,-3.1996,0.0,0.0,0.0,0.0,0.0,0.0,0.0,0.0,0.0,0.0,-3.3652,0.0,0.0,0.0,0.0,-3.4908,0.0,0.0,0.0,0.0,0.0,0.0,0.0,0.0,0.0,0.0,0.0,0.0,0.0,0.0,0.0,0.0,0.0,0.0,-3.3944,-3.2252,-3.1188,-3.0962,-2.9318,-2.8384,-2.83,-2.8237,-2.8196,-2.8196,-2.8196,-2.8196,-2.8196,-2.8196,-2.7767,-2.6973,-2.6193,-2.5426,-2.4659,-2.388,-2.3523,-2.3505,-2.3523,-2.4433,-2.5818,-2.5965,-2.6956,-2.8327,-2.8536,-2.865,-2.8706,0.0,0.0,0.0,0.0,0.0,0.0,0.0,-4.5624,0.0,0.0,0.0,0.0,0.0,-4.2213,-4.1387,0.0,0.0,-4.0438,-4.0438,-4.0427,0.0,0.0,0.0,-4.0473,0.0,0.0,0.0,0.0,0.0,0.0,0.0,0.0,0.0,0.0,0.0,-3.9116,0.0,0.0,0.0,0.0,0.0,-3.4878,-3.4783,0.0,0.0,-3.3543,-3.2444,-3.1865,0.0,-3.0964,-3.0593,-3.0362,-3.0362,-3.0192,-3.0021,-3.0287,-3.0362,0.0,0.0,0.0,-3.1862,-3.2679,0.0,0.0,0.0,0.0,0.0,0.0,0.0,0.0,0.0,0.0,0.0,0.0,0.0,0.0,0.0,0.0,0.0,0.0,0.0,0.0,0.0,0.0,0.0,-3.4167,-3.2895,-3.1884,0.0,-3.0023,-2.9038,-2.8384,-2.83,-2.825,-2.8196,-2.8196,-2.8196,-2.8196,-2.8196,-2.75,-2.6193,-2.5925,-2.511,-2.388,-2.3612,-2.3505,-2.3505,-2.3505,-2.4415,-2.58,-2.5861,-2.689,-2.838,-2.8497,-2.8562,-2.8582,-4.5632,0.0,0.0,0.0,0.0,0.0,0.0,0.0,0.0,0.0,-4.425,0.0,-4.2498,0.0,-4.0976,0.0,-4.0354,-4.0354,-4.0354,-4.0354,0.0,-4.0354,-4.0351,0.0,0.0,0.0,0.0,0.0,0.0,-4.0345,0.0,0.0,0.0,0.0,0.0,0.0,0.0,0.0,-3.6423,0.0,0.0,-3.4659,0.0,0.0,-3.3204,-3.3015,0.0,-3.0972,-3.0612,-3.008,-2.9899,-2.9899,-2.9888,-2.9897,-2.9897,-2.9897,-2.9897,-3.0029,-3.0598,-3.073,0.0,-3.1772,-3.1962,0.0,-3.2322,0.0,0.0,0.0,0.0,0.0,0.0,0.0,0.0,0.0,0.0,0.0,0.0,-3.6292,0.0,0.0,0.0,0.0,0.0,0.0,-3.551,-3.4284,-3.329,-3.2458,0.0,0.0,-2.9567,-2.8917,-2.851,-2.8273,-2.8237,-2.8209,-2.8196,-2.8196,-2.8196,-2.7357,-2.58,-2.58,-2.495,-2.3505,-2.3505,-2.3505,-2.3505,-2.3505,-2.4415,-2.58,-2.5861,-2.689,-2.8367,-2.8445,-2.8523,-2.8582,-4.5504,-4.5495,0.0,0.0,-4.5541,0.0,0.0,0.0,-4.5073,0.0,-4.334,-4.2469,-4.159,-4.0788,-4.0301,-4.0301,-4.0301,0.0,-4.0301,-4.0301,0.0,0.0,-4.0301,-4.0301,-4.0301,0.0,0.0,0.0,0.0,0.0,0.0,0.0,0.0,0.0,-4.0017,0.0,-3.7409,-3.7406,-3.6429,-3.4877,-3.4771,-3.4231,-3.3392,-3.2562,-3.2213,-3.2128,-3.1317,-3.0506,-2.9808,-2.9859,-2.9904,-2.9904,-2.9899,-2.9907,-2.9907,-2.9888,-2.9888,-2.9888,-2.9897,-2.9897,-3.0105,-3.092,0.0,0.0,0.0,0.0,-3.2284,0.0,0.0,0.0,0.0,0.0,0.0,0.0,0.0,0.0,0.0,0.0,0.0,0.0,0.0,0.0,0.0,-3.6989,-3.6177,-3.4351,-3.3503,0.0,0.0,0.0,-3.0017,-2.9816,-2.8864,-2.8349,-2.83,-2.8237,-2.8196,-2.8196,-2.8196,-2.7357,-2.58,-2.58,-2.495,-2.3505,-2.3505,-2.3505,-2.3505,-2.3505,-2.4415,-2.5818,-2.5959,-2.6951,-2.8327,-2.838,-2.8536,-2.8706,-4.5438,-4.5399,-4.535,0.0,-4.5409,-4.5409,0.0,0.0,0.0,0.0,-4.331,-4.2469,-4.159,-4.0788,-4.0301,-4.0301,-4.0301,0.0,0.0,0.0,0.0,-4.0301,-4.0301,-4.0301,-4.0301,-4.0301,0.0,-4.0301,0.0,0.0,-4.0215,0.0,0.0,0.0,0.0,0.0,-3.7396,-3.7404,-3.6369,-3.4691,-3.4028,-3.36,0.0,0.0,-3.1143,-3.1013,-3.0376,-2.9996,-2.9808,-2.9816,-2.9825,-2.9825,-2.9834,-2.9834,-2.9842,-2.9885,-2.9893,-2.9901,-2.9907,-2.9897,-2.9953,-3.0181,-3.0238,-3.0294,0.0,0.0,0.0,0.0,0.0,0.0,0.0,0.0,0.0,0.0,0.0,0.0,0.0,0.0,0.0,-3.7519,0.0,0.0,-3.6332,-3.6152,-3.5611,-3.4445,-3.4071,0.0,0.0,0.0,0.0,-2.9993,-2.9546,-2.9008,-2.83,-2.8237,-2.8196,-2.8196,-2.8196,-2.7357,-2.58,-2.58,-2.495,-2.3505,-2.3505,-2.3505,-2.3505,-2.3551,-2.4503,-2.5959,-2.6033,-2.7115,-2.8582,-2.8562,-2.8675,-2.8839,-4.5328,0.0,0.0,-4.5203,0.0,0.0,-4.5265,0.0,0.0,-4.3505,-4.2685,0.0,-4.0988,-4.0492,-4.0225,-4.0253,-4.0253,0.0,-4.0301,0.0,0.0,-4.0301,-4.0301,-4.0301,-4.0301,-4.0263,0.0,-4.0253,0.0,0.0,-4.0157,0.0,0.0,0.0,0.0,-3.8948,0.0,-3.6526,-3.5367,-3.4041,-3.3519,0.0,0.0,-3.1125,-3.0478,-3.0039,-2.971,-2.9626,-2.9664,-2.9701,-2.9728,-2.9765,-2.9754,-2.9771,-2.9808,-2.9842,-2.987,-2.9851,-2.9857,-2.9874,-2.9891,-2.9891,-2.9899,-2.9897,-2.9897,-2.9897,-2.9897,0.0,0.0,0.0,0.0,0.0,0.0,0.0,0.0,0.0,0.0,0.0,0.0,0.0,-3.6464,0.0,-3.5474,-3.5681,-3.5454,-3.4517,0.0,0.0,0.0,0.0,0.0,-3.1168,-3.0225,-2.948,-2.891,-2.8465,-2.8237,-2.8196,-2.8196,-2.7357,-2.58,-2.58,-2.495,-2.3505,-2.3505,-2.3517,-2.3551,-2.3618,-2.4596,-2.6123,-2.6923,-2.787,-2.8779,-2.8749,-2.881,-2.8905,-4.5192,0.0,0.0,0.0,0.0,0.0,0.0,-4.438,0.0,-4.2563,0.0,-4.1078,-4.0202,-4.0106,-4.0127,-4.0186,0.0,-4.0206,-4.0263,-4.0263,-4.0263,-4.0263,-4.0263,-4.0263,-4.0263,-4.0225,0.0,0.0,0.0,0.0,0.0,0.0,0.0,0.0,0.0,0.0,0.0,-3.5381,-3.407,0.0,-3.3089,-3.2053,-3.065,-3.0528,-2.9983,-2.9251,-2.9251,-2.9353,-2.9482,-2.955,-2.9617,-2.9664,-2.9691,-2.9727,-2.9782,-2.9771,-2.9799,-2.9799,-2.9799,-2.9842,-2.9895,-2.9895,-2.9883,-2.9907,-2.9907,-2.9888,-2.9897,-2.9897,-2.9897,-3.0124,0.0,0.0,0.0,0.0,0.0,0.0,0.0,0.0,0.0,0.0,0.0,0.0,0.0,-3.5331,-3.5415,0.0,0.0,0.0,0.0,0.0,0.0,-3.2616,-3.0912,0.0,-2.9718,0.0,-2.8259,-2.8209,-2.8196,-2.7411,-2.5961,-2.5854,-2.5015,-2.3659,-2.3552,-2.3562,-2.3647,-2.3815,-2.4847,-2.6482,-2.8112,-2.8822,-2.8929,-2.8917,-2.8905,-2.8893,0.0,0.0,0.0,0.0,0.0,-4.4102,-4.4049,-4.395,-4.3354,-4.1802,-4.1497,-4.1078,-4.0202,-4.0106,-4.0087,-4.0127,-4.0127,0.0,0.0,0.0,0.0,-4.0137,-4.0137,-4.0137,-4.0137,-4.0127,-4.0127,0.0,0.0,0.0,0.0,0.0,0.0,0.0,0.0,0.0,-3.7043,-3.5218,0.0,-3.3079,-3.2277,-3.1362,-3.0372,-2.964,-2.9241,-2.9055,-2.9055,-2.9163,-2.9353,-2.9412,-2.9443,-2.9463,-2.9579,-2.9636,-2.9655,-2.969,-2.9717,-2.9726,-2.978,-2.9808,-2.9816,-2.9816,-2.9859,-2.9893,-2.9893,-2.9891,-2.9897,-2.9897,-2.9897,-2.9953,-3.0105,0.0,0.0,0.0,0.0,0.0,0.0,0.0,0.0,0.0,0.0,0.0,0.0,0.0,0.0,0.0,0.0,0.0,0.0,0.0,0.0,0.0,-3.1558,0.0,0.0,0.0,-2.8286,-2.8286,-2.8223,-2.7696,-2.6777,-2.6104,-2.5343,-2.4533,-2.386,-2.3652,-2.3826,-2.4548,-2.5899,-2.761,-2.8574,-2.9005,-2.9044,-2.894,-2.8905,-2.8905,0.0,0.0,0.0,0.0,0.0,0.0,0.0,-4.2347,0.0,-4.1339,-4.0824,-4.0195,-3.9351,-3.9275,-3.9126,-3.8721,-3.8702,-3.8714,-3.8745,-3.8755,-3.8765,-3.8803,-3.9203,0.0,-3.9431,-3.9808,-4.0005,-4.0005,0.0,0.0,0.0,0.0,0.0,0.0,0.0,-3.7598,0.0,0.0,0.0,-3.2249,-3.1348,-3.0425,-2.9589,-2.9157,-2.8952,-2.89,-2.89,-2.8957,-2.9052,-2.9192,-2.9275,-2.931,-2.9412,-2.9463,-2.9427,-2.9111,-2.9326,-2.956,-2.9192,-2.9388,-2.9754,-2.9754,-2.9808,-2.9842,-2.9842,-2.9876,-2.991,-2.991,-2.9899,-2.9897,-2.9897,-3.0617,0.0,0.0,0.0,0.0,0.0,0.0,0.0,0.0,0.0,0.0,0.0,0.0,0.0,0.0,0.0,0.0,0.0,0.0,0.0,0.0,0.0,0.0,0.0,0.0,0.0,-2.834,-2.8273,-2.7848,-2.7095,-2.668,-2.6102,-2.544,-2.5098,-2.4987,-2.5113,-2.6096,-2.7054,-2.7977,-2.8787,-2.9089,-2.9096,-2.8987,-2.8905,-2.8846,0.0,-4.4713,0.0,0.0,-4.3209,0.0,-4.1166,-4.0597,-4.0352,-4.0514,-3.9863,-3.9081,-3.8271,-3.8188,-3.7966,-3.7368,-3.7322,-3.7356,-3.7401,-3.7421,-3.746,-3.7499,-3.8136,-3.8488,-3.8488,-3.9039,-3.9421,0.0,0.0,0.0,0.0,0.0,0.0,0.0,0.0,0.0,0.0,0.0,-3.239,-3.1457,-3.0594,-2.969,-2.887,-2.887,-2.8822,-2.8749,-2.8749,-2.8749,-2.8773,-2.8952,-2.9078,-2.913,-2.9045,-2.9062,-2.8984,-2.8297,-2.8559,-2.8961,-2.8511,-2.8875,-2.9438,-2.9635,-2.9727,-2.9782,-2.9771,-2.9834,-2.9887,-2.9904,-2.9891,-2.9897,-2.9897,-3.0465,0.0,0.0,0.0,0.0,0.0,0.0,0.0,0.0,0.0,0.0,0.0,0.0,0.0,0.0,0.0,0.0,0.0,0.0,0.0,0.0,0.0,-3.1334,-3.1172,0.0,-2.8562,0.0,-2.838,-2.8025,-2.7448,-2.7235,-2.6865,-2.6363,-2.6272,-2.6342,-2.6586,-2.7295,-2.7869,-2.8323,-2.8767,-2.9019,-2.91,-2.904,-2.8923,-2.8773,0.0,0.0,0.0,0.0,0.0,0.0,-4.0848,-3.9408,-3.8421,-3.8632,-3.8522,-3.8099,-3.7225,-3.7197,-3.719,-3.7049,-3.7096,-3.713,-3.7141,-3.7186,-3.7238,-3.7238,-3.7368,-3.7446,-3.7446,-3.7448,-3.78,0.0,0.0,0.0,0.0,0.0,0.0,0.0,0.0,0.0,0.0,-3.3456,-3.2182,-3.1254,-3.0386,-2.9508,-2.8718,-2.8718,-2.8687,-2.8612,-2.8612,-2.8612,-2.8625,-2.8706,-2.887,-2.8922,-2.8318,-2.8174,-2.8078,-2.7354,-2.7232,-2.7484,-2.8138,-2.8362,-2.8624,-2.9401,-2.9655,-2.971,-2.9699,-2.9763,-2.9825,-2.9895,-2.9891,-2.9897,-2.9897,-2.9972,-3.0029,0.0,0.0,0.0,0.0,0.0,0.0,0.0,0.0,0.0,0.0,-3.3079,0.0,0.0,0.0,0.0,0.0,0.0,0.0,-3.4099,0.0,-3.1446,-3.1372,-2.9581,-2.8644,-2.8574,-2.8505,-2.8404,-2.8267,-2.7594,-2.7278,-2.723,-2.657,-2.6815,-2.7611,-2.7089,-2.78,-2.9106,-2.8384,-2.8556,-2.9167,-2.9051,-2.8923,-2.8773,0.0,0.0,0.0,0.0,0.0,0.0,0.0,-3.8409,-3.7594,-3.6658,-3.7007,-3.7001,-3.6137,-3.6112,-3.59,-3.5305,-3.5328,-3.5376,-3.5411,-3.5446,-3.5487,-3.5522,-3.6006,-3.628,-3.628,-3.6728,-3.7123,0.0,0.0,0.0,0.0,0.0,0.0,0.0,0.0,-3.477,-3.36,-3.2383,-3.1314,-3.0389,-2.9544,-2.8985,-2.865,-2.865,-2.86,-2.8549,-2.8549,-2.8549,-2.8476,-2.8008,-2.7973,-2.8072,-2.7868,-2.7524,-2.7054,-2.6329,-2.6869,-2.7669,-2.7503,-2.8202,-2.9042,-2.9388,-2.955,-2.9636,-2.9645,-2.9691,-2.9754,-2.978,-2.9815,-2.9841,-2.9841,-2.9841,-2.9841,0.0,0.0,0.0,0.0,0.0,0.0,0.0,0.0,0.0,0.0,0.0,0.0,0.0,0.0,0.0,0.0,0.0,0.0,-3.4111,0.0,-3.1573,-3.1458,-2.974,-2.8846,-2.8785,-2.8669,-2.8637,-2.8637,-2.8293,-2.8221,-2.8353,-2.8105,-2.8254,-2.8669,-2.84,-2.8711,-2.9328,-2.8975,-2.9008,-2.924,-2.9119,-2.9005,-2.8912,-4.3264,0.0,-4.1983,0.0,-4.004,-3.9263,-3.7998,-3.7322,-3.6514,-3.5353,-3.5531,-3.5552,-3.4977,-3.4955,-3.4727,-3.4041,-3.4049,-3.4099,-3.4148,-3.4173,-3.4209,-3.4245,-3.4845,0.0,-3.5167,-3.5715,-3.6105,-3.6334,-3.6302,0.0,0.0,0.0,0.0,0.0,-3.4703,-3.3745,-3.2444,-3.1336,-3.0498,-2.9813,-2.8983,-2.8637,-2.8574,-2.8574,-2.8536,-2.8471,-2.8471,-2.8471,-2.8358,-2.7572,-2.72,-2.7071,-2.6961,-2.6603,-2.6072,-2.5305,-2.6138,-2.7222,-2.6893,-2.7869,-2.9023,-2.9275,-2.9441,-2.9521,-2.955,-2.9617,-2.9691,-2.9699,-2.9763,-2.9808,-2.9808,-2.9808,-2.9808,-2.9808,0.0,0.0,0.0,0.0,0.0,0.0,-2.9771,-3.0319,-3.1704,0.0,0.0,0.0,0.0,0.0,0.0,0.0,0.0,0.0,0.0,0.0,0.0,-2.9899,-2.904,-2.8964,-2.8851,-2.8834,-2.8858,-2.8834,-2.8917,-2.9055,-2.913,-2.9207,-2.9283,-2.9045,-2.9132,-2.9359,-2.9118,-2.9132,-2.9291,-2.9186,-2.9096,-2.8994,-4.2813,-4.153,-4.0387,-4.0222,-3.8835,-3.771,-3.7624,-3.6083,-3.4934,-3.4902,-3.4173,-3.3665,-3.3716,-3.3785,-3.378,-3.3712,-3.3766,-3.382,-3.382,-3.3855,-3.3908,0.0,0.0,-3.413,-3.413,-3.4117,-3.45,-3.523,0.0,0.0,-3.639,0.0,-3.511,-3.4842,-3.325,-3.2442,-3.2197,-3.0602,-2.9873,-2.973,-2.8938,-2.8562,-2.8492,-2.8492,-2.8458,-2.8411,-2.8411,-2.8411,-2.8298,-2.7547,-2.676,-2.6007,-2.5336,-2.5218,-2.5157,-2.436,-2.4691,-2.5527,-2.6363,-2.7243,-2.8124,-2.8993,-2.9238,-2.9334,-2.9472,-2.955,-2.9617,-2.969,-2.9763,-2.9808,-2.9808,-2.9808,-2.9808,-2.9808,0.0,0.0,0.0,0.0,0.0,0.0,-2.9735,-3.0047,-3.0923,0.0,0.0,0.0,0.0,0.0,0.0,0.0,0.0,-3.4209,-3.2578,0.0,-3.1709,-3.0035,-2.9156,-2.9108,-2.9108,-2.9062,-2.9005,-2.9074,-2.9123,-2.92,-2.9262,-2.9302,-2.9238,-2.8437,-2.8616,-2.9304,-2.8449,-2.8594,-2.9302,-2.9302,-2.9163,-2.9005,-4.0938,-4.0422,-3.9838,-3.9173,-3.815,-3.7224,-3.6604,-3.5553,-3.4619,-3.4014,-3.3712,-3.352,-3.3509,-3.3605,-3.3647,0.0,-3.3615,-3.3657,0.0,-3.3684,-3.3698,-3.3698,-3.3739,-3.3766,-3.3766,-3.3766,-3.3863,-3.411,0.0,0.0,0.0,-3.4229,-3.3794,-3.3173,-3.2621,-3.1728,-3.0638,-3.0059,-2.9481,-2.8892,-2.8626,-2.8497,-2.8432,-2.8432,-2.8393,-2.8327,-2.8327,-2.8327,-2.8143,-2.6792,-2.6219,-2.5805,-2.4529,-2.4244,-2.4395,-2.4694,-2.5392,-2.6238,-2.7061,-2.7929,-2.8652,-2.8925,-2.9104,-2.9246,-2.9328,-2.9451,-2.956,-2.9617,-2.9645,-2.9683,-2.9719,-2.9729,-2.9729,-2.9729,-2.9729,0.0,0.0,0.0,0.0,0.0,-2.9701,-3.003,0.0,-3.1128,0.0,0.0,0.0,0.0,0.0,0.0,0.0,0.0,-3.2625,0.0,-3.1778,-3.0109,-2.9251,-2.9248,-2.9197,-2.9163,-2.9152,-2.9207,-2.924,-2.9243,-2.8713,-2.8827,-2.9301,-2.8439,-2.8616,-2.9359,-2.9081,-2.9145,-2.9365,-2.9262,-2.9178,-2.9112,-3.9877,-3.9546,-3.9072,-3.817,-3.7332,-3.6498,-3.5636,-3.4805,-3.4084,-3.3521,-3.3466,-3.3452,-3.3393,-3.3481,0.0,-3.3466,-3.3509,-3.352,-3.352,-3.352,-3.352,-3.352,-3.3549,-3.3563,-3.3563,-3.3591,0.0,-3.3108,-3.2798,-3.2652,-3.2652,-3.2652,-3.2379,-3.186,-3.1497,-3.0798,-2.9836,-2.9463,-2.9013,-2.851,-2.8466,-2.8419,-2.8353,-2.8353,-2.8313,-2.8259,-2.8259,-2.8259,-2.8081,-2.677,-2.6181,-2.5751,-2.4493,-2.397,-2.3922,-2.4429,-2.5375,-2.6359,-2.6866,-2.7858,-2.8755,-2.8785,-2.8691,-2.8555,-2.8408,-2.8439,-2.8594,-2.8979,-2.9073,-2.9195,-2.957,-2.9645,-2.9655,-2.9655,-2.9673,-2.9701,-2.9701,0.0,0.0,0.0,0.0,0.0,0.0,-3.0696,-3.1285,0.0,0.0,0.0,0.0,0.0,0.0,-3.4209,-3.2648,0.0,-3.1794,-3.0153,-2.9344,-2.9344,-2.9294,-2.9283,-2.9283,-2.9323,-2.9159,-2.8814,-2.8317,-2.8412,-2.8876,-2.8319,-2.8616,-2.9396,-2.9396,-2.9396,-2.9386,-2.9272,-2.9229,-2.9178,-3.9496,-3.8895,-3.8145,0.0,-3.6464,0.0,-3.4815,-3.396,-3.3393,-3.3393,-3.3393,-3.3393,-3.3393,-3.3393,-3.3393,-3.3393,0.0,0.0,0.0,-3.3393,-3.3393,-3.3393,-3.3466,-3.3477,-3.3477,-3.3494,-3.3089,-3.2219,-3.147,-3.1088,-3.1088,-3.1088,-3.1029,-3.0889,-3.0129,-2.9766,-2.9663,-2.8838,-2.8492,-2.8479,-2.8419,-2.834,-2.8286,-2.8286,-2.8246,-2.8196,-2.8196,-2.8196,-2.8102,-2.7347,-2.6604,-2.5852,-2.5093,-2.4356,-2.3779,-2.379,-2.4792,-2.5949,-2.5991,-2.7149,-2.8343,-2.8411,-2.7961,-2.7371,-2.6884,-2.6772,-2.7034,-2.7903,-2.8137,-2.8426,-2.9248,-2.9503,-2.9588,-2.9588,-2.9636,-2.9692,-2.9692,0.0,0.0,0.0,0.0,0.0,0.0,-3.0311,-3.0731,0.0,0.0,0.0,0.0,0.0,-3.4146,-3.4209,-3.2648,-3.1794,-3.1794,-3.0196,-2.9396,-2.9396,-2.9396,-2.9396,-2.9396,-2.9396,-2.8913,-2.8096,-2.804,-2.8059,-2.8096,-2.804,-2.856,-2.9396,-2.9396,-2.9396,-2.9386,-2.9312,-2.924,-2.9178,0.0,0.0,-3.8003,-3.7205,-3.6375,-3.5561,-3.4746,-3.3933,-3.3393,-3.3393,-3.3393,-3.3393,-3.3393,-3.3393,-3.3393,-3.3393,-3.3393,-3.3393,-3.3393,-3.3393,-3.3393,-3.3393,-3.3408,-3.3422,-3.3422,-3.2839,-3.2131,-3.1315,-3.1134,-3.1025,-3.1025,-3.1025,-3.0686,-3.0074,-2.9875,-2.9432,-2.8789,-2.8595,-2.8427,-2.8353,-2.8327,-2.8273,-2.8223,-2.8223,-2.8209,-2.8196,-2.8196,-2.8196,-2.8071,-2.7277,-2.6897,-2.6593,-2.582,-2.5052,-2.4479,-2.4583,-2.4858,-2.529,-2.5901,-2.6375,-2.6675,-2.6688,-2.6615,-2.6518,-2.649,-2.6528,-2.6657,-2.7001,-2.7577,-2.8108,-2.8317,-2.8945,-2.9443,-2.9443,-2.9492,-2.955,-2.955,-2.955,0.0,0.0,-2.955,-2.955,-2.955,-2.9709,-3.0063,0.0,0.0,0.0,0.0,-3.2299,-3.2957,-3.416,-3.2648,-3.1794,-3.1794,-3.0196,-2.9396,-2.9396,-2.9396,-2.9396,-2.9396,-2.9396,-2.8913,-2.8077,-2.7445,-2.7538,-2.8059,-2.7445,-2.8029,-2.9323,-2.9323,-2.9283,-2.9251,-2.9175,-2.9141,-2.91,-3.8209,-3.8209,-3.7846,-3.6653,-3.6091,-3.5406,-3.4244,-3.3683,-3.3393,-3.3393,-3.3393,-3.3393,-3.3393,-3.3393,-3.3393,-3.3393,-3.3393,-3.3393,-3.3393,-3.3393,-3.3393,-3.3393,-3.3393,-3.3393,-3.3393,-3.2614,-3.1618,-3.0455,-3.0079,-2.9898,-2.9898,-2.9898,-2.9663,-2.9246,-2.922,-2.8946,-2.851,-2.8427,-2.838,-2.83,-2.8277,-2.8237,-2.8196,-2.8196,-2.8196,-2.8196,-2.8196,-2.8196,-2.8142,-2.771,-2.7299,-2.6907,-2.6496,-2.5818,-2.5224,-2.5291,-2.5082,-2.4902,-2.5333,-2.5709,-2.5888,-2.5584,-2.557,-2.5536,-2.5267,-2.5237,-2.54,-2.5863,-2.6366,-2.6941,-2.7711,-2.8344,-2.8872,-2.9243,-2.9392,-2.9453,-2.9453,-2.9482,0.0,-2.9502,-2.9502,-2.9502,-2.9502,-2.9472,-2.9648,-3.0083,-3.0453,0.0,-3.1236,-3.1608,-3.2202,-3.3083,-3.1905,-3.1255,-3.1255,-3.001,-2.9396,-2.9396,-2.9396,-2.9396,-2.9396,-2.9396,-2.8913,-2.8059,-2.7241,-2.7352,-2.804,-2.7193,-2.7832,-2.9302,-2.9262,-2.924,-2.9189,-2.9112,-2.9089,-2.9096,-3.8209,-3.8209,-3.7685,-3.6075,-3.5804,-3.5261,-3.3647,-3.3393,-3.3393,-3.3393,-3.3393,-3.3393,-3.3393,-3.3393,-3.3393,-3.3393,-3.3393,-3.3393,-3.3393,-3.3393,-3.3393,-3.3393,-3.3393,-3.3339,-3.323,-3.2306,-3.1111,-2.9621,-2.8925,-2.86,-2.86,-2.86,-2.8587,-2.8574,-2.8536,-2.8479,-2.8453,-2.8353,-2.8286,-2.8273,-2.8223,-2.8196,-2.8196,-2.8196,-2.8196,-2.8196,-2.8196,-2.8196,-2.8196,-2.8196,-2.7763,-2.7174,-2.7174,-2.6621,-2.5979,-2.5979,-2.5372,-2.4694,-2.4694,-2.5069,-2.5331,-2.4754,-2.4645,-2.4534,-2.3905,-2.3772,-2.3985,-2.4737,-2.5037,-2.5637,-2.7177,-2.7717,-2.8204,-2.9027,-2.9257,-2.9361,-2.9382,0.0,-2.9463,-2.9472,-2.9472,-2.9472,-2.9472,-2.9423,-2.9392,-2.9392,-3.0031,-3.0418,-3.0418,-3.1069,-3.144,-3.144,-3.0883,-3.053,-3.0418,-2.9731,-2.9396,-2.9396,-2.9396,-2.9396,-2.9396,-2.9396,-2.8913,-2.8059,-2.7371,-2.7408,-2.7863,-2.7247,-2.7828,-2.9106,-2.9163,-2.9178,-2.9156,-2.9119,-2.9078,-2.9085,-3.8209,-3.8209,-3.7685,-3.6075,-3.5804,-3.5261,-3.3647,-3.3393,-3.3393,-3.3393,-3.3393,-3.3393,-3.3393,-3.3393,-3.3393,-3.3393,-3.3393,-3.3393,-3.3393,-3.3393,-3.3393,-3.3393,-3.3393,-3.3085,-3.2397,-3.0926,-2.9717,-2.8781,-2.8654,-2.86,-2.86,-2.86,-2.8574,-2.8523,-2.8492,-2.8445,-2.8327,-2.8313,-2.8277,-2.8209,-2.8196,-2.8196,-2.8196,-2.8196,-2.8196,-2.8196,-2.8196,-2.8196,-2.8196,-2.8196,-2.8124,-2.8017,-2.8017,-2.746,-2.68,-2.68,-2.58,-2.4694,-2.4694,-2.4302,-2.3826,-2.3731,-2.3707,-2.3694,-2.3636,-2.3629,-2.3688,-2.3884,-2.4508,-2.5312,-2.6199,-2.7068,-2.7935,-2.8805,-2.9055,-2.9197,-2.9294,0.0,-2.9347,-2.9417,-2.9427,-2.9427,-2.9427,-2.9417,-2.9388,-2.9388,-2.9518,-2.9582,-2.9582,-2.9694,-2.9768,-2.9768,-3.0307,-3.027,-2.9582,-2.9452,-2.9396,-2.9396,-2.9396,-2.9396,-2.9396,-2.9396,-2.8913,-2.8096,-2.7966,-2.7594,-2.713,-2.7618,-2.7974,-2.8257,-2.8876,-2.9085,-2.904,-2.9028,-2.9017,-2.9017,-3.8209,-3.8209,-3.7846,-3.6653,-3.6091,-3.5388,-3.4226,-3.3683,-3.3393,-3.3393,-3.3393,-3.3393,-3.3393,-3.3393,-3.3393,-3.3393,-3.3393,-3.3393,-3.3393,-3.3393,-3.3393,-3.3393,-3.3393,-3.2814,-3.1582,-3.04,-2.9409,-2.86,-2.86,-2.86,-2.86,-2.8562,-2.8536,-2.851,-2.8414,-2.8367,-2.83,-2.8246,-2.8223,-2.8196,-2.8196,-2.8196,-2.8196,-2.8196,-2.8196,-2.8196,-2.8196,-2.8196,-2.8196,-2.8196,-2.8196,-2.8196,-2.8196,-2.7946,-2.7656,-2.7656,-2.6247,-2.4605,-2.4165,-2.3773,-2.3505,-2.3505,-2.3505,-2.3517,-2.3539,-2.3539,-2.3551,-2.3596,-2.3939,-2.4613,-2.5817,-2.6453,-2.7217,-2.8537,-2.8846,0.0,0.0,-2.9163,-2.9229,-2.9334,-2.9344,-2.9365,-2.9396,-2.9396,-2.9396,-2.9396,-2.9396,-2.9396,-2.9396,-2.9396,-2.9396,-2.9396,-2.975,-2.9768,-2.9396,-2.9396,-2.9396,-2.9396,-2.9396,-2.9396,-2.9396,-2.9396,-2.9174,-2.8765,-2.83,-2.789,-2.7582,-2.7863,-2.7978,-2.8017,-2.8761,-2.9028,-2.9005,-2.9005,-2.9005,-2.9005,-3.8209,-3.8209,-3.7955,-3.714,-3.649,-3.5747,-3.4751,-3.4081,-3.361,-3.3429,-3.3393,-3.3393,-3.3393,-3.3393,-3.3393,-3.3393,-3.3393,-3.3393,-3.3393,-3.3393,-3.3393,-3.3393,-3.3034,-3.2242,-3.098,-2.9985,-2.9158,-2.8549,-2.8574,-2.8574,-2.8549,-2.8523,-2.8479,-2.8458,-2.8353,-2.8286,-2.8273,-2.8223,-2.8196,-2.8196,-2.8196,-2.8196,-2.8196,-2.8196,-2.8196,-2.8196,-2.8196,-2.8196,-2.8196,-2.8196,-2.8196,-2.8196,-2.8196,-2.8196,-2.8196,-2.8196,-2.6662,-2.4783,-2.3987,-2.3648,-2.3505,-2.3505,-2.3505,-2.3505,-2.3505,-2.3505,-2.3505,-2.3505,-2.3539,-2.4003,-2.5446,-2.5901,-2.6555,-2.8043,0.0,0.0,0.0,-2.901,-2.9119,-2.9229,-2.9291,-2.9323,-2.9376,-2.9396,-2.9396,-2.9396,-2.9396,-2.9396,-2.9396,-2.9396,-2.9396,-2.9396,-2.9396,-2.9396,-2.9396,-2.9396,-2.9396,-2.9396,-2.9396,-2.9396,-2.9396,-2.9396,-2.9396,-2.9359,-2.869,-2.8177,-2.781,-2.7933,-2.7843,-2.7698,-2.8422,-2.884,-2.9005,-2.9005,-2.8994,-2.8982,-3.8209,-3.8209,-3.7955,-3.714,-3.6941,-3.6397,-3.4842,-3.4552,-3.4244,-3.3502,-3.3393,-3.3393,-3.3393,-3.3393,-3.3393,-3.3393,-3.3393,-3.3393,-3.3393,-3.3393,-3.3393,-3.3393,-3.191,-3.1008,-3.083,-2.9287,-2.846,-2.8406,-2.8484,-2.8484,-2.8424,-2.8466,-2.8427,-2.8313,-2.83,-2.8277,-2.8196,-2.8196,-2.8196,-2.8196,-2.8196,-2.8196,-2.8196,-2.8196,-2.8196,-2.8196,-2.8196,-2.8196,-2.8196,-2.8196,-2.8196,-2.8196,-2.8196,-2.8196,-2.8196,-2.8196,-2.7018,-2.5569,-2.4819,-2.4058,-2.3505,-2.3505,-2.3505,-2.3505,-2.3505,-2.3505,-2.3505,-2.3505,-2.3505,-2.3773,-2.4641,-2.5464,-2.6295,-2.716,0.0,0.0,-2.8785,-2.8935,-2.904,-2.9119,-2.9218,-2.9302,-2.9312,-2.9365,-2.9396,-2.9396,-2.9396,-2.9396,-2.9396,-2.9396,-2.9396,-2.9396,-2.9396,-2.9396,-2.9396,-2.9396,-2.9396,-2.9396,-2.9396,-2.9396,-2.9396,-2.9396,-2.9396,-2.9407,-2.9322,-2.84,-2.6958,-2.7695,-2.7522,-2.6859,-2.7607,-2.8338,-2.9005,-2.9005,-2.8952,-2.8917,-3.8209,-3.8209,-3.81,-3.781,-3.7339,-3.6796,-3.618,-3.524,-3.4498,-3.419,-3.3719,-3.3393,-3.3393,-3.3393,-3.3393,-3.3393,-3.3393,-3.3393,-3.3393,-3.3393,-3.3382,-3.3337,-3.1773,-3.0868,-3.0801,-2.922,-2.8411,-2.8411,-2.8419,-2.8419,-2.8411,-2.838,-2.8353,-2.83,-2.8264,-2.8223,-2.8196,-2.8196,-2.8196,-2.8196,-2.8196,-2.8196,-2.8196,-2.8196,-2.8196,-2.8196,-2.8196,-2.8196,-2.8196,-2.8196,-2.8196,-2.8196,-2.8196,-2.8196,-2.8106,-2.7603,-2.6354,-2.5069,-2.4783,-2.4112,-2.3505,-2.3505,-2.3505,-2.3505,-2.3505,-2.3505,-2.3505,-2.3505,-2.3505,-2.3755,-2.4551,-2.5343,-2.6149,-2.7,0.0,-2.8458,-2.86,-2.87,-2.881,-2.8964,-2.9089,-2.9207,-2.9291,-2.9365,-2.9396,-2.9396,-2.9396,-2.9396,-2.9396,-2.9396,-2.9396,-2.9396,-2.9396,-2.9396,-2.9396,-2.9396,-2.9396,-2.9396,-2.9396,-2.9396,-2.9396,-2.9355,-2.9344,-2.9344,-2.9294,-2.8593,-2.7503,-2.7806,-2.7727,-2.7416,-2.7688,-2.8278,-2.894,-2.894,-2.8893,-2.8834,-3.8209,-3.8209,-3.8209,-3.8209,-3.7738,-3.7285,-3.7049,-3.5856,-3.4881,-3.4643,-3.39,-3.3393,-3.3393,-3.3393,-3.3393,-3.3393,-3.3393,-3.3393,-3.3393,-3.3382,-3.3337,-3.3247,-3.1917,-3.1031,-3.0708,-2.9402,-2.8596,-2.8345,-2.8353,-2.8371,-2.8345,-2.8313,-2.8286,-2.8277,-2.8223,-2.8196,-2.8196,-2.8196,-2.8196,-2.8196,-2.8196,-2.8196,-2.8196,-2.8196,-2.8196,-2.8196,-2.8196,-2.8196,-2.8196,-2.8196,-2.8196,-2.8196,-2.8196,-2.8035,-2.7607,-2.6586,-2.5533,-2.4641,-2.4391,-2.3915,-2.3505,-2.3505,-2.3505,-2.3505,-2.3505,-2.3505,-2.3505,-2.3505,-2.3505,-2.3755,-2.4551,-2.5301,-2.6081,-2.6936,-2.7767,-2.834,-2.8414,-2.8536,-2.8662,-2.8822,-2.8975,-2.913,-2.9251,-2.9334,-2.9376,-2.9396,-2.9396,-2.9396,-2.9396,-2.9396,-2.9396,-2.9396,-2.9396,-2.9396,-2.9396,-2.9396,-2.9396,-2.9396,-2.9376,-2.9376,-2.9365,-2.9312,-2.9262,-2.928,-2.9229,-2.8713,-2.79,-2.79,-2.7838,-2.7783,-2.7783,-2.8215,-2.887,-2.8839,-2.8779,-2.8724,-3.8209,-3.8209,-3.8209,-3.8209,-3.8209,-3.7937,-3.7122,-3.6327,-3.5514,-3.47,-3.39,-3.3393,-3.3393,-3.3393,-3.3393,-3.3393,-3.3393,-3.3393,-3.3393,-3.3337,-3.3247,-3.3101,-3.2268,-3.1387,-3.0529,-2.9779,-2.8998,-2.8213,-2.8277,-2.8277,-2.8196,-2.8277,-2.8259,-2.8196,-2.8196,-2.8196,-2.8196,-2.8196,-2.8196,-2.8196,-2.8196,-2.8196,-2.8196,-2.8196,-2.8196,-2.8196,-2.8196,-2.8196,-2.8196,-2.8196,-2.8196,-2.8196,-2.8196,-2.7638,-2.6693,-2.5158,-2.4694,-2.4516,-2.3719,-2.3505,-2.3505,-2.3505,-2.3505,-2.3505,-2.3505,-2.3505,-2.3505,-2.3505,-2.3505,-2.3755,-2.4551,-2.5319,-2.6068,-2.6871,-2.7723,-2.83,-2.83,-2.8471,-2.8625,-2.8682,-2.887,-2.9051,-2.9178,-2.9251,-2.9334,-2.9396,-2.9396,-2.9396,-2.9396,-2.9396,-2.9396,-2.9396,-2.9396,-2.9396,-2.9396,-2.9396,-2.9396,-2.9396,-2.9334,-2.9302,-2.9302,-2.9229,-2.92,-2.92,-2.92,-2.8713,-2.79,-2.79,-2.7816,-2.7723,-2.7705,-2.8152,-2.8785,-2.8706,-2.8662,-2.8574,-3.8209,-3.8209,-3.8209,-3.8209,-3.8209,-3.8118,-3.7883,-3.6689,-3.5713,-3.546,-3.4262,-3.3393,-3.3393,-3.3393,-3.3393,-3.3393,-3.3393,-3.3382,-3.3322,-3.3229,-3.3119,-3.3026,-3.2238,-3.1655,-3.135,-3.0065,-2.928,-2.9034,-2.8509,-2.8223,-2.8196,-2.8223,-2.8223,-2.8196,-2.8196,-2.8196,-2.8196,-2.8196,-2.8196,-2.8196,-2.8196,-2.8196,-2.8196,-2.8196,-2.8196,-2.8196,-2.8196,-2.8196,-2.8196,-2.8196,-2.8196,-2.8196,-2.8196,-2.725,-2.6068,-2.5604,-2.47,-2.3808,-2.3577,-2.3505,-2.3505,-2.3505,-2.3505,-2.3505,-2.3505,-2.3453,-2.3436,-2.3436,-2.3839,-2.4277,-2.4507,-2.5625,-2.6584,-2.6814,-2.7579,-2.8168,-2.8168,-2.8286,-2.8432,-2.8562,-2.8737,-2.8929,-2.91,-2.9229,-2.9334,-2.9396,-2.9396,-2.9396,-2.9396,-2.9396,-2.9396,-2.9396,-2.9396,-2.9396,-2.9396,-2.9396,-2.9376,-2.9334,-2.9312,-2.9291,-2.9229,-2.9163,-2.9123,-2.9141,-2.9085,-2.8893,-2.8549,-2.7999,-2.8045,-2.842,-2.7808,-2.8003,-2.865,-2.8536,-2.8445,-2.8367,-3.8209,-3.8209,-3.8209,-3.8209,-3.8209,-3.8209,-3.8209,-3.7105,-3.6164,-3.584,-3.4679,-3.3755,-3.3429,-3.3393,-3.3393,-3.3393,-3.3393,-3.3367,-3.3292,-3.3165,-3.3055,-3.2995,-3.2514,-3.2072,-3.1706,-3.0779,-3.0011,-2.9405,-2.8909,-2.8517,-2.8196,-2.8196,-2.8196,-2.8196,-2.8196,-2.8196,-2.8196,-2.8196,-2.8196,-2.8196,-2.8196,-2.8196,-2.8196,-2.8196,-2.8196,-2.8196,-2.8196,-2.8196,-2.8196,-2.8196,-2.8196,-2.8142,-2.7821,-2.7067,-2.6157,-2.5551,-2.47,-2.3915,-2.3594,-2.3505,-2.3505,-2.3505,-2.3505,-2.3505,-2.3505,-2.3459,-2.3484,-2.3803,-2.4211,-2.4688,-2.5308,-2.6162,-2.6906,-2.7207,-2.7737,-2.8099,-2.8099,-2.8205,-2.8353,-2.8479,-2.8637,-2.881,-2.9051,-2.913,-2.9218,-2.9355,-2.9365,-2.9365,-2.9365,-2.9344,-2.9315,-2.9315,-2.9315,-2.9315,-2.9315,-2.9315,-2.9304,-2.9302,-2.9259,-2.9197,-2.9163,-2.9055,-2.9021,-2.901,-2.894,-2.8893,-2.8821,-2.8304,-2.8336,-2.8658,-2.8087,-2.8121,-2.8471,-2.8327,-2.8264,-2.8191,-3.8209,-3.8209,-3.8209,-3.8209,-3.8209,-3.8209,-3.8209,-3.752,-3.6741,-3.5985,-3.5206,-3.4443,-3.3701,-3.361,-3.361,-3.361,-3.3541,-3.3475,-3.3385,-3.3186,-3.3055,-3.2979,-3.2932,-3.2561,-3.1813,-3.1742,-3.1011,-2.9619,-2.953,-2.9101,-2.8303,-2.8303,-2.8267,-2.8196,-2.8196,-2.8196,-2.8196,-2.8196,-2.8196,-2.8196,-2.8196,-2.8196,-2.8196,-2.8196,-2.8196,-2.8196,-2.8196,-2.8196,-2.8196,-2.8196,-2.8196,-2.8071,-2.7335,-2.7063,-2.671,-2.5319,-2.4819,-2.4534,-2.3808,-2.3559,-2.3505,-2.3505,-2.3494,-2.3494,-2.3494,-2.3483,-2.3703,-2.4425,-2.4642,-2.5123,-2.6507,-2.6825,-2.7122,-2.7862,-2.8025,-2.8085,-2.8085,-2.8191,-2.834,-2.8466,-2.8549,-2.8687,-2.8959,-2.8994,-2.9085,-2.928,-2.9291,-2.9291,-2.9291,-2.9218,-2.9178,-2.9178,-2.9178,-2.9178,-2.9178,-2.9167,-2.9218,-2.9291,-2.9152,-2.9096,-2.9085,-2.8952,-2.8893,-2.8893,-2.8822,-2.8785,-2.8761,-2.8694,-2.8619,-2.8562,-2.8437,-2.8291,-2.8166,-2.802,-2.7911,-2.783,-3.8209,-3.8209,-3.8209,-3.8209,-3.8209,-3.8209,-3.8209,-3.752,-3.6941,-3.6759,-3.6037,-3.546,-3.5297,-3.5279,-3.5279,-3.5279,-3.4672,-3.4215,-3.4085,-3.3432,-3.2995,-3.2916,-3.2916,-3.2829,-3.2632,-3.2025,-3.1528,-3.1189,-3.0582,-2.9886,-2.9137,-2.9137,-2.8802,-2.8196,-2.8196,-2.8196,-2.8196,-2.8196,-2.8196,-2.8196,-2.8196,-2.8196,-2.8196,-2.8196,-2.8196,-2.8196,-2.8196,-2.8196,-2.8196,-2.8196,-2.8196,-2.8178,-2.7999,-2.7513,-2.6938,-2.6603,-2.564,-2.4659,-2.4498,-2.3969,-2.3505,-2.3505,-2.3471,-2.3407,-2.3407,-2.3851,-2.4298,-2.4426,-2.5354,-2.6251,-2.6585,-2.7112,-2.7566,-2.7742,-2.7871,-2.7961,-2.8014,-2.8081,-2.8178,-2.8327,-2.8458,-2.86,-2.8761,-2.8952,-2.913,-2.92,-2.9156,-2.9152,-2.9152,-2.9085,-2.9051,-2.9051,-2.9051,-2.9051,-2.9051,-2.8987,-2.9021,-2.9152,-2.9062,-2.8987,-2.894,-2.8858,-2.8798,-2.8743,-2.8737,-2.8657,-2.8556,-2.8497,-2.8432,-2.8353,-2.8223,-2.7776,-2.7179,-2.6992,-2.6521,-2.5952,-3.8209,-3.8209,-3.8209,-3.8209,-3.8209,-3.8209,-3.8209,-3.7846,-3.743,-3.7049,-3.6616,-3.6236,-3.584,-3.5804,-3.5804,-3.5804,-3.5309,-3.4814,-3.4323,-3.3831,-3.3375,-3.2918,-3.29,-3.29,-3.29,-3.2489,-3.2079,-3.1689,-3.1278,-3.0689,-2.9922,-2.9565,-2.9191,-2.8748,-2.8374,-2.8196,-2.8196,-2.8196,-2.8196,-2.8196,-2.8196,-2.8196,-2.8196,-2.8196,-2.8196,-2.8196,-2.8196,-2.8196,-2.8196,-2.8196,-2.8196,-2.8196,-2.8196,-2.791,-2.7496,-2.7103,-2.6399,-2.5666,-2.5275,-2.4858,-2.4502,-2.4502,-2.4477,-2.4371,-2.4052,-2.4222,-2.4643,-2.535,-2.6092,-2.6704,-2.7069,-2.7438,-2.7701,-2.7701,-2.781,-2.7903,-2.7961,-2.8028,-2.814,-2.825,-2.834,-2.8471,-2.8582,-2.8779,-2.891,-2.8957,-2.894,-2.8917,-2.8917,-2.8846,-2.8798,-2.8798,-2.8798,-2.8798,-2.8798,-2.8773,-2.8798,-2.8858,-2.8858,-2.8846,-2.8791,-2.8694,-2.8625,-2.8562,-2.8518,-2.8453,-2.8349,-2.8286,-2.825,-2.8178,-2.7996,-2.743,-2.6741,-2.6563,-2.5974,-2.5237,-3.8227,-3.8209,-3.8209,-3.8209,-3.8209,-3.8209,-3.8209,-3.8209,-3.7955,-3.7285,-3.7212,-3.6959,-3.629,-3.6218,-3.6218,-3.6218,-3.5943,-3.5483,-3.4754,-3.4496,-3.3984,-3.3132,-3.3114,-3.3043,-3.29,-3.29,-3.2579,-3.1903,-3.1903,-3.1492,-3.0689,-3.0083,-2.9654,-2.9369,-2.8695,-2.8338,-2.8196,-2.8196,-2.8196,-2.8196,-2.8196,-2.8196,-2.8196,-2.8196,-2.8196,-2.8196,-2.8196,-2.8196,-2.8196,-2.8196,-2.8196,-2.8196,-2.8196,-2.8196,-2.8071,-2.7393,-2.7055,-2.6752,-2.6069,-2.5751,-2.5605,-2.5605,-2.5592,-2.5464,-2.5063,-2.4863,-2.5156,-2.6433,-2.6746,-2.6981,-2.7596,-2.7701,-2.7701,-2.7701,-2.7795,-2.7874,-2.7888,-2.8003,-2.8085,-2.8154,-2.8237,-2.8327,-2.844,-2.8569,-2.8632,-2.8644,-2.8632,-2.8632,-2.8632,-2.8574,-2.8536,-2.8536,-2.8536,-2.8536,-2.8536,-2.865,-2.8722,-2.8722,-2.8755,-2.8734,-2.8632,-2.8518,-2.8419,-2.8358,-2.8286,-2.8232,-2.8164,-2.8067,-2.8025,-2.8011,-2.7745,-2.7128,-2.6304,-2.5935,-2.533,-2.4687,-3.8354,-3.8209,-3.8209,-3.8209,-3.8209,-3.8209,-3.8209,-3.8209,-3.8172,-3.8064,-3.8046,-3.8009,-3.7901,-3.7883,-3.7883,-3.7883,-3.7065,-3.6496,-3.6372,-3.5538,-3.4722,-3.3972,-3.3937,-3.3616,-3.2918,-3.29,-3.2846,-3.2739,-3.2739,-3.2329,-3.1528,-3.1439,-3.0672,-2.9405,-2.9298,-2.8838,-2.8196,-2.8196,-2.8196,-2.8196,-2.8196,-2.8196,-2.8196,-2.8196,-2.8196,-2.8196,-2.8196,-2.8196,-2.8196,-2.8196,-2.8196,-2.8196,-2.8196,-2.8196,-2.8164,-2.8002,-2.7459,-2.6863,-2.6703,-2.6131,-2.5605,-2.5605,-2.5566,-2.5667,-2.6267,-2.6394,-2.6419,-2.6574,-2.7104,-2.7578,-2.7683,-2.7701,-2.7701,-2.7701,-2.7716,-2.7763,-2.7874,-2.7935,-2.7961,-2.8028,-2.8085,-2.8178,-2.8313,-2.8353,-2.8375,-2.844,-2.8375,-2.8349,-2.8349,-2.8282,-2.8242,-2.8242,-2.8242,-2.8242,-2.8242,-2.8889,-2.9215,-2.9197,-2.9162,-2.8889,-2.8432,-2.8367,-2.8259,-2.814,-2.814,-2.8099,-2.8011,-2.7836,-2.7745,-2.773,-2.7585,-2.6653,-2.5223,-2.3809,-2.3175,-2.3018,-3.9007,-3.8862,-3.8734,-3.8281,-3.8209,-3.8209,-3.8209,-3.8209,-3.8209,-3.8209,-3.8122,-3.8088,-3.8088,-3.8088,-3.8088,-3.8088,-3.7662,-3.7145,-3.668,-3.6148,-3.5525,-3.4757,-3.4705,-3.4561,-3.4187,-3.4169,-3.3972,-3.3562,-3.3114,-3.2721,-3.2364,-3.1903,-3.1332,-3.0672,-3.0208,-2.9601,-2.8873,-2.8873,-2.8606,-2.8196,-2.8196,-2.8196,-2.8196,-2.8196,-2.8196,-2.8196,-2.8196,-2.8196,-2.8196,-2.8196,-2.8196,-2.8196,-2.8196,-2.8196,-2.82,-2.8112,-2.7822,-2.7514,-2.743,-2.7092,-2.6767,-2.6767,-2.6753,-2.6813,-2.7182,-2.727,-2.7238,-2.721,-2.7473,-2.7701,-2.7701,-2.7701,-2.7701,-2.7701,-2.7701,-2.7716,-2.778,-2.7842,-2.7917,-2.8,-2.8028,-2.8071,-2.8122,-2.8136,-2.815,-2.816,-2.815,-2.8136,-2.8136,-2.8109,-2.8276,-2.8689,-2.8689,-2.8873,-2.9257,-2.9579,-2.9741,-2.9677,-2.9664,-2.9381,-2.8834,-2.8273,-2.7979,-2.7879,-2.7839,-2.778,-2.7721,-2.7615,-2.7585,-2.7569,-2.7483,-2.6484,-2.495,-2.3801,-2.3087,-2.2699]},{"header":{"parameterUnit":"m.s-1","parameterCategory":1,"la1":30.6,"la2":28.766,"lo1":-90.7593,"lo2":-88.6598,"dy":0.0162,"dx":0.0183,"nx":116,"ny":114,"refTime":"2024-02-23T06:00:00:Z","depth":0,"parameterNumber":3,"parameterNumberName":"V-component_of_WINDS"},"data":[0.0,0.0,0.0,0.0,0.0,0.0,0.0,0.0,0.0,0.0,0.0,0.0,0.0,0.0,0.0,0.0,0.0,0.0,0.0,0.0,0.0,0.0,0.0,0.0,0.0,0.0,0.0,0.0,0.0,0.0,0.0,0.0,0.0,0.0,0.0,0.0,0.0,0.0,0.0,0.0,0.0,0.0,0.0,0.0,0.0,0.0,0.0,0.0,0.0,0.0,0.0,0.0,0.0,0.0,0.0,0.0,0.0,0.0,0.0,0.0,0.0,0.0,0.0,0.0,0.0,0.0,0.0,0.0,0.0,0.0,0.0,0.0,0.0,0.0,0.0,0.0,0.0,0.0,0.0,0.0,0.0,0.0,0.0,0.0,0.0,0.0,0.0,0.0,0.0,0.0,0.0,0.0,0.0,0.0,0.0,0.0,0.0,0.0,0.0,0.0,0.0,0.0,0.0,0.0,0.0,0.0,0.0,0.0,0.0,0.0,0.0,0.0,0.0,0.0,0.0,0.0,0.0,0.0,0.0,0.0,0.0,0.0,0.0,0.0,0.0,0.0,0.0,0.0,0.0,0.0,0.0,0.0,0.0,0.0,0.0,0.0,0.0,0.0,0.0,0.0,0.0,0.0,0.0,0.0,0.0,0.0,0.0,0.0,0.0,0.0,0.0,0.0,0.0,0.0,0.0,0.0,0.0,0.0,0.0,0.0,0.0,0.0,0.0,0.0,0.0,0.0,0.0,0.0,0.0,0.0,0.0,0.0,0.0,0.0,0.0,0.0,0.0,0.0,0.0,0.0,0.0,0.0,0.0,0.0,0.0,0.0,0.0,0.0,0.0,0.0,0.0,0.0,0.0,0.0,0.0,0.0,0.0,0.0,0.0,0.0,0.0,0.0,0.0,0.0,0.0,0.0,0.0,0.0,0.0,0.0,0.0,0.0,0.0,0.0,0.0,0.0,0.0,0.0,0.0,0.0,0.0,0.0,0.0,0.0,0.0,0.0,0.0,0.0,0.0,0.0,0.0,0.0,0.0,0.0,0.0,0.0,0.0,0.0,0.0,0.0,0.0,0.0,0.0,0.0,0.0,0.0,0.0,0.0,0.0,0.0,0.0,0.0,0.0,0.0,0.0,0.0,0.0,0.0,0.0,0.0,0.0,0.0,0.0,0.0,0.0,0.0,0.0,0.0,0.0,0.0,0.0,0.0,0.0,0.0,0.0,0.0,0.0,0.0,0.0,0.0,0.0,0.0,0.0,0.0,0.0,0.0,0.0,0.0,0.0,0.0,0.0,0.0,0.0,0.0,0.0,0.0,0.0,0.0,0.0,0.0,0.0,0.0,0.0,0.0,0.0,0.0,0.0,0.0,0.0,0.0,0.0,0.0,0.0,0.0,0.0,0.0,0.0,0.0,0.0,0.0,0.0,0.0,0.0,0.0,0.0,0.0,0.0,0.0,0.0,0.0,0.0,0.0,0.0,0.0,0.0,0.0,0.0,0.0,0.0,0.0,0.0,0.0,0.0,0.0,0.0,0.0,0.0,0.0,0.0,0.0,0.0,0.0,0.0,0.0,0.0,0.0,0.0,0.0,0.0,0.0,0.0,0.0,0.0,0.0,0.0,0.0,0.0,0.0,0.0,0.0,0.0,0.0,0.0,0.0,0.0,0.0,0.0,0.0,0.0,0.0,0.0,0.0,0.0,0.0,0.0,0.0,0.0,0.0,0.0,0.0,0.0,0.0,0.0,0.0,0.0,0.0,0.0,0.0,0.0,0.0,0.0,0.0,0.0,0.0,0.0,0.0,0.0,0.0,0.0,0.0,0.0,0.0,0.0,0.0,0.0,0.0,0.0,0.0,0.0,0.0,0.0,0.0,0.0,0.0,0.0,0.0,0.0,0.0,0.0,0.0,0.0,0.0,0.0,0.0,0.0,0.0,0.0,0.0,0.0,0.0,0.0,0.0,0.0,0.0,0.0,0.0,0.0,0.0,0.0,0.0,0.0,0.0,0.0,0.0,0.0,0.0,0.0,0.0,0.0,0.0,0.0,0.0,0.0,0.0,0.0,0.0,0.0,0.0,0.0,0.0,0.0,0.0,0.0,0.0,0.0,0.0,0.0,0.0,0.0,0.0,0.0,0.0,0.0,0.0,0.0,0.0,0.0,0.0,0.0,0.0,0.0,0.0,0.0,0.0,0.0,0.0,0.0,0.0,0.0,0.0,0.0,0.0,0.0,0.0,0.0,0.0,0.0,0.0,0.0,0.0,0.0,0.0,0.0,0.0,0.0,0.0,0.0,0.0,0.0,0.0,0.0,0.0,0.0,0.0,0.0,0.0,0.0,0.0,0.0,0.0,0.0,0.0,0.0,0.0,0.0,0.0,0.0,0.0,0.0,0.0,0.0,0.0,0.0,0.0,0.0,0.0,0.0,0.0,0.0,0.0,0.0,0.0,0.0,0.0,0.0,0.0,0.0,0.0,0.0,0.0,0.0,0.0,0.0,0.0,0.0,0.0,0.0,0.0,0.0,0.0,0.0,0.0,0.0,0.0,0.0,0.0,0.0,0.0,0.0,0.0,0.0,0.0,0.0,0.0,0.0,0.0,0.0,0.0,0.0,0.0,0.0,0.0,0.0,0.0,0.0,0.0,0.0,0.0,0.0,0.0,0.0,0.0,0.0,0.0,0.0,0.0,0.0,0.0,0.0,0.0,0.0,0.0,0.0,0.0,0.0,0.0,0.0,0.0,0.0,0.0,0.0,0.0,0.0,0.0,0.0,0.0,0.0,0.0,0.0,0.0,0.0,0.0,0.0,0.0,0.0,0.0,0.0,0.0,0.0,0.0,0.0,0.0,0.0,0.0,0.0,0.0,0.0,0.0,0.0,0.0,0.0,0.0,0.0,0.0,0.0,0.0,0.0,0.0,0.0,0.0,0.0,0.0,0.0,0.0,0.0,0.0,0.0,0.0,0.0,0.0,0.0,0.0,0.0,0.0,0.0,0.0,0.0,0.0,0.0,0.0,0.0,0.0,0.0,0.0,0.0,0.0,0.0,0.0,0.0,0.0,0.0,0.0,0.0,0.0,0.0,0.0,0.0,0.0,0.0,0.0,0.0,0.0,0.0,0.0,0.0,0.0,0.0,0.0,0.0,0.0,0.0,0.0,0.0,0.0,0.0,0.0,0.0,0.0,0.0,0.0,0.0,0.0,0.0,0.0,0.0,0.0,0.0,0.0,0.0,0.0,0.0,0.0,0.0,0.0,0.0,0.0,0.0,0.0,0.0,0.0,0.0,0.0,0.0,0.0,0.0,0.0,0.0,0.0,0.0,0.0,0.0,0.0,0.0,0.0,0.0,0.0,0.0,0.0,0.0,0.0,0.0,0.0,0.0,0.0,0.0,0.0,0.0,0.0,0.0,0.0,0.0,0.0,0.0,0.0,0.0,0.0,0.0,0.0,0.0,0.0,0.0,0.0,0.0,0.0,0.0,0.0,0.0,0.0,0.0,0.0,0.0,0.0,0.0,0.0,0.0,0.0,0.0,0.0,0.0,0.0,0.0,0.0,0.0,0.0,0.0,0.0,0.0,0.0,0.0,0.0,0.0,0.0,0.0,0.0,0.0,0.0,0.0,0.0,0.0,0.0,0.0,0.0,0.0,0.0,0.0,0.0,0.0,0.0,0.0,0.0,0.0,0.0,0.0,0.0,0.0,0.0,0.0,0.0,0.0,0.0,0.0,0.0,0.0,0.0,0.0,0.0,0.0,0.0,0.0,0.0,0.0,0.0,0.0,0.0,0.0,0.0,0.0,0.0,0.0,0.0,0.0,0.0,0.0,0.0,0.0,0.0,0.0,0.0,0.0,0.0,0.0,0.0,0.0,0.0,0.0,0.0,0.0,0.0,0.0,0.0,0.0,0.0,0.0,0.0,0.0,0.0,0.0,0.0,0.0,0.0,0.0,0.0,0.0,0.0,0.0,0.0,0.0,0.0,0.0,0.0,0.0,0.0,0.0,0.0,0.0,0.0,0.0,0.0,0.0,0.0,0.0,0.0,0.0,0.0,0.0,0.0,0.0,0.0,0.0,0.0,0.0,0.0,0.0,0.0,0.0,0.0,0.0,0.0,0.0,0.0,0.0,0.0,0.0,0.0,0.0,0.0,0.0,0.0,0.0,0.0,0.0,0.0,0.0,0.0,0.0,0.0,0.0,0.0,0.0,0.0,0.0,0.0,0.0,0.0,0.0,0.0,0.0,0.0,0.0,0.0,0.0,0.0,0.0,0.0,0.0,0.0,0.0,0.0,0.0,0.0,0.0,0.0,0.0,0.0,0.0,0.0,0.0,0.0,0.0,0.0,0.0,0.0,0.0,0.0,0.0,0.0,0.0,0.0,0.0,0.0,0.0,0.0,0.0,0.0,0.0,0.0,0.0,0.0,0.0,0.0,0.0,0.0,0.0,0.0,0.0,0.0,0.0,0.0,0.0,0.0,0.0,0.0,0.0,0.0,0.0,0.0,0.0,0.0,0.0,0.0,0.0,0.0,0.0,0.0,0.0,0.0,0.0,0.0,0.0,0.0,0.0,0.0,0.0,0.0,0.0,0.0,0.0,0.0,0.0,0.0,0.0,0.0,0.0,0.0,0.0,0.0,0.0,0.0,0.0,0.0,0.0,0.0,0.0,0.0,0.0,0.0,0.0,0.0,0.0,0.0,0.0,0.0,0.0,0.0,0.0,0.0,0.0,0.0,0.0,0.0,0.0,0.0,0.0,0.0,0.0,0.0,0.0,0.0,0.0,0.0,0.0,0.0,0.0,0.0,0.0,0.0,0.0,0.0,0.0,0.0,0.0,0.0,0.0,0.0,0.0,0.0,0.0,0.0,0.0,0.0,0.0,0.0,0.0,0.0,0.0,0.0,0.0,0.0,0.0,0.0,0.0,0.0,0.0,0.0,0.0,0.0,0.0,0.0,0.0,0.0,0.0,0.0,0.0,0.0,0.0,0.0,0.0,0.0,0.0,0.0,0.0,0.0,0.0,0.0,0.0,0.0,0.0,0.0,0.0,0.0,0.0,0.0,0.0,0.0,0.0,0.0,0.0,0.0,0.0,0.0,0.0,0.0,0.0,0.0,0.0,0.0,0.0,0.0,0.0,0.0,0.0,0.0,0.0,0.0,0.0,0.0,0.0,0.0,0.0,0.0,0.0,0.0,0.0,0.0,0.0,0.0,0.0,0.0,0.0,0.0,0.0,0.0,0.0,0.0,0.0,0.0,0.0,0.0,0.0,0.0,0.0,0.0,0.0,0.0,0.0,0.0,0.0,0.0,0.0,0.0,0.0,0.0,0.0,0.0,0.0,0.0,0.0,0.0,0.0,0.0,0.0,0.0,0.0,0.0,0.0,0.0,0.0,0.0,0.0,0.0,0.0,0.0,0.0,0.0,0.0,0.0,0.0,0.0,0.0,0.0,0.0,0.0,0.0,0.0,0.0,0.0,0.0,0.0,0.0,0.0,0.0,0.0,0.0,0.0,0.0,0.0,0.0,0.0,0.0,0.0,0.0,0.0,0.0,0.0,0.0,0.0,0.0,0.0,0.0,0.0,0.0,0.0,0.0,0.0,0.0,0.0,0.0,0.0,0.0,0.0,0.0,0.0,0.0,0.0,0.0,0.0,0.0,0.0,0.0,0.0,0.0,0.0,0.0,0.0,0.0,0.0,0.0,0.0,0.0,0.0,0.0,0.0,0.0,0.0,0.0,0.0,0.0,0.0,0.0,0.0,0.0,0.0,0.0,0.0,0.0,0.0,0.0,0.0,0.0,0.0,0.0,0.0,0.0,0.0,0.0,0.0,0.0,0.0,0.0,0.0,0.0,0.0,0.0,0.0,0.0,0.0,0.0,0.0,0.0,0.0,0.0,0.0,0.0,0.0,0.0,0.0,0.0,0.0,0.0,0.0,0.0,0.0,0.0,0.0,0.0,0.0,0.0,0.0,0.0,0.0,0.0,0.0,0.0,0.0,0.0,0.0,0.0,0.0,0.0,0.0,0.0,0.0,0.0,0.0,0.0,0.0,0.0,0.0,0.0,0.0,0.0,0.0,0.0,0.0,0.0,0.0,0.0,0.0,0.0,0.0,0.6513,0.0,0.0,0.0,0.0,0.0,0.0,0.0,0.0,0.0,0.0,0.0,0.0,0.0,0.0,0.0,0.0,0.0,0.0,0.0,0.0,0.0,0.0,0.0,0.0,0.0,0.0,0.0,0.0628,0.1031,0.1391,0.2017,0.2511,0.2871,0.3181,0.3448,0.3583,0.3805,0.3939,0.3939,0.416,0.4293,0.4249,0.3491,0.2822,0.2241,0.0,0.0,0.0,0.0,0.0,0.0,0.0,0.0,0.0,0.0,0.0,0.0,0.0,0.0,0.0,0.0,0.0,0.0,0.0,0.0,0.0,0.0,0.0,0.0,0.0,0.0,0.0,0.0,0.0,0.0,0.0,0.0,0.0,0.0,0.0,0.0,0.0,0.0,0.0,0.0,0.0,0.0,0.0,0.0,0.0,0.0,0.0,0.0,0.0,0.0,0.0,0.0,0.0,0.0,0.0,0.0,0.0,0.0,0.0,0.0,0.0,0.0,0.0,0.0,0.0,0.0,0.0,0.0,0.0,0.0,0.0,0.7285,0.0,0.0,0.0,0.0,0.0,0.0,0.0,0.0,0.0,0.0,0.0,0.0,0.0,0.0,0.0,0.0,0.0,0.0,0.0,0.0,0.0,0.0,0.0,0.0,0.0485,0.0582,0.1166,0.1705,0.2018,0.2689,0.3315,0.381,0.403,0.4297,0.4612,0.4875,0.5006,0.5048,0.5275,0.5364,0.5364,0.5384,0.4846,0.0,0.0,0.0,0.0,0.0,0.0,0.0,0.0,0.0,0.0,0.0,0.0,0.0,0.0,0.0,0.0,0.0,0.0,0.0,0.0,0.0,0.0,0.0,0.0,0.0,0.0,0.0,0.0,0.0,0.0,0.0,0.0,0.0,0.0,0.0,0.0,0.0,0.0,0.0,0.0,0.0,0.0,0.0,0.0,0.0,0.0,0.0,0.0,0.0,0.0,0.0,0.0,0.0,0.0,0.0,0.0,0.0,0.0,0.0,0.0,0.0,0.0,0.0,0.0,0.0,1.09,1.1168,1.145,1.1293,1.1127,1.0945,0.9731,0.8924,0.8518,0.8037,0.0,0.0,0.0,0.0,0.0,0.0,0.0,0.0,0.0,0.0,0.0,0.0,0.0,0.0,0.0,0.0,0.0,0.0,0.0,0.0,0.0,0.0393,0.0805,0.1256,0.1794,0.2378,0.2959,0.3492,0.4072,0.4788,0.5057,0.5416,0.5861,0.6077,0.6296,0.6511,0.6738,0.683,0.6833,0.7005,0.6815,0.629,0.0,0.0,0.0,0.0,0.0,0.0,0.0,0.0,0.0,0.0,0.0,0.0,0.0,0.0,0.0,0.0,0.0,0.0,0.0,0.0,0.0,0.0,0.0,0.0,0.0,0.0,0.0,0.0,0.0,0.0,0.0,0.0,0.0,0.0,0.0,0.0,0.0,0.0,0.0,0.0,0.0,0.0,0.0,0.0,0.9396,0.9396,0.0,0.0,0.0,0.0,0.0,0.0,0.0,0.0,0.0,0.0,0.0,0.0,0.0,1.094,1.1326,1.1331,1.1576,1.1955,1.2012,1.2038,1.2086,1.206,1.1951,1.1711,1.1552,0.0,0.9895,0.9347,0.0,0.0,0.0,0.0,0.0,0.0,0.0,0.0,0.0,0.0,0.0,0.0,0.0,0.0,0.0,0.0,0.0,0.0,0.0,0.0,0.0,0.0822,0.1284,0.1792,0.2422,0.3048,0.3764,0.4251,0.4919,0.5764,0.5899,0.6254,0.6874,0.7095,0.7445,0.7965,0.8185,0.8372,0.852,0.8599,0.8552,0.8333,0.7469,0.6403,0.5275,0.4861,0.0,0.0,0.0,0.0,0.0,0.0,0.0,0.0,0.0,0.0,0.0,0.0,0.0,0.0,0.0,0.0,0.0,0.0,0.0,0.0,0.0,0.0,0.0,0.0,0.0,0.0,0.0,0.0,0.0,0.0,0.0,0.0,0.0,0.0,0.0,0.0,0.0,0.0,0.0,1.0486,1.048,1.0591,1.0347,1.0197,0.0,0.0,0.0,0.0,0.0,0.0,0.0,0.0,0.0,1.1309,1.1423,1.1617,1.1945,1.2118,1.2318,1.2606,1.278,1.2956,1.3057,1.2947,1.2786,1.2588,1.2478,1.2046,1.1358,1.0555,1.0245,1.0176,0.0,0.0,0.0,0.0,0.8965,0.8871,0.0,0.0,0.0,0.0,0.0,0.0,0.0,0.0,0.0,0.0,0.0,0.0,0.0798,0.1293,0.1852,0.2419,0.3138,0.3898,0.461,0.5142,0.5852,0.6738,0.6871,0.7268,0.7933,0.8285,0.8719,0.9327,0.9497,0.9666,0.9866,0.9921,0.9858,0.9762,0.9388,0.8282,0.6611,0.6078,0.5613,0.0,0.0,0.0,0.0,0.0,0.0,0.0,0.0,0.0,0.0,0.0,0.0,0.0,0.0,0.0,0.0,0.0,0.0,0.0,0.0,0.0,0.0,0.0,0.0,0.0,0.0,0.0,0.0,0.0,0.0,0.0,0.0,0.0,0.0,0.0,0.0,0.0,0.0,1.1738,1.1662,1.1879,1.1533,1.1324,0.0,0.0,0.0,0.0,0.0,0.0,1.1506,1.1751,1.2014,1.2211,1.2366,1.2541,1.2737,1.291,1.3133,1.3344,1.3527,1.3702,1.3841,1.3635,1.3418,1.3202,1.3048,1.2861,1.2536,1.1567,1.1183,1.1112,1.0668,1.0408,1.0271,1.0124,1.0008,0.9888,0.0,0.0,0.0,0.0,0.0,0.0,0.0,0.0,0.0,0.0,0.0,0.0336,0.1261,0.1835,0.2419,0.3093,0.4032,0.4926,0.5586,0.6293,0.7,0.7716,0.8153,0.8636,0.9213,0.9864,1.0289,1.0506,1.0506,1.0554,1.0569,1.0746,1.0647,1.0246,1.0164,0.9386,0.8068,0.759,0.6954,0.6224,0.0,0.0,0.0,0.0,0.0,0.0,0.0,0.0,0.0,0.0,0.0,0.0,0.0,0.0,0.0,0.0,0.0,0.0,0.0,0.0,0.0,0.0,0.0,0.0,0.0,0.0,0.0,0.0,0.0,0.0,0.0,0.0,0.0,0.0,0.0,0.0,0.0,0.0,0.0,1.2898,1.2476,0.0,0.0,0.0,0.0,1.1874,1.2191,1.258,1.2906,1.3253,1.3601,1.3895,1.391,1.4016,1.4169,1.4232,1.4348,1.4515,1.4353,1.4258,1.4258,1.3984,1.3758,1.3598,1.3583,1.3462,1.3207,1.2318,1.1932,1.1914,1.1456,1.1216,1.1164,1.0796,1.0652,1.0622,0.0,0.0,0.0,0.0,0.0,0.0,0.0,0.0,-0.1459,-0.0521,0.0248,0.1016,0.1843,0.2468,0.3183,0.4078,0.4877,0.5722,0.6564,0.7268,0.8061,0.8903,0.9248,0.9767,1.0549,1.1413,1.1886,1.1972,1.2229,1.2482,1.2604,1.2522,1.2426,1.2277,1.1804,1.1143,1.0314,0.8966,0.807,0.7487,0.7297,0.0,0.0,0.0,0.0,0.0,0.0,0.0,0.0,0.0,0.0,0.0,0.0,0.0,0.0,0.0,0.0,0.0,0.0,0.0,0.0,0.0,0.0,0.0,0.0,0.0,0.0,0.0,0.0,0.0,0.0,0.0,0.0,0.0,0.0,0.0,0.0,0.0,0.0,1.4521,1.4242,0.0,1.4006,1.3933,1.3892,1.3892,1.4042,1.4136,1.4303,1.4405,1.4619,1.4819,1.4824,1.4861,1.4877,1.4882,1.485,1.473,1.4646,1.4604,1.4599,1.452,1.4301,1.3921,1.3921,1.3682,1.3261,1.2935,1.2827,1.2817,1.2636,1.252,1.236,1.2019,1.1832,1.1687,0.0,0.0,0.0,0.0,0.0,0.0,0.0,0.0,-0.1345,-0.0325,0.054,0.1401,0.2211,0.2965,0.3851,0.4835,0.5677,0.6561,0.7489,0.8324,0.9161,1.0033,1.0549,1.1235,1.2089,1.282,1.3252,1.3379,1.3682,1.3907,1.4047,1.3911,0.0,0.0,0.0,0.0,0.0,0.0,0.0,0.0,0.0,0.0,0.7847,0.0,0.0,0.0,0.0,0.0,0.0,0.0,0.0,0.0,0.0,0.0,0.0,0.0,0.0,0.0,0.0,0.0,0.0,0.0,0.0,0.0,0.0,0.0,0.0,0.0,0.0,0.0,0.0,0.0,0.0,0.0,0.0,0.0,0.0,0.0,1.5736,1.6001,1.5798,1.562,1.562,1.562,1.562,1.562,1.5642,1.5693,1.5693,1.5772,1.589,1.6048,1.5911,1.5866,1.5803,1.5725,1.5602,1.5389,1.53,1.5255,1.525,1.5172,1.4939,1.4571,1.4571,1.4277,1.3741,1.3741,1.3688,1.3572,1.3276,1.3108,1.2936,1.2643,1.2395,1.2294,0.0,0.0,0.0,0.0,0.0,0.0,0.0,-0.2429,-0.1424,-0.0162,0.0664,0.1487,0.2431,0.3362,0.4338,0.5314,0.6473,0.7536,0.8456,0.9419,1.0246,1.1025,1.2143,1.3082,1.3747,1.4006,1.4349,1.4734,1.4776,1.4776,0.0,0.0,0.0,0.0,0.0,0.0,0.0,0.0,0.0,0.0,0.0,0.0,0.9052,0.0,0.0,0.0,0.0,0.0,0.0,0.0,0.0,0.0,0.0,0.0,0.0,0.0,0.0,0.0,0.0,0.0,0.0,0.0,0.0,0.0,0.0,0.0,0.0,0.0,0.0,0.0,0.0,0.0,0.0,0.0,0.0,0.0,1.6955,1.6842,1.6973,1.7235,1.7042,1.6874,1.6874,1.6874,1.6874,1.6874,1.7067,1.7162,1.7162,1.7398,1.7537,1.7525,1.7219,1.7074,1.7056,1.6746,1.662,1.6608,1.6392,1.626,1.6254,1.6054,1.5779,1.5553,1.5547,1.5194,1.4606,1.4606,1.4453,1.414,1.3346,1.3014,1.2963,1.2481,1.2319,1.2279,0.0,0.0,0.0,0.0,0.0,0.0,0.0,-0.239,-0.1312,-0.029,0.0712,0.1706,0.27,0.379,0.4872,0.5813,0.6962,0.8025,0.9034,0.9898,1.1025,1.24,1.3421,0.0,1.4713,1.5276,1.5699,1.5933,1.6064,0.0,0.0,0.0,0.0,0.0,0.0,0.0,0.0,0.0,0.0,0.0,0.0,0.0,1.0459,0.0,0.0,0.0,0.0,0.0,0.0,0.0,0.0,0.0,0.0,0.0,0.0,0.0,0.0,0.0,0.0,0.0,0.0,0.0,0.0,0.0,0.0,0.0,0.0,0.0,0.0,0.0,0.0,0.0,0.0,0.0,0.0,1.8227,1.7813,1.8278,1.8704,1.8784,1.868,1.8627,1.8627,1.8627,1.8627,1.8627,1.8647,1.8693,1.8693,1.8764,1.8719,1.853,1.8446,1.8143,1.7715,1.7631,1.7549,1.7341,1.7256,1.7217,1.7217,1.7139,1.6839,1.6333,1.617,1.5756,1.514,1.4948,1.4855,1.4695,1.3957,1.3675,1.3586,1.3071,1.2803,1.2655,0.0,0.0,0.0,0.0,0.0,0.0,0.0,-0.2508,-0.1475,-0.0501,0.0588,0.1666,0.263,0.3892,0.5095,0.6124,0.7272,0.842,0.9519,1.0766,1.2015,0.0,0.0,1.495,1.5526,1.6196,1.6648,1.6919,1.7139,0.0,0.0,0.0,0.0,0.0,0.0,0.0,0.0,0.0,0.0,0.0,0.0,0.0,1.1745,1.1614,1.1805,1.2153,1.2294,1.2564,1.2865,1.3047,0.0,0.0,0.0,0.0,0.0,0.0,0.0,0.0,0.0,0.0,0.0,0.0,0.0,0.0,0.0,0.0,0.0,0.0,0.0,0.0,0.0,0.0,0.0,0.0,1.8685,1.9024,1.8996,1.9313,1.9638,1.977,1.9757,1.9737,1.9737,1.9737,1.9737,1.9737,1.9737,1.9737,1.9737,1.9614,1.9421,1.9258,1.9013,1.8707,1.84,1.8217,1.8068,1.795,1.795,1.795,1.7943,1.7932,1.7619,0.0,1.6905,1.6428,1.5855,1.5619,1.5457,0.0,0.0,0.0,0.0,0.0,1.3024,1.2894,0.0,0.0,0.0,0.0,0.0,0.0,0.0,-0.2743,-0.1833,-0.0791,0.0377,0.1408,0.2355,0.3796,0.5095,0.6207,0.7492,0.8767,1.0077,0.0,0.0,1.3695,1.4622,1.5465,1.617,1.6812,1.7375,1.7781,1.7991,0.0,0.0,0.0,0.0,0.0,0.0,0.0,0.0,0.0,0.0,0.0,0.0,0.0,1.2821,1.2624,1.2882,1.3338,1.3368,1.3683,1.4085,1.413,0.0,0.0,0.0,0.0,0.0,0.0,0.0,0.0,0.0,0.0,0.0,0.0,0.0,0.0,0.0,0.0,0.0,0.0,0.0,0.0,0.0,0.0,0.0,0.0,1.9374,2.0046,2.0327,2.0118,2.0076,2.0357,2.0392,2.0392,2.0392,2.0392,2.0392,2.0392,2.0392,2.0371,2.0343,0.0,0.0,0.0,0.0,1.8977,1.8942,1.8668,1.8475,1.8475,1.8527,1.8527,1.8513,1.8474,1.831,1.7992,1.7625,1.7218,1.6684,1.6448,1.6155,1.5804,1.4759,1.4315,1.4187,1.3473,1.3147,1.3065,0.0,0.0,0.0,0.0,0.0,0.0,0.0,-0.2979,-0.206,-0.0977,0.0166,0.1231,0.2136,0.3546,0.4788,0.5764,0.7268,0.9026,0.0,0.0,1.3094,1.3997,1.4866,1.5733,1.6574,1.7253,1.7821,1.8273,0.0,0.0,0.0,0.0,0.0,0.0,0.0,0.0,0.0,0.0,0.0,0.0,0.0,0.0,1.3286,1.3461,1.3717,1.4024,1.4295,1.4766,1.52,1.5428,1.5729,1.6022,1.6226,0.0,0.0,0.0,0.0,0.0,0.0,0.0,0.0,0.0,0.0,0.0,0.0,0.0,0.0,0.0,0.0,0.0,0.0,0.0,0.0,1.9918,2.0473,2.087,2.065,2.0777,2.0959,2.1024,2.1031,2.1031,2.1031,2.1031,2.1031,2.1031,2.1031,2.0915,2.0654,2.0581,2.0313,1.9798,1.966,1.9478,1.921,1.9152,1.9116,1.9116,0.0,0.0,1.9457,1.9394,1.9152,1.8825,1.8301,1.7831,1.7482,1.7192,1.6819,1.6353,1.536,1.4563,1.3978,1.3781,1.3624,1.3355,0.0,0.0,0.0,0.0,0.0,0.0,0.0,-0.337,-0.241,-0.1376,-0.0249,0.0844,0.1835,0.3092,0.4274,0.5413,0.7355,0.9196,0.0,1.1757,1.279,1.3695,1.4566,1.5484,1.6368,1.7139,1.7749,1.8201,0.0,0.0,0.0,0.0,0.0,0.0,0.0,0.0,0.0,0.0,0.0,0.0,0.0,0.0,1.3903,1.3981,1.4231,1.4649,1.5079,1.552,1.5934,1.6504,1.6793,1.7049,1.7463,1.7744,1.7834,0.0,0.0,0.0,0.0,0.0,0.0,0.0,0.0,0.0,0.0,0.0,0.0,0.0,0.0,2.0948,2.053,0.0,2.1121,2.0784,2.0958,2.1115,2.0947,2.1108,2.1211,2.1211,2.1211,2.1211,2.1211,2.1211,2.1211,2.1211,2.1057,2.0896,2.0728,2.042,2.0091,1.983,1.9661,1.9492,1.9279,1.9279,1.9279,1.9279,1.9576,1.959,1.9469,1.9498,1.9359,1.8964,1.8546,1.8262,1.8055,1.7807,1.7473,1.7106,1.6433,1.5575,1.4621,1.4526,1.4244,1.3813,0.0,0.0,0.0,0.0,0.0,0.0,0.0,-0.368,-0.28,-0.177,-0.07,0.0376,0.1378,0.2512,0.38,0.5327,0.7364,0.0,0.0,1.1192,1.2252,1.3297,1.4191,1.5106,1.611,1.6956,1.7581,1.7989,0.0,0.0,0.0,0.0,0.0,0.0,0.0,0.0,0.0,0.0,0.0,0.0,0.0,0.0,1.4453,1.4298,1.4585,1.5061,1.5591,1.6062,1.6484,1.7296,1.7659,1.7899,1.8464,1.876,1.8869,1.8916,1.937,0.0,0.0,0.0,0.0,0.0,0.0,0.0,0.0,0.0,2.2048,2.1641,2.2096,2.2298,2.1425,2.1791,2.2047,2.14,2.1331,2.1305,2.1231,2.1211,2.1211,2.1211,2.1211,2.1211,2.1211,2.1211,2.1181,2.1123,2.0874,2.0669,2.0545,2.004,1.9786,1.972,1.9463,1.9279,1.9279,1.9279,1.9279,1.9279,1.9628,1.9611,1.928,1.9494,1.9388,1.8988,1.8715,1.8574,1.8527,1.8326,1.8094,1.7822,1.7621,1.681,1.5717,1.5384,1.4877,1.4296,0.0,0.0,0.0,0.0,0.0,0.0,0.0,0.0,-0.3018,-0.2006,-0.1086,-0.0163,0.0694,0.1833,0.3438,0.5738,0.0,0.0,0.957,1.0587,1.1722,1.3086,1.4052,1.5085,1.6243,1.6881,1.7459,1.7921,0.0,0.0,0.0,0.0,0.0,0.0,0.0,0.0,0.0,0.0,0.0,0.0,0.0,0.0,1.465,1.4522,1.4705,1.505,1.5626,1.6304,1.6994,1.7561,1.8249,1.8935,1.9455,1.9758,1.9894,2.013,0.0,2.0564,2.0564,2.0934,2.1392,2.1833,2.1932,2.2121,0.0,0.0,2.322,2.3218,2.3566,2.3642,2.2736,2.2905,2.281,2.1708,2.18,2.1786,2.1261,2.1211,2.1211,2.1211,2.1211,2.1211,2.1211,2.1211,2.1086,2.0801,2.0742,2.0472,1.9955,1.9859,1.9683,1.9397,1.9294,1.9279,1.9279,1.9279,1.9279,1.9331,1.9828,1.9867,1.9547,1.9732,1.9685,1.9304,1.894,1.8781,1.8781,1.8735,1.8604,1.8435,1.8388,1.7854,1.6998,1.6062,1.5282,1.4598,0.0,0.0,0.0,0.0,0.0,0.0,0.0,0.0,0.0,-0.2549,-0.1682,-0.0768,0.02,0.1668,0.32,0.0,0.0,0.0,0.8305,0.9366,1.0591,1.1971,1.2997,1.4058,1.5243,1.6009,1.6598,1.6886,1.7191,0.0,0.0,0.0,0.0,0.0,0.0,0.0,0.0,0.0,0.0,0.0,0.0,0.0,1.4496,1.4343,1.4449,1.4787,1.5487,1.6029,0.0,0.0,1.828,1.8901,1.956,1.9883,2.0,2.0135,2.0279,0.0,2.0827,2.1238,0.0,0.0,2.2508,2.2726,2.3371,2.3709,2.3838,2.3546,2.3843,2.3937,2.3228,2.3096,2.2847,0.0,2.1854,2.1717,2.1268,2.1211,2.1211,2.1211,2.1211,2.1211,2.1211,2.1035,2.0867,2.0735,2.0377,2.0047,1.983,1.9639,1.9418,1.9279,1.9279,1.9279,1.9279,1.9279,1.9177,1.9045,1.9549,1.9529,1.901,1.9453,1.9391,1.9042,1.8853,1.8781,1.8781,1.8781,1.8735,1.8651,1.8574,1.8187,1.766,1.6824,1.5832,1.4837,0.0,0.0,0.0,0.0,0.0,0.0,0.0,0.0,0.0,0.0,-0.2308,-0.1359,-0.0197,0.1282,0.2582,0.0,0.0,0.0,0.0,0.8006,0.927,1.0766,1.1865,0.0,1.4138,1.496,1.559,1.5942,1.6198,0.0,0.0,0.0,0.0,0.0,0.0,0.0,0.0,0.0,0.0,0.0,0.0,0.0,1.4168,1.3981,1.4045,1.4392,1.5251,1.5816,0.0,0.0,1.8116,1.8697,1.948,1.9822,1.9966,2.0087,2.0275,2.0537,2.0991,0.0,0.0,2.2702,2.2857,2.2971,2.3673,2.396,2.3941,2.3478,2.3675,2.3753,2.3094,2.2821,2.2505,2.1834,2.156,2.1335,2.0996,2.094,2.094,2.094,2.094,2.094,2.094,2.0808,2.0647,2.0472,2.0025,1.9779,1.9683,1.9403,1.9279,1.9279,1.9279,1.9287,1.914,1.914,1.8979,1.8657,1.9217,1.9163,1.859,1.9028,1.9082,1.8781,1.8781,1.8781,1.8781,1.8781,1.8781,1.8781,1.8658,1.8373,1.8032,1.7245,1.6227,1.51,0.0,0.0,0.0,0.0,0.0,0.0,0.0,0.0,0.0,0.0,0.0,0.0,0.0,0.0,0.0,0.0,0.0,0.0,0.0,0.6634,0.7897,0.9597,1.0793,1.2026,1.3199,1.3857,1.456,1.5325,1.5185,1.526,0.0,0.0,0.0,0.0,0.0,0.0,0.0,0.0,0.0,0.0,0.0,0.0,1.371,1.3493,1.3532,1.3867,1.4847,0.0,0.0,0.0,1.7882,1.8619,1.9316,1.9658,0.0,2.0371,2.0753,0.0,0.0,0.0,2.1888,2.2702,2.2715,2.2733,2.3615,2.3657,2.3427,2.3169,2.3207,2.3045,2.2188,2.2035,2.1773,2.0867,2.0758,2.0595,2.0267,2.0212,2.0212,2.0212,2.0212,2.0212,0.0,2.0545,2.0464,1.9889,1.983,1.9676,1.9308,1.9331,1.9279,1.9279,1.9279,1.9125,1.8803,1.8803,1.8642,1.8313,1.8863,1.8934,1.8583,1.8761,1.8789,1.8781,1.8781,1.8781,1.8781,1.8781,1.8781,1.8781,1.8781,1.8504,1.8002,1.7211,1.6254,1.527,0.0,0.0,0.0,0.0,0.0,0.0,0.0,0.0,0.0,0.0,0.0,0.0,0.0,0.0,0.0,0.0,0.0,0.0,0.0,0.5181,0.6388,0.788,0.8985,1.0067,1.125,1.2001,1.2647,1.325,1.3474,1.3703,0.0,0.0,0.0,0.0,0.0,0.0,0.0,0.0,0.0,0.0,0.0,0.0,1.2825,1.2741,1.2966,1.3362,0.0,0.0,0.0,0.0,1.6531,1.7181,1.7914,0.0,0.0,1.9551,2.0191,2.0671,0.0,0.0,2.1663,2.2272,2.2224,2.2188,2.2813,2.2937,2.285,2.2426,2.24,2.228,2.1804,2.1426,2.1047,2.0728,2.051,2.0347,2.0237,2.0183,2.0183,2.0183,2.0183,0.0,0.0,0.0,0.0,1.983,1.9617,1.9448,1.9331,1.9279,1.9279,1.9279,1.9279,1.9118,1.8789,1.8789,1.8625,1.8234,1.8544,1.8707,1.8722,1.879,1.8781,1.8781,1.8781,1.8781,1.8781,1.8781,1.8781,1.8781,1.8781,1.8604,1.8241,1.7393,1.6562,1.5667,0.0,0.0,0.0,0.0,0.0,0.0,0.0,0.0,0.0,0.0,0.0,0.0,0.0,0.0,0.0,0.0,0.0,0.0,0.0,0.0,0.4898,0.6136,0.7225,0.8257,0.9288,1.0145,1.0828,1.1431,1.1747,1.2067,1.2387,0.0,0.0,0.0,0.0,0.0,0.0,0.0,0.0,0.0,0.0,0.0,1.1886,1.1882,1.2235,0.0,0.0,0.0,0.0,0.0,0.0,1.6114,1.6996,1.7787,1.8494,1.8951,1.9543,2.0087,2.0072,2.0506,2.1096,2.1731,2.1587,2.1418,2.179,2.177,2.1591,2.1124,2.1,2.0906,2.0585,2.0317,2.0143,2.0037,1.9927,1.9894,1.9894,1.9894,1.9894,1.9894,1.9894,1.9813,0.0,0.0,0.0,1.9639,1.9448,1.9279,1.9279,1.9279,1.9279,1.9279,1.9162,1.8942,1.8621,1.8503,1.837,1.8178,1.8396,1.8612,1.8781,1.8781,1.8781,1.8781,1.8781,1.8781,1.8781,1.8781,1.8781,1.8781,1.8781,1.8697,1.838,1.7402,1.6639,1.5874,0.0,0.0,0.0,0.0,0.0,0.0,0.0,0.0,0.0,0.0,0.0,0.0,0.0,0.0,0.0,0.0,0.0,0.0,0.0,0.0,0.0,0.4469,0.5644,0.6615,0.7329,0.826,0.909,0.9835,1.0029,1.0403,1.0905,1.0966,0.0,0.0,0.0,0.0,0.0,0.0,0.0,1.0864,1.06,0.0,1.09,1.0896,0.0,0.0,0.0,0.0,0.0,0.0,0.0,0.0,0.0,1.7573,1.8402,1.8612,1.8966,1.9357,1.9662,1.9887,2.0235,2.1055,2.0857,2.0473,2.0641,2.0249,1.9771,1.9527,1.9241,1.8996,0.0,0.0,1.9085,1.884,1.9067,1.9279,1.9279,1.9279,1.9279,0.0,0.0,0.0,0.0,0.0,0.0,1.9279,0.0,1.9279,1.9279,1.9279,1.9279,1.9279,1.8957,1.8628,1.8306,1.7962,1.7918,1.8087,1.8381,1.8612,1.8781,1.8781,1.8781,1.8781,1.8781,1.8781,1.8781,1.8781,1.8781,1.8781,1.8781,1.8697,1.8395,1.7257,1.6507,1.5963,0.0,0.0,0.0,0.0,0.0,0.0,0.0,0.0,0.0,0.0,0.0,0.0,0.0,0.0,0.0,0.0,0.0,0.0,0.0,0.0,0.0,0.0,0.0,0.0,0.0,0.0,0.0,0.0,0.0,0.8322,0.8641,0.9187,0.9579,0.0,0.0,0.0,0.0,0.9545,0.9376,0.9431,0.0,0.9219,0.9442,0.0,0.0,0.0,0.0,0.0,0.0,0.0,0.0,0.0,0.0,1.7206,1.7716,1.808,1.8469,1.8799,1.8982,1.9314,1.9728,2.0251,2.0013,1.9677,2.0023,1.9673,1.9241,1.8939,1.8833,1.8742,0.0,0.0,0.0,1.8789,1.9067,0.0,1.9279,1.9279,0.0,1.9279,0.0,1.9279,1.9279,1.9279,0.0,0.0,1.9279,1.9279,1.9279,1.9279,1.9279,1.9279,1.8957,1.8628,1.8306,1.8125,1.803,1.8087,1.8504,1.8735,1.8781,1.8781,1.8781,1.8781,1.8781,1.8781,1.8781,1.8781,1.8781,1.8781,1.8781,1.8781,1.861,1.7457,1.6859,1.6389,0.0,0.0,0.0,0.0,0.0,0.0,0.0,0.0,0.0,0.0,0.0,0.0,0.0,0.0,0.0,0.0,0.0,0.0,0.0,0.0,0.0,0.0,0.0,0.0,0.0,0.0,0.0,0.0,0.0,0.0,0.0,0.7249,0.7608,0.784,0.7931,0.8071,0.8159,0.0,0.0,0.0,0.0,0.0,0.0,0.0,0.0,0.0,0.0,0.0,0.0,0.0,0.0,1.512,1.5959,1.6492,1.6902,1.7302,0.0,1.7838,1.8247,1.8447,1.8641,1.9263,1.9067,1.88,1.8892,1.8707,1.8411,1.8156,1.8108,0.0,0.0,0.0,0.0,0.0,0.0,0.0,1.9279,1.9279,1.9279,0.0,1.9279,0.0,1.9279,1.9279,1.9213,0.0,1.9199,1.9279,1.9279,1.914,1.906,1.906,1.8606,1.8203,1.7874,1.7901,1.7994,1.8087,1.8512,1.8697,1.8781,1.8781,1.8781,1.8781,0.0,1.8781,1.8781,1.8781,1.8781,1.8781,1.8781,1.8732,1.848,1.7588,1.6995,1.6408,0.0,0.0,0.0,0.0,0.0,0.0,0.0,0.0,0.0,0.0,0.0,0.0,0.0,0.0,0.0,0.0,0.0,0.0,0.0,0.0,0.0,0.0,0.0,0.0,0.0,0.0,0.0,0.0,0.0,0.0,0.0,0.0,0.0,0.0,0.0,0.0,0.0,0.0,0.0,0.0,0.0,0.0,0.0,0.0,0.0,0.0,0.0,0.0,0.0,0.0,1.3094,1.4301,1.5106,1.5591,1.6004,1.6443,1.6598,1.6778,1.751,1.7592,1.7603,1.8294,1.8187,1.7933,1.7701,1.7578,1.7463,1.7306,0.0,1.7274,1.7271,0.0,1.8255,1.8291,0.0,1.9228,1.9264,1.9279,1.9279,1.9279,1.9279,1.9257,1.9213,1.9213,1.9074,1.8752,1.8986,1.9147,1.9147,1.8877,1.8701,1.8657,1.8108,1.7655,1.7286,1.7574,1.7815,1.8087,1.8381,1.8612,1.8781,1.8781,1.8781,1.8781,1.8781,0.0,1.8781,1.8781,1.8781,1.8781,1.8726,1.8565,1.8211,1.7647,1.6972,1.6197,0.0,0.0,0.0,0.0,0.0,0.0,0.0,0.0,0.0,0.0,0.0,0.0,0.0,0.0,0.0,0.0,0.0,0.0,0.0,0.0,0.0,0.0,0.0,0.0,0.0,0.0,0.0,0.0,0.0,0.0,0.0,0.0,0.0,0.0,0.0,0.0,0.0,0.0,0.0,0.0,0.0,0.0,0.0,0.0,0.0,0.0,0.0,0.0,0.0,0.0,1.2285,1.3701,1.4358,1.4733,1.5068,1.5692,1.6053,1.6397,1.7052,1.7411,1.7673,1.808,1.7743,1.7356,1.731,1.6959,0.0,0.0,0.0,1.7018,1.7282,1.764,0.0,1.8255,0.0,0.0,0.0,0.0,1.9279,0.0,0.0,0.0,0.0,0.0,0.0,0.0,0.0,1.8474,1.8474,1.8416,1.8262,1.7991,1.7874,1.7655,1.7286,1.7574,1.7815,1.8087,1.8381,1.8612,1.8781,1.8781,1.8781,1.8781,1.8781,0.0,1.8781,1.8781,1.8781,1.875,1.8502,1.8351,1.8179,1.7321,1.6807,1.6417,0.0,0.0,0.0,0.0,0.0,0.0,0.0,0.0,0.0,0.0,-0.7463,-0.7339,0.0,0.0,0.0,0.0,0.0,0.0,0.0,0.0,0.0,0.0,0.0,0.0,0.0,0.0,0.0,0.0,0.0,0.0,0.0,0.0,0.0,0.0,0.0,0.0,0.0,0.0,0.0,0.0,0.0,0.0,0.0,0.0,0.0,0.0,0.0,0.0,0.0,0.0,1.1081,1.2143,1.3294,1.3851,1.4153,1.4817,1.5248,1.5605,1.6191,1.6698,1.712,1.7453,1.7283,1.7039,1.7039,0.0,0.0,0.0,0.0,1.6947,1.7055,0.0,0.0,0.0,0.0,0.0,0.0,0.0,0.0,0.0,0.0,0.0,0.0,0.0,0.0,0.0,0.0,1.8123,1.8291,1.8138,1.7904,1.7574,1.756,1.7439,1.7279,1.7426,1.7714,1.8087,1.8234,1.8465,1.8781,1.8781,1.8781,1.8781,1.8781,0.0,1.8781,1.8781,1.8781,1.8796,1.8438,1.8184,1.7962,1.7325,1.6857,1.6419,0.0,0.0,0.0,0.0,0.0,0.0,0.0,-0.7446,-0.7475,-0.7624,-0.777,-0.7717,-0.741,-0.7323,0.0,0.0,0.0,0.0,0.0,0.0,0.0,0.0,0.0,0.0,0.0,0.0,0.0,0.0,0.0,0.0,0.0,0.0,0.0,0.0,0.0,0.0,0.0,0.0,0.0,0.0,0.0,0.0,0.0,0.0,0.0,0.0,0.0,0.0,0.0,0.0,0.9899,1.0636,1.1972,1.2747,1.3258,1.3977,1.4444,1.4818,1.5462,1.6035,1.6504,1.6836,1.682,1.6695,1.6667,1.6448,0.0,0.0,1.6573,1.6815,1.6888,0.0,0.0,0.0,0.0,0.0,0.0,0.0,0.0,0.0,0.0,0.0,0.0,0.0,0.0,0.0,0.0,0.0,1.8079,1.7852,1.7589,1.7286,1.7279,1.7279,1.7279,1.7279,1.752,1.7994,1.8087,1.8319,1.8743,1.8781,1.8781,1.8781,1.8781,0.0,0.0,1.8781,1.8781,1.8742,1.8351,1.8017,1.7767,1.731,1.6852,1.6353,0.0,0.0,0.0,0.0,0.0,0.0,0.0,-0.7489,-0.7631,-0.7773,-0.7874,-0.7965,-0.7951,-0.7635,0.0,0.0,0.0,0.0,0.0,0.0,0.0,0.0,0.0,0.0,0.0,0.0,0.0,0.0,0.0,0.0,0.0,0.0,0.0,0.0,0.0,0.0,0.0,0.0,0.0,0.0,0.0,0.0,0.0,0.0,0.0,0.0,0.0,0.0,0.0,0.0,0.0,0.9772,1.0381,1.1284,1.2314,1.3215,0.0,0.0,1.5153,1.5757,1.6282,1.6469,1.6306,1.6087,1.6024,0.0,0.0,1.5899,1.6199,1.6551,1.6844,1.7135,1.7472,0.0,0.0,0.0,0.0,0.0,0.0,0.0,0.0,0.0,0.0,0.0,0.0,0.0,0.0,0.0,1.7374,1.7344,1.7315,1.7279,1.7279,1.7279,1.7279,1.7279,1.7426,1.7721,1.7994,1.8234,1.8527,1.8697,1.8781,1.8781,1.8781,0.0,0.0,1.8781,1.8781,1.8764,1.8081,1.7846,1.7735,1.7024,1.6598,1.6353,0.0,0.0,0.0,0.0,0.0,0.0,0.0,-0.756,-0.7685,-0.787,-0.8082,-0.8177,-0.8177,-0.8076,-0.7802,0.0,0.0,0.0,0.0,0.0,0.0,0.0,0.0,0.0,0.0,0.0,0.0,0.0,0.0,0.0,0.0,0.0,0.0,0.0,0.0,0.0,0.0,0.0,0.0,0.0,0.0,0.0,0.0,0.0,0.0,0.0,0.0,0.0,0.0,0.0,0.0,0.0,0.9864,1.0424,0.0,0.0,1.2877,1.3349,1.4008,1.4617,1.5127,1.5527,1.5578,1.5531,1.5677,0.0,0.0,1.5557,1.5877,1.6191,1.6551,1.6828,1.715,0.0,0.0,0.0,0.0,0.0,0.0,0.0,0.0,0.0,0.0,0.0,0.0,0.0,0.0,0.0,1.7279,1.7279,1.7279,1.7279,1.7279,1.7279,1.7279,1.7279,1.7426,1.7675,1.7947,1.8234,1.8527,1.8697,1.8781,1.8781,1.8781,0.0,0.0,1.8781,1.8781,1.8734,1.8279,1.7962,1.7759,1.7239,1.6879,1.6566,0.0,0.0,0.0,0.0,0.0,0.0,-0.7553,-0.76,-0.7706,-0.7951,-0.8133,-0.8218,-0.8316,-0.8323,-0.8177,-0.7818,0.0,0.0,0.0,0.0,0.0,0.0,0.0,0.0,0.0,0.0,0.0,0.0,0.0,0.0,0.0,0.0,0.0,0.0,0.0,0.0,0.0,0.0,0.0,0.0,0.0,0.0,0.0,0.0,0.0,0.0,0.0,0.0,0.0,0.0,0.0,0.0,0.0,0.0,0.0,0.0,1.198,1.2397,1.3009,1.3659,1.4218,1.4627,1.4889,1.5052,0.0,0.0,1.534,1.5389,1.5687,1.6009,1.6353,1.6683,1.7005,0.0,0.0,0.0,0.0,0.0,0.0,0.0,0.0,0.0,0.0,0.0,0.0,0.0,0.0,0.0,1.7194,1.7274,1.7279,1.7279,1.7279,1.7279,1.7279,1.7279,1.738,1.7581,1.7947,1.8187,1.8381,1.8651,1.8781,1.8781,1.8781,0.0,0.0,1.8781,1.8781,1.8796,1.8438,1.8081,1.7775,1.7397,1.7048,1.6648,0.0,0.0,0.0,0.0,0.0,0.0,0.0,-0.76,-0.7706,-0.7951,-0.7992,-0.8099,-0.8255,-0.8323,-0.8323,-0.8269,0.0,0.0,0.0,0.0,0.0,0.0,0.0,0.0,0.0,0.0,0.0,-0.0381,-0.0381,0.0,0.0,0.0,0.0,0.0,0.0,0.0,0.0,0.0,0.0,0.0,0.0,0.0,0.0,0.0,0.0,0.0,0.0,0.0,0.0,0.0,0.0,0.0,0.0,0.0,0.0,0.0,1.1329,1.1832,1.2347,1.304,1.3685,1.4114,1.4348,1.4615,0.0,0.0,1.5173,1.5347,1.5687,1.6009,1.6353,1.6683,1.7005,1.7274,0.0,0.0,0.0,0.0,0.0,0.0,0.0,0.0,0.0,0.0,0.0,0.0,0.0,0.0,1.6917,1.7157,1.7279,1.7279,1.7279,1.7279,1.7279,1.7279,1.7279,1.7333,1.7854,1.8087,1.8133,1.8596,1.8781,0.0,0.0,0.0,0.0,1.8781,1.8781,1.8796,1.8438,1.8081,1.7775,1.7397,1.7048,1.6648,0.0,0.0,0.0,0.0,0.0,0.0,0.0,-0.76,-0.7706,-0.7951,-0.8133,-0.8252,-0.8397,-0.8414,-0.8406,-0.8299,0.0,0.0,0.0,0.0,0.0,0.0,0.0,0.0,0.0,0.0,-0.1715,-0.0954,-0.0572,-0.0286,0.0,0.0,0.0,0.0,0.0,0.0,0.0,0.0,0.0,0.0,0.0,0.0,0.0,0.0,0.0,0.0,0.0,0.0,0.0,0.0,0.0,0.0,0.0,0.0,0.0,0.9907,1.0386,0.0,1.1527,1.1974,1.2461,1.3028,1.3568,1.4061,1.451,0.0,1.5173,1.5347,1.5469,1.5745,1.6316,1.6499,1.6696,1.7238,1.7279,0.0,0.0,0.0,0.0,0.0,0.0,0.0,0.0,0.0,0.0,0.0,0.0,0.0,1.6988,1.7034,1.7056,1.7042,1.7216,1.7279,1.7279,1.7279,1.738,1.7574,1.7947,1.8187,1.8381,1.8651,1.8781,0.0,0.0,0.0,0.0,1.8781,1.8781,1.8796,1.8438,1.8081,1.7775,1.7397,1.7048,1.6689,0.0,0.0,0.0,0.0,0.0,0.0,0.0,-0.7645,-0.7767,-0.7958,-0.8123,-0.8241,-0.8387,-0.8347,-0.8259,-0.8194,0.0,0.0,0.0,0.0,0.0,0.0,0.0,0.0,0.0,-0.2824,-0.2094,-0.1365,-0.0829,-0.039,-0.0146,-0.0048,0.0,0.0,0.0,0.0,0.0,0.0,0.0,0.0,0.0,0.0,0.167,0.0,0.0,0.0,0.0,0.0,0.0,0.0,0.0,0.0,0.0,0.0,0.0,0.0,0.982,1.0337,0.0,1.137,1.1843,1.2448,1.3094,0.0,0.0,0.0,1.5041,1.5347,1.5389,1.5621,1.6301,1.6411,1.6579,1.7177,1.738,0.0,0.0,0.0,0.0,0.0,0.0,0.0,0.0,0.0,0.0,0.0,0.0,0.0,1.6868,1.6938,1.6949,1.681,1.6987,1.7117,1.715,1.7242,1.7402,1.7675,1.8048,1.8334,1.8527,1.8697,1.8781,0.0,0.0,0.0,0.0,1.8486,1.843,1.8406,1.8184,1.789,1.7607,1.74,1.7048,1.6689,0.0,0.0,0.0,0.0,0.0,0.0,0.0,0.0,0.0,0.0,-0.7988,-0.8049,-0.8252,-0.8086,0.0,0.0,0.0,0.0,0.0,0.0,0.0,0.0,0.0,0.0,0.0,-0.3278,-0.2473,-0.1667,-0.1111,-0.0657,-0.0404,-0.0149,0.0,0.0,0.0,0.0,0.0,0.0,0.0,0.0,0.0,0.162,0.0,0.0,0.0,0.0,0.0,0.0,0.0,0.0,0.0,0.0,0.0,0.0,0.0,0.0,0.0,0.0,0.0,1.116,1.18,1.2277,1.2881,1.3561,0.0,0.0,0.0,0.0,1.5389,1.5621,1.6301,1.6411,1.6579,1.7223,1.7527,0.0,0.0,0.0,0.0,0.0,0.0,0.0,0.0,0.0,0.0,0.0,0.0,0.0,1.6618,1.685,1.6881,1.661,1.6633,1.6743,1.6911,1.71,1.7348,1.7701,1.8172,1.8449,1.8449,1.8626,1.8756,0.0,0.0,0.0,0.0,1.795,1.7814,1.7806,1.779,1.7591,1.7321,1.7254,1.7024,1.6689,0.0,0.0,0.0,0.0,0.0,0.0,0.0,0.0,0.0,0.0,0.0,-0.7995,-0.799,-0.7978,0.0,0.0,0.0,0.0,0.0,0.0,0.0,0.0,0.0,0.0,0.0,-0.383,-0.3025,-0.222,-0.1464,-0.0859,-0.0404,-0.0101,0.0,0.0,0.0,0.0,0.0,0.0,0.0,0.0,0.147,0.162,0.0,0.0,0.0,0.0,0.2892,0.3673,0.0,0.0,0.0,0.0,0.0,0.0,0.0,0.0,0.965,1.0081,1.0554,0.0,1.1542,1.2235,1.2881,1.3561,0.0,0.0,0.0,0.0,0.0,0.0,0.0,0.0,1.6669,1.747,1.7675,0.0,0.0,0.0,0.0,0.0,0.0,0.0,0.0,0.0,0.0,0.0,0.0,1.6737,1.67,1.6729,1.6654,1.6436,1.6471,1.6633,1.6972,1.7024,1.7203,1.7449,1.759,1.7768,1.7981,1.8017,1.8017,0.0,0.0,0.0,1.789,1.7846,1.7814,1.779,1.7536,1.7392,1.7247,1.6969,1.6768,1.6689,0.0,0.0,0.0,0.0,0.0,0.0,0.0,0.0,0.0,0.0,0.0,0.0,0.0,0.0,0.0,0.0,0.0,0.0,0.0,0.0,0.0,0.0,0.0,0.0,-0.4987,-0.4081,-0.3277,-0.2573,-0.1667,-0.101,-0.0556,-0.0202,0.0,0.0,0.0149,0.0,0.0,0.0,0.0,0.1244,0.1493,0.0,0.0,0.0,0.0,0.0,0.2655,0.3348,0.0,0.4966,0.5899,0.6874,0.0,0.0,0.0,0.0,0.965,1.0081,1.0511,1.0982,1.1499,1.2235,1.2881,1.3561,1.4272,0.0,0.0,0.0,0.0,0.0,0.0,0.0,0.0,0.0,0.0,0.0,0.0,0.0,0.0,0.0,0.0,0.0,0.0,0.0,0.0,0.0,0.0,1.6689,1.6689,1.6689,1.6648,1.6517,1.6517,1.6617,1.6815,1.6901,1.71,1.7386,1.7517,1.764,1.7814,1.7814,1.7814,0.0,0.0,0.0,1.7575,1.7366,1.7294,1.7278,1.7104,1.7032,1.7008,1.6768,1.6689,1.6689,0.0,0.0,0.0,0.0,0.0,0.0,0.0,0.0,0.0,0.0,0.0,0.0,0.0,0.0,0.0,0.0,0.0,0.0,0.0,0.0,0.0,0.0,0.0,-0.5486,-0.519,-0.4131,-0.3327,-0.2775,-0.1721,-0.1064,-0.0808,-0.0253,0.0,0.0051,0.0303,0.0455,0.0,0.0,0.1212,0.1263,0.1516,0.0,0.0,0.0,0.0,0.0,0.0,0.0,0.0,0.4696,0.5586,0.6517,0.7268,0.0,0.0,0.0,0.0,0.0,1.0506,1.0982,1.1542,1.2272,1.296,1.3603,0.0,0.0,0.0,0.0,0.0,0.0,0.0,0.0,0.0,0.0,0.0,0.0,0.0,0.0,0.0,0.0,0.0,0.0,0.0,0.0,0.0,0.0,0.0,1.6689,1.6689,1.6689,1.6689,1.6689,1.6689,1.6674,1.6599,1.6796,1.7021,1.7317,1.7526,1.7612,1.7612,1.7612,1.7612,1.7639,0.0,0.0,1.7167,1.6816,1.6689,1.6689,1.6689,1.6689,1.6689,1.6689,1.6689,1.6689,0.0,0.0,0.0,0.0,0.0,0.0,0.0,0.0,0.0,0.0,0.0,0.0,0.0,0.0,0.0,0.0,0.0,0.0,0.0,0.0,0.0,0.0,-0.5996,-0.5486,-0.519,-0.4131,-0.3327,-0.2775,-0.1745,-0.1077,-0.0809,-0.0257,0.0103,0.0354,0.0404,0.0657,0.1061,0.1162,0.1314,0.1566,0.1566,0.0,0.0,0.0,0.0,0.0,0.0,0.0,0.0,0.4518,0.5494,0.6517,0.7268,0.0,0.0,0.0,0.0,0.0,1.0598,1.1154,1.18,1.2491,1.3173,1.3822,0.0,0.0,0.0,0.0,0.0,0.0,0.0,0.0,0.0,0.0,0.0,0.0,0.0,0.0,0.0,0.0,0.0,0.0,0.0,0.0,0.0,0.0,0.0,1.6689,1.6689,1.6689,1.6689,1.6689,1.6689,1.6721,1.6694,1.6735,1.6759,1.6814,1.6848,1.6848,1.6848,1.6848,1.6848,1.6848,0.0,1.6776,1.6768,1.6713,1.6689,1.6689,1.6689,1.6689,1.6689,1.6689,1.6689,1.6689,0.0,0.0,0.0,0.0,0.0,0.0,0.0,0.0,0.0,0.0,0.0,0.0,0.0,0.0,0.0,0.0,0.0,0.0,0.0,0.0,0.0,-0.6703,-0.5974,-0.5486,-0.519,-0.4131,-0.3243,-0.2561,-0.1654,-0.0988,-0.0572,-0.0052,0.0257,0.0404,0.0707,0.096,0.1212,0.1364,0.1465,0.1617,0.0,0.0,0.0,0.0,0.0,0.0,0.0,0.0,0.0,0.0,0.5186,0.6163,0.7003,0.0,0.0,0.0,0.0,0.0,1.0641,1.1198,1.1843,1.2534,1.3222,0.0,0.0,0.0,0.0,0.0,0.0,0.0,0.0,0.0,0.0,0.0,0.0,0.0,0.0,0.0,0.0,0.0,0.0,0.0,0.0,0.0,0.0,0.0,0.0,0.0,1.646,1.6444,1.6444,1.6444,1.6444,1.6499,1.6689,1.6689,1.6689,1.6689,1.6689,1.6689,1.6689,1.6689,1.6689,1.6689,0.0,1.6689,1.6689,1.6689,1.6689,1.6689,1.6689,1.6689,1.6689,1.6689,1.6689,1.6689,0.0,0.0,0.0,0.0,0.0,0.0,0.0,0.0,0.0,0.0,0.0,0.0,0.0,0.0,0.0,0.0,0.0,0.0,0.0,0.0,-0.6567,-0.6516,-0.5946,-0.5436,-0.514,-0.4031,-0.3104,-0.2282,-0.1512,-0.079,-0.0213,0.0314,0.0565,0.0606,0.101,0.1212,0.1314,0.1516,0.1617,0.1617,0.0,0.0,0.0,0.0,0.0,0.0,0.0,0.0,0.0,0.0,0.0,0.0,0.0,0.0,0.0,0.917,0.982,1.0424,1.0641,1.1203,1.1935,1.2534,0.0,0.0,0.0,0.0,0.0,0.0,0.0,0.0,0.0,0.0,0.0,0.0,0.0,0.0,0.0,0.0,0.0,0.0,0.0,0.0,0.0,0.0,0.0,0.0,0.0,0.0,1.6103,1.6079,1.6079,1.6079,1.6079,1.6214,1.6444,1.6484,1.6531,1.6689,1.6689,1.6689,1.6689,1.6689,1.6689,1.6689,1.6689,1.6689,1.6689,1.6689,1.6689,1.6689,1.6689,1.6689,1.6689,1.6689,1.6689,1.6689,0.0,0.0,0.0,0.0,0.0,0.0,0.0,0.0,0.0,0.0,0.0,0.0,0.0,0.0,0.0,0.0,0.0,0.0,0.0,0.0,-0.6467,-0.6264,-0.5845,-0.5336,-0.4834,-0.3783,-0.2851,-0.2022,-0.1214,-0.0426,0.0373,0.0681,0.0977,0.1162,0.1162,0.1314,0.1566,0.1617,0.1617,0.1617,0.1617,0.0,0.0,0.0,0.0,0.0,0.0,0.0,0.0,0.0,0.0,0.0,0.0,0.0,0.8679,0.917,0.9951,1.0684,1.0684,1.1338,1.208,1.2577,0.0,0.0,0.0,0.0,0.0,0.0,0.0,0.0,0.0,0.0,0.0,0.0,0.0,0.0,0.0,0.0,0.0,0.0,0.0,0.0,0.0,0.0,0.0,0.0,0.0,0.0,1.5737,1.5752,1.5752,1.5752,1.5752,1.5768,1.5753,1.5753,1.6079,1.6689,1.6689,1.6689,1.6689,1.6689,1.6689,1.6689,1.6689,1.6689,1.6689,1.6689,1.6689,1.6689,1.6689,1.6689,1.6689,1.6689,1.6689,1.6689,0.0,0.0,0.0,0.0,0.0,0.0,0.0,0.0,0.0,0.0,0.0,0.0,0.0,0.0,0.0,0.0,0.0,0.0,0.0,0.0,-0.5949,-0.585,-0.5509,-0.5087,-0.4587,-0.3682,-0.2714,-0.174,-0.0591,0.0216,0.0693,0.0943,0.1131,0.1212,0.1364,0.1516,0.1617,0.1617,0.1617,0.1617,0.1617,0.1598,0.0,0.0,0.0,0.0,0.0,0.0,0.0,0.0,0.4786,0.5852,0.0,0.7709,0.8679,0.917,0.9951,1.0684,1.0684,1.1343,1.2123,1.2577,0.0,0.0,0.0,0.0,0.0,0.0,0.0,0.0,0.0,0.0,0.0,0.0,0.0,0.0,0.0,0.0,0.0,0.0,0.0,0.0,0.0,0.0,0.0,0.0,0.0,0.0,1.5425,1.5372,1.5372,1.5372,1.5372,1.5505,1.5712,1.5712,1.5817,1.6079,1.6079,1.6079,1.6079,1.6079,1.6079,1.6079,1.6079,1.6079,1.6095,1.6317,1.6404,1.6428,1.6602,1.6689,1.6689,1.6689,1.6689,1.6689,0.0,0.0,0.0,0.0,0.0,0.0,0.0,0.0,0.0,0.0,0.0,0.0,0.0,0.0,0.0,0.0,0.0,0.0,0.0,-0.5386,-0.5286,-0.5236,-0.5039,-0.4638,-0.4036,-0.3331,-0.2511,-0.1584,-0.0161,0.07,0.1005,0.1254,0.1337,0.1314,0.1516,0.1617,0.1617,0.1617,0.1617,0.1617,0.1617,0.1605,0.0,0.0,0.0,0.0,0.0,0.0,0.0,0.0,0.4605,0.0,0.0,0.0,0.0,0.0,0.982,1.0598,1.0684,1.1343,1.2123,0.0,0.0,0.0,0.0,0.0,0.0,0.0,0.0,0.0,0.0,0.0,0.0,0.0,0.0,0.0,0.0,0.0,0.0,0.0,0.0,0.0,0.0,0.0,0.0,0.0,0.0,0.0,0.0,1.5014,1.5014,1.5014,1.5014,1.5118,1.5348,1.5348,1.5348,1.5348,1.5348,1.5467,1.5712,1.5712,1.5712,1.5712,1.5712,1.5712,1.5736,1.5936,1.6103,1.6238,1.6554,1.6689,1.6689,1.6689,1.6648,1.6607,0.0,0.0,0.0,0.0,0.0,0.0,0.0,0.0,0.0,0.0,0.0,0.0,0.0,0.0,0.0,0.0,0.0,0.0,0.0,-0.4937,-0.4686,-0.4388,-0.4388,-0.4036,-0.323,-0.2674,-0.2138,-0.1607,0.0106,0.1004,0.1195,0.1558,0.1646,0.1617,0.1617,0.1617,0.1617,0.1617,0.1617,0.1617,0.1617,0.1617,0.161,0.0,0.0,0.0,0.0,0.0,0.0,0.0,0.4385,0.0,0.0,0.0,0.0,0.0,0.9559,1.0337,1.0641,1.1338,0.0,0.0,0.0,0.0,0.0,0.0,0.0,0.0,0.0,0.0,0.0,0.0,0.0,0.0,0.0,0.0,0.0,0.0,0.0,0.0,0.0,0.0,0.0,0.0,0.0,0.0,0.0,0.0,0.0,1.4597,1.4597,1.4597,1.4597,1.4597,1.4597,1.4597,1.4597,1.4597,1.4597,1.4998,1.5704,1.5704,1.5704,1.5704,1.5704,1.5704,1.5704,1.5674,1.588,1.6238,1.6547,1.6689,1.6689,1.6689,1.6566,1.6394,0.0,0.0,0.0,0.0,0.0,0.0,0.0,0.0,0.0,0.0,0.0,0.0,0.0,0.0,0.0,0.0,0.0,0.0,0.0,-0.3831,-0.3632,-0.3583,-0.3533,-0.3279,-0.2674,-0.1564,-0.0713,-0.0208,0.047,0.1097,0.1558,0.1589,0.1626,0.1617,0.1617,0.1617,0.1617,0.1617,0.1617,0.1617,0.1617,0.1617,0.161,0.0,0.0,0.0,0.0,0.0,0.0,0.0,0.0,0.0,0.0,0.0,0.0,0.8692,0.9334,0.9937,1.0557,1.1129,0.0,0.0,0.0,0.0,0.0,0.0,0.0,0.0,0.0,0.0,0.0,0.0,0.0,0.0,0.0,0.0,0.0,0.0,0.0,0.0,0.0,0.0,0.0,0.0,0.0,0.0,0.0,0.0,0.0,1.4233,1.4156,1.3902,1.3894,1.3894,1.3894,1.3894,1.3894,1.3894,1.3894,1.4268,1.4951,1.4951,1.4951,1.4951,1.4951,1.4951,1.493,1.5221,1.5569,1.5872,1.6222,1.6365,1.6348,1.6472,1.6435,1.6353,0.0,0.0,0.0,0.0,0.0,0.0,0.0,0.0,0.0,0.0,-0.2875,-0.2725,0.0,0.0,0.0,0.0,0.0,0.0,0.0,0.0,-0.2826,-0.2725,-0.2725,-0.2371,-0.1615,-0.0707,0.0051,0.0719,0.0873,0.1181,0.1643,0.1626,0.1617,0.1617,0.0,0.161,0.1598,0.1699,0.1741,0.173,0.1828,0.1828,0.1871,0.0,0.0,0.0,0.0,0.0,0.0,0.0,0.0,0.0,0.0,0.0,0.0,0.8289,0.8974,0.963,1.0351,0.0,0.0,0.0,0.0,0.0,0.0,0.0,0.0,0.0,0.0,0.0,0.0,0.0,0.0,0.0,0.0,0.0,0.0,0.0,0.0,0.0,0.0,0.0,0.0,0.0,0.0,0.0,0.0,0.0,0.0,1.3902,1.3807,1.3626,1.3618,1.3618,1.3618,1.3618,1.3618,1.3618,1.3618,1.3807,1.4228,1.4328,1.4391,1.4399,1.4542,1.4605,1.4629,1.5038,1.53,1.5515,1.5864,1.596,1.5874,1.5959,1.5828,1.5579,0.0,0.0,-0.6494,-0.6365,0.0,0.0,0.0,0.0,0.0,0.0,-0.2068,-0.1866,0.0,0.0,0.0,-0.2618,0.0,0.0,0.0,0.0,-0.2169,-0.1917,-0.1866,-0.1363,-0.0404,-0.0051,0.0455,0.1212,0.1212,0.1314,0.0,0.0,0.1617,0.1617,0.0,0.1597,0.162,0.1814,0.1891,0.1956,0.2147,0.2242,0.2237,0.2239,0.0,0.0,0.0,0.0,0.0,0.0,0.0,0.0,0.0,0.0,0.6926,0.764,0.8526,0.9367,0.0,0.0,0.0,0.0,0.0,0.0,0.0,0.0,0.0,0.0,0.0,0.0,0.0,0.0,0.0,0.0,0.0,0.0,0.0,0.0,0.0,0.0,0.0,0.0,0.0,0.0,0.0,0.0,0.0,0.0,0.0,1.357,1.3521,1.3522,1.3522,1.3522,1.3522,1.3522,1.3522,1.3522,1.3522,1.3522,1.3538,1.3886,1.4077,1.4132,1.4415,1.4573,1.4629,1.4998,1.5133,1.5165,1.5499,1.5527,1.535,1.5343,1.4995,1.4435,0.0,0.0,-0.6154,-0.5817,0.0,0.0,0.0,0.0,0.0,0.0,0.0,0.0,0.0,-0.1262,0.0,-0.1533,-0.1502,0.0,0.0,0.0,-0.1111,-0.106,-0.0656,-0.0303,-0.0101,0.0606,0.101,0.1212,0.1212,0.0,0.0,0.0,0.0,0.1615,0.0,0.1677,0.1816,0.1885,0.2011,0.2147,0.243,0.2525,0.252,0.2702,0.2773,0.0,0.0,0.0,0.0,0.0,0.0,0.0,0.5102,0.5902,0.6621,0.7429,0.806,0.8702,0.0,0.0,0.0,0.0,0.0,0.0,0.0,0.0,0.0,0.0,0.0,0.0,0.0,0.0,0.0,0.0,0.0,0.0,0.0,0.0,0.0,0.0,0.0,0.0,0.0,0.0,0.0,0.0,0.0,0.0,1.3373,1.326,1.31,1.2821,1.2813,1.2813,1.2813,1.2813,1.2813,0.0,1.2813,1.2813,1.2837,1.3418,1.3846,1.4117,1.4188,1.4351,1.4613,1.4692,1.4724,1.4756,1.5149,1.518,1.4978,1.4934,1.463,1.4194,0.0,0.0,0.0,0.0,0.0,0.0,0.0,0.0,0.0,0.0,0.0,0.0,0.0,-0.0747,0.0,0.0,-0.1026,-0.1028,-0.1017,-0.0887,-0.07,-0.0404,-0.0051,0.0303,0.0556,0.101,0.1263,0.0,0.0,0.0,0.0,0.0,0.0,0.1767,0.0,0.1857,0.2081,0.2275,0.2429,0.2593,0.3053,0.3145,0.3098,0.329,0.3323,0.3229,0.3243,0.0,0.0,0.0,0.0,0.0,0.0,0.0,0.6407,0.7178,0.7827,0.8476,0.0,0.0,0.0,0.0,0.0,0.0,0.0,0.0,0.0,0.0,0.0,0.0,0.0,0.0,0.0,0.0,0.0,0.0,0.0,0.0,0.0,0.0,0.0,0.0,0.0,0.0,0.0,0.0,0.0,1.3402,1.3097,1.2995,1.2844,1.2598,1.259,1.259,1.259,1.259,1.259,1.259,1.259,1.259,1.2614,1.314,1.3529,1.387,1.4037,1.422,1.4367,1.4534,1.4605,1.4621,1.4746,1.4634,1.4362,1.4231,1.3793,1.3217,0.0,0.0,0.0,0.0,0.0,0.0,0.0,0.0,0.0,0.0,0.0,0.0,0.0,-0.0343,-0.0436,0.0,0.0,0.0,-0.0664,-0.063,-0.0395,0.005,0.0353,0.0758,0.1212,0.1263,0.1362,0.0,0.0,0.0,0.0,0.0,0.0,0.196,0.0,0.2127,0.2417,0.2783,0.3004,0.3135,0.3805,0.3985,0.381,0.403,0.3985,0.3765,0.3676,0.363,0.3676,0.3857,0.0,0.0,0.0,0.0,0.6145,0.6877,0.7617,0.8345,0.0,0.0,0.0,0.0,0.0,0.0,0.0,0.0,0.0,0.0,0.0,0.0,0.0,0.0,0.0,0.0,0.0,0.0,0.0,0.0,0.0,0.0,0.0,0.0,0.0,0.0,0.0,0.0,0.0,1.318,1.2897,1.2836,1.2744,1.2652,1.2621,1.259,1.259,1.259,1.259,1.259,1.259,1.259,1.2606,1.2901,1.3211,1.3513,1.3807,1.3966,1.4053,1.4367,1.451,1.4518,1.4438,1.4145,1.3754,1.3535,1.2936,1.2231,0.0,0.0,0.0,0.0,0.0,0.0,0.0,0.0,0.0,0.0,-0.0199,-0.0049,0.0,-0.0048,-0.0047,-0.0093,-0.0094,-0.0095,-0.0093,0.0,0.0,0.0345,0.0801,0.1111,0.1212,0.1415,0.1554,0.0,0.0,0.0,0.0,0.0,0.0,0.1921,0.0,0.0,0.2827,0.3042,0.3413,0.3849,0.4563,0.4746,0.4572,0.4788,0.4743,0.448,0.403,0.3849,0.3849,0.3901,0.3903,0.0,0.0,0.0,0.5659,0.6359,0.7105,0.0,0.0,0.0,0.0,0.0,0.0,0.0,0.0,0.0,0.0,0.0,0.0,0.0,0.0,0.0,0.0,0.0,0.0,0.0,0.0,0.0,0.0,0.0,0.0,0.0,0.0,0.0,0.0,0.0,1.3385,1.328,1.325,1.2967,1.2805,1.2775,1.2652,1.259,1.259,1.259,1.259,1.259,1.259,1.259,1.259,1.2646,1.2853,1.3155,1.3203,1.3394,1.368,1.4037,1.418,1.4177,1.4344,1.4145,1.3761,1.3382,1.2716,1.2003,0.0,0.0,0.0,0.0,0.0,0.0,0.0,0.0,0.0,0.0,0.0,0.0,0.0,0.0,0.0,0.0,0.0,0.0,0.0,0.0235,0.048,0.0638,0.099,0.1293,0.1442,0.1542,0.0,0.0,0.0,0.0,0.0,0.2039,0.2144,0.0,0.0,0.0,0.0,0.0,0.421,0.4563,0.5322,0.5458,0.5277,0.5547,0.5416,0.506,0.4835,0.4567,0.4344,0.4346,0.4257,0.4212,0.4572,0.0,0.0,0.0,0.0,0.0,0.0,0.0,0.0,0.0,0.0,0.0,0.0,0.0,0.0,0.0,0.0,0.0,0.0,0.0,0.0,0.0,0.0,0.0,0.0,0.0,0.0,0.0,0.0,0.0,0.0,0.0,0.0,0.0,1.3459,1.3385,1.3302,1.315,1.2989,1.2805,1.2744,1.2683,1.259,1.259,1.259,1.259,1.259,1.259,1.259,1.259,1.2678,1.2837,1.3036,1.3171,1.3363,1.3672,1.3934,1.409,1.394,1.3805,1.3572,1.32,1.2526,1.1818,0.0,0.0,0.0,0.0,0.0,0.0,0.0,0.0,0.0,0.0,0.0,0.0,0.0,0.0,0.0,0.0,0.0,0.0045,0.0092,0.0415,0.0656,0.087,0.1118,0.1365,0.156,0.0,0.0,0.0,0.0,0.0,0.1879,0.2209,0.2397,0.0,0.2832,0.0,0.0,0.0,0.0,0.0,0.0,0.6192,0.0,0.0,0.0,0.5638,0.5538,0.524,0.4893,0.4741,0.4569,0.4433,0.4569,0.0,0.0,0.0,0.0,0.0,0.0,0.0,0.0,0.0,0.0,0.0,0.0,0.0,0.0,0.0,0.0,0.0,0.0,0.0,0.0,0.0,0.0,0.0,0.0,0.0,0.0,0.0,0.0,0.0,0.0,0.0,0.0,0.0,1.3511,1.3459,1.3354,1.3333,1.315,1.2867,1.2836,1.2744,1.259,1.259,1.259,1.259,1.259,1.259,1.259,1.259,1.259,1.2606,1.2869,1.2957,1.3012,1.3322,1.3616,1.3836,1.3604,1.3482,1.3418,1.3055,1.2452,1.1855,0.0,0.0,0.0,0.0,0.0,0.0,0.0,0.0,0.0,0.0,0.0,0.0,0.0,0.0,0.0,0.0,0.0,0.009,0.0359,0.0824,0.1065,0.1067,0.1324,0.0,0.0,0.0,0.0,0.0,0.0,0.0,0.1801,0.2297,0.2611,0.2879,0.3164,0.3658,0.4306,0.0,0.0,0.0,0.6786,0.6967,0.0,0.0,0.0,0.0,0.0,0.0,0.0,0.4851,0.0,0.0,0.0,0.0,0.0,0.0,0.0,0.0,0.0,0.0,0.0,0.0,0.0,0.0,0.0,0.0,0.0,0.0,0.0,0.0,0.0,0.0,0.0,0.0,0.0,0.0,0.0,0.0,0.0,0.0,0.0,0.0,0.0,0.0,0.0,0.0,1.3511,1.3511,1.348,1.3385,1.3211,1.2989,1.2867,1.2744,1.259,1.259,1.259,1.259,1.259,1.259,1.259,1.259,1.259,1.259,1.2614,1.2622,1.2646,1.3004,1.3132,1.3179,1.3427,1.3409,1.3286,1.3013,1.2636,1.2224,0.0,0.0,0.0,0.0,0.0,0.0,0.0,0.0,0.0,0.0,0.0,0.0,0.0,0.0451,0.0449,0.0449,0.0449,0.0494,0.0583,0.0903,0.1095,0.111,0.1351,0.0,0.0,0.0,0.0,0.0,0.0,0.1898,0.2064,0.2379,0.2826,0.3363,0.3565,0.4102,0.4788,0.5586,0.0,0.0,0.7252,0.7393,0.7332,0.0,0.0,0.0,0.0,0.0,0.0,0.0,0.0,0.0,0.0,0.0,0.0,0.0,0.0,0.0,0.0,0.0,0.0,0.0,0.0,0.0,0.0,0.0,0.0,0.0,0.0,0.0,0.0,0.0,0.0,0.0,0.0,0.0,0.0,0.0,0.0,0.0,0.0,0.0,0.0,0.0,0.0,0.0,0.0,1.3511,1.3511,1.3459,1.3316,1.3019,1.295,1.2836,1.259,1.259,1.259,1.259,1.259,1.259,1.259,1.259,1.259,1.259,1.259,1.259,1.2606,1.2734,1.2917,1.3083,1.3059,1.3153,1.3277,1.2885,1.258,1.2261,0.0,0.0,0.0,0.0,0.0,-0.0202,0.0,0.0,0.0,0.0,0.0,0.0,0.0,0.0,0.0718,0.0718,0.0762,0.0852,0.0852,0.1076,0.1219,0.119,0.1373,0.0,0.0,0.0,0.0,0.0,0.0,0.0,0.0,0.2557,0.305,0.3631,0.3987,0.452,0.0,0.0,0.0,0.7258,0.0,0.7696,0.7708,0.0,0.0,0.0,0.0,0.0,0.0,0.0,0.0,0.0,0.0,0.0,0.0,0.0,0.0,0.0,0.0,0.0,0.0,0.0,0.0,0.0,0.0,0.0,0.0,0.0,0.0,0.0,0.0,0.0,0.0,0.0,0.0,0.0,0.0,0.0,0.0,0.0,0.0,0.0,0.0,0.0,0.0,0.0,0.0,0.0,1.3511,1.3511,1.3368,1.3011,1.2928,1.2775,1.259,1.259,1.259,1.259,1.259,1.259,1.259,1.259,1.259,1.259,1.259,1.259,1.259,1.259,1.2734,1.2925,1.2844,1.2979,1.3174,1.2895,1.267,1.2452,0.0,-0.1515,-0.0909,-0.0152,0.0,0.0201,0.0,0.0,0.0,0.0,0.0,0.0,0.0,0.0,0.0,0.0718,0.0942,0.1121,0.1121,0.13,0.1391,0.1391,0.1391,0.0,0.0,0.0,0.0,0.0,0.0,0.0,0.0,0.0,0.3361,0.0,0.4393,0.4971,0.546,0.0,0.6827,0.7518,0.0,0.7922,0.7996,0.0,0.0,0.0,0.7047,0.6748,0.0,0.6021,0.0,0.0,0.0,0.0,0.0,0.0,0.0,0.0,0.0,0.0,0.0,0.0,0.0,0.0,0.0,0.0,0.0,0.0,0.0,0.0,0.0,0.0,0.0,0.0,0.0,0.0,0.0,0.0,0.0,0.0,0.0,0.0,0.0,0.0,0.0,0.0,1.3511,1.3511,1.3511,1.348,1.3338,1.3011,1.2744,1.259,1.259,1.259,1.259,1.259,1.259,1.259,1.259,1.259,1.259,1.259,1.259,1.259,1.259,1.259,1.259,1.2622,1.2743,1.2883,1.2987,1.2981,1.2942,1.2813,-0.1464,-0.0808,-0.0253,-0.0051,0.0303,0.0605,0.0,0.0,0.0,0.0,0.0,0.0,0.0,0.0,0.1211,0.1211,0.1256,0.13,0.13,0.139,0.1391,0.1391,0.1391,0.0,0.0,0.0,0.0,0.0,0.0,0.0,0.0,0.0,0.0,0.0,0.461,0.528,0.5949,0.6609,0.0,0.0,0.792,0.7978,0.0,0.0,0.0,0.0,0.0,0.7014,0.6755,0.0,0.6179,0.6035,0.0,0.0,0.0,0.0,0.0,0.0,0.7923,0.0,0.0,0.0,0.0,0.0,0.9695,0.9634,0.0,0.0,0.0,0.0,0.0,0.0,0.0,0.0,0.0,0.0,0.0,0.0,0.0,0.0,0.0,0.0,0.0,0.0,0.0,0.0,1.3459,1.3511,1.3511,1.3277,1.3103,1.2989,1.2744,1.259,1.259,1.259,1.259,1.259,1.259,1.259,1.259,1.259,1.259,1.259,1.259,1.259,1.259,1.259,1.259,1.2598,1.264,1.2663,1.2639,1.2593,1.2542,1.252,-0.0707,-0.0152,0.0354,0.0505,0.0758,0.101,0.0,0.0,0.0,0.0,0.0,0.0,0.0,0.0,0.0,0.1391,0.1391,0.1391,0.1391,0.1391,0.1391,0.1391,0.0,0.0,0.0,0.0,0.0,0.0,0.0,0.0,0.0,0.0,0.0,0.0,0.0,0.0,0.0,0.0,0.0,0.0,0.7995,0.0,0.0,0.7618,0.7484,0.0,0.0,0.0,0.7049,0.6813,0.6596,0.0,0.0,0.0,0.0,0.0,0.0,0.0,0.0,0.0,0.0,0.0,0.0,0.0,0.9435,0.9453,0.9381,0.0,0.0,0.0,0.0,0.0,0.0,0.0,0.0,0.0,0.0,0.0,0.0,0.0,0.0,0.0,0.0,1.2928,1.3089,1.3089,1.3224,1.3338,1.3398,1.3103,1.2928,1.2989,1.2744,1.259,1.259,1.259,1.259,1.259,1.259,1.259,1.259,1.259,1.259,1.259,1.259,1.259,1.259,1.259,1.259,1.259,1.259,1.2547,1.248,1.238,1.2361,1.2388,0.0,0.0505,0.0909,0.1162,0.1212,0.0,0.0,0.0,0.0,0.0,0.0,0.0,0.0,0.0,0.0,0.0,0.1482,0.148,0.148,0.148,0.0,0.0,0.0,0.0,0.0,0.0,0.0,0.0,0.0,0.0,0.0,0.0,0.0,0.0,0.5191,0.5858,0.0,0.0,0.0,0.7888,0.7987,0.8004,0.0,0.0,0.7484,0.0,0.7484,0.7369,0.7219,0.7223,0.6949,0.0,0.0,0.0,0.0,0.0,0.7219,0.0,0.0,0.0,0.0,0.0,0.0,0.0,0.9208,0.9266,0.9228,0.9014,0.0,0.0,0.0,0.0,0.0,0.0,0.0,0.0,0.0,0.0,0.0,0.0,0.0,0.0,1.2258,1.2569,1.277,1.28,1.2922,1.308,1.3272,1.2958,1.2867,1.2981,1.2744,1.259,1.259,1.259,1.259,1.259,1.259,1.259,1.259,1.259,1.259,1.259,1.259,1.259,1.259,1.259,1.259,1.259,1.259,1.2531,1.2444,1.2288,1.2267,1.227,0.0556,0.0909,0.1162,0.1212,0.0,0.0,0.0,0.0,0.0,0.0,0.0,0.0,0.0,0.0,0.0,0.0,0.0,0.2064,0.0,0.0,0.0,0.0,0.0,0.0,0.0,0.0,0.0,0.0,0.0,0.0,0.0,0.0,0.0,0.0,0.0,0.0,0.0,0.0,0.0,0.7897,0.7976,0.0,0.7824,0.7604,0.7484,0.7484,0.7484,0.7484,0.7407,0.0,0.7022,0.6834,0.0,0.0,0.0,0.0,0.0,0.0,0.0,0.0,0.0,0.0,0.0,0.0,0.9061,0.9192,0.9275,0.0,0.0,0.0,0.0,0.0,0.0,0.0,0.0,0.0,0.0,0.0,0.0,0.0,0.0,0.0,1.2114,1.238,1.2614,1.271,1.2897,1.3019,1.305,1.2897,1.2805,1.2836,1.2683,1.259,1.259,1.259,1.259,1.259,1.259,1.259,1.259,1.259,1.259,1.259,1.259,1.259,1.259,1.259,1.259,1.259,1.2428,1.229,1.2156,1.1908,1.1755,1.1664,0.096,0.1212,0.1415,0.1415,0.0,0.0,0.0,0.0,0.0,0.0,0.0,0.0,0.0,0.0,0.0,0.0,0.0,0.0,0.0,0.0,0.0,0.0,0.0,0.0,0.0,0.0,0.0,0.0,0.0,0.0,0.0,0.0,0.0,0.0,0.0,0.0,0.0,0.0,0.8018,0.8016,0.8044,0.0,0.7934,0.7824,0.7757,0.7642,0.7642,0.7603,0.7484,0.7369,0.7292,0.0,0.0,0.7253,0.7334,0.0,0.7407,0.7561,0.0,0.0,0.0,0.8479,0.0,0.0,0.0,0.9015,0.9167,0.0,0.0,0.0,0.0,0.0,0.0,0.0,0.0,0.0,0.0,0.0,0.0,0.0,0.0,0.0,1.1587,1.1956,1.2303,1.2594,1.2782,1.2898,1.2905,1.2775,1.2744,1.2805,1.2652,1.259,1.259,1.259,1.259,1.259,1.259,1.259,1.259,1.259,1.2495,1.2289,1.2289,1.2216,1.2065,1.2218,1.2289,1.2305,1.2296,1.2151,1.1918,1.1609,1.1446,1.1338,0.1364,0.1516,0.1718,0.1768,0.0,0.0,0.0,0.0,0.0,0.0,0.0,0.0,0.0,0.0,0.0,0.0,0.0,0.0,0.0,0.0,0.0,0.0,0.0,0.2467,0.0,0.0,0.0,0.0,0.0,0.0,0.0,0.0,0.0,0.0,0.0,0.0,0.0,0.0,0.0,0.8145,0.0,0.8138,0.812,0.8086,0.7991,0.7842,0.7842,0.7723,0.7561,0.7561,0.0,0.7435,0.7435,0.7407,0.0,0.0,0.0,0.0,0.0,0.0,0.0,0.0,0.0,0.8665,0.0,0.0,0.0,0.0,0.0,0.0,0.0,0.0,0.0,0.0,0.0,0.0,0.0,0.0,0.0,0.0,0.0,0.0,0.0,1.164,1.2062,1.2415,1.2632,1.2766,1.2795,1.2661,1.266,1.2775,1.2652,1.259,1.259,1.259,1.259,1.259,1.259,1.259,1.259,1.2519,1.2297,1.2011,1.1919,1.1757,1.1511,1.1797,1.1927,1.2022,1.2195,1.2089,1.1809,1.1397,1.1245,1.1163,0.197,0.1921,0.2021,0.227,0.0,0.0,0.0,0.0,0.0,0.0,0.0,0.0,0.0,0.0,0.0,0.0,0.0,0.0,0.4119,0.0,0.0,0.0,0.0,0.0,0.3452,0.0,0.0,0.0,0.0,0.0,0.0,0.0,0.0,0.0,0.7183,0.0,0.0,0.0,0.8301,0.0,0.8353,0.8248,0.0,0.8111,0.8102,0.8063,0.8063,0.7953,0.7765,0.0,0.7538,0.7219,0.0,0.7143,0.7082,0.0,0.0,0.0,0.0,0.0,0.0,0.0,0.8403,0.0,0.0,0.0,0.0,0.0,0.0,0.0,0.0,0.0,0.0,0.0,0.0,0.0,0.0,0.0,0.0,0.0,0.0,0.0,0.0,1.182,1.211,1.2212,1.2427,1.2611,1.2797,1.2672,1.2598,1.2621,1.2598,1.259,1.259,1.259,1.259,1.259,1.259,1.259,1.2582,1.2226,1.203,1.1966,1.1686,1.1555,1.1495,1.1535,1.1733,1.2022,1.2081,1.2096,1.1996,1.1373,1.1118,1.1083,0.2322,0.2373,0.2523,0.0,0.0,0.0,0.0,0.0,0.0,0.0,0.0,0.0,0.0,0.0,0.0,0.0,0.0,0.5097,0.0,0.0,0.0,0.0,0.0,0.0,0.0,0.0,0.0,0.0,0.5015,0.0,0.0,0.0,0.0,0.0,0.7841,0.0,0.8122,0.0,0.0,0.0,0.0,0.0,0.0,0.8437,0.8365,0.8237,0.8008,0.7855,0.7767,0.0,0.7496,0.0,0.0,0.0,0.0,0.0,0.0,0.0,0.0,0.0,0.0,0.0,0.0,0.0,0.8665,0.0,0.8865,0.0,0.0,0.0,0.0,0.0,0.0,0.0,0.0,0.0,0.0,0.0,0.0,0.0,0.0,0.0,0.0,0.0,0.0,0.0,1.2362,1.253,1.2634,1.2492,1.2467,1.259,1.259,1.259,1.259,1.259,1.259,1.259,1.259,1.2487,1.2242,1.2083,1.1797,1.1416,1.1273,1.109,1.0942,1.1122,1.14,1.1713,1.1869,1.1913,1.1872,1.1404,1.1185,1.109,0.3228,0.0,0.0,0.0,0.0,0.0,0.0,0.0,0.0,0.0,0.0,0.0,0.6566,0.6487,0.0,0.0,0.0,0.6074,0.0,0.0,0.5769,0.0,0.0,0.0,0.0,0.0,0.0,0.0,0.0,0.0,0.0,0.0,0.0,0.0,0.0,0.8477,0.8304,0.0,0.0,0.8479,0.8627,0.8703,0.8703,0.8703,0.8595,0.8378,0.8078,0.7882,0.7775,0.7642,0.7522,0.0,0.7408,0.0,0.0,0.0,0.0,0.0,0.7676,0.0,0.0,0.0,0.0,0.0,0.0,0.0,0.0,0.0,0.0,0.0,0.0,0.0,0.0,0.0,0.0,0.0,0.0,0.0,0.0,0.0,0.0,0.0,0.0,0.0,0.0,1.2076,1.2193,1.2315,1.2477,1.235,1.2344,1.2498,1.256,1.259,1.259,1.259,1.259,1.259,1.259,1.2399,1.2011,1.1887,1.1551,1.0995,1.0899,1.0735,1.052,1.0775,1.1106,1.1519,1.1608,1.1766,1.1895,1.1529,1.1279,1.1153,0.5039,0.4485,0.0,0.0,0.0,0.0,0.0,0.0,0.0,0.0,0.0,0.0,0.0,0.0,0.0,0.0,0.0,0.7051,0.7051,0.0,0.6735,0.0,0.0,0.634,0.0,0.0,0.0,0.0,0.0,0.0,0.0,0.0,0.0,0.0,0.0,0.8734,0.8964,0.9,0.8887,0.8699,0.8703,0.8703,0.8703,0.0,0.8581,0.8411,0.8369,0.0,0.0,0.7806,0.7534,0.0,0.0,0.0,0.0,0.0,0.0,0.0,0.0,0.0,0.0,0.8001,0.0,0.0,0.0,0.0,0.8703,0.0,0.0,0.0,0.0,0.0,0.0,0.0,0.0,0.0,0.0,0.0,0.0,0.0,0.0,0.0,0.0,0.0,0.0,1.1979,1.1779,1.1894,1.247,1.2257,1.2158,1.2305,1.2498,1.259,1.259,1.259,1.259,1.259,1.259,1.2399,1.1974,1.1662,1.132,1.0979,1.0663,1.0504,1.0496,1.0504,1.091,1.1495,1.1357,1.1721,1.2243,1.1747,1.1466,1.1272,0.0,0.0,0.0,0.0,0.0,0.0,0.0,0.7584,0.0,0.0,0.0,0.0,0.0,0.7919,0.7764,0.0,0.0,0.7632,0.7632,0.7584,0.0,0.0,0.0,0.7228,0.0,0.0,0.0,0.0,0.0,0.0,0.0,0.0,0.0,0.0,0.0,0.9166,0.0,0.0,0.0,0.0,0.0,0.898,0.9036,0.0,0.0,0.8363,0.8089,0.7908,0.0,0.7648,0.7521,0.7395,0.7395,0.7353,0.7311,0.7376,0.7395,0.0,0.0,0.0,0.776,0.8034,0.0,0.0,0.0,0.0,0.0,0.0,0.0,0.0,0.0,0.0,0.0,0.0,0.0,0.0,0.0,0.0,0.0,0.0,0.0,0.0,0.0,0.0,0.0,1.1391,1.1608,1.1763,0.0,1.1978,1.2065,1.2158,1.2305,1.2467,1.259,1.259,1.259,1.259,1.259,1.228,1.1662,1.1543,1.1213,1.0663,1.0544,1.0496,1.0496,1.0496,1.0902,1.1487,1.1447,1.1727,1.212,1.184,1.1685,1.1584,0.7534,0.0,0.0,0.0,0.0,0.0,0.0,0.0,0.0,0.0,0.8702,0.0,0.8502,0.0,0.8244,0.0,0.8164,0.8164,0.8164,0.8164,0.0,0.8164,0.7981,0.0,0.0,0.0,0.0,0.0,0.0,0.8208,0.0,0.0,0.0,0.0,0.0,0.0,0.0,0.0,0.9166,0.0,0.0,0.9125,0.0,0.0,0.851,0.8461,0.0,0.7938,0.7846,0.7639,0.7559,0.7559,0.7521,0.7489,0.7489,0.7489,0.7489,0.7522,0.7664,0.7698,0.0,0.7959,0.8006,0.0,0.8096,0.0,0.0,0.0,0.0,0.0,0.0,0.0,0.0,0.0,0.0,0.0,0.0,0.8965,0.0,0.0,0.0,0.0,0.0,0.0,1.1239,1.1098,1.1301,1.1494,0.0,0.0,1.1908,1.2052,1.2212,1.2367,1.2498,1.256,1.259,1.259,1.259,1.2216,1.1487,1.1487,1.1141,1.0496,1.0496,1.0496,1.0496,1.0496,1.0902,1.1487,1.1447,1.1727,1.2151,1.1965,1.1778,1.1584,0.8382,0.8432,0.0,0.0,0.8287,0.0,0.0,0.0,0.917,0.0,0.9064,0.9027,0.884,0.867,0.8612,0.8612,0.8612,0.0,0.8612,0.8612,0.0,0.0,0.8612,0.8612,0.8612,0.0,0.0,0.0,0.0,0.0,0.0,0.0,0.0,0.0,0.9515,0.0,0.9327,0.95,0.9379,0.9061,0.9236,0.9212,0.9025,0.8801,0.8745,0.8684,0.8391,0.8174,0.7987,0.7792,0.7699,0.7699,0.7559,0.7526,0.7526,0.7521,0.7521,0.7521,0.7489,0.7489,0.7541,0.7745,0.0,0.0,0.0,0.0,0.8087,0.0,0.0,0.0,0.0,0.0,0.0,0.0,0.0,0.0,0.0,0.0,0.0,0.0,0.0,0.0,0.0,1.0737,1.0931,1.1079,1.0845,0.0,0.0,0.0,1.1673,1.1971,1.2178,1.229,1.2305,1.2498,1.259,1.259,1.259,1.2216,1.1487,1.1487,1.1141,1.0496,1.0496,1.0496,1.0496,1.0496,1.0902,1.1495,1.1321,1.1684,1.2243,1.212,1.1747,1.1272,0.8935,0.9133,0.9278,0.0,0.9084,0.9084,0.0,0.0,0.0,0.0,0.9206,0.9027,0.884,0.867,0.8612,0.8612,0.8612,0.0,0.0,0.0,0.0,0.8612,0.8612,0.8612,0.8612,0.8612,0.0,0.8612,0.0,0.0,0.8823,0.0,0.0,0.0,0.0,0.0,0.9541,0.9586,0.9533,0.9458,0.9437,0.9516,0.0,0.0,0.9225,0.9113,0.8353,0.8038,0.7987,0.7954,0.7922,0.7922,0.7889,0.7889,0.7857,0.7694,0.7661,0.7629,0.7526,0.7489,0.7503,0.756,0.7574,0.7588,0.0,0.0,0.0,0.0,0.0,0.0,0.0,0.0,0.0,0.0,0.0,0.0,0.0,0.0,0.0,0.8619,0.0,0.0,1.0118,1.0324,1.0506,1.0654,1.0865,0.0,0.0,0.0,0.0,1.1626,1.2012,1.2239,1.2305,1.2498,1.259,1.259,1.259,1.2216,1.1487,1.1487,1.1141,1.0496,1.0496,1.0496,1.0496,1.0393,1.075,1.1321,1.105,1.1197,1.1584,1.1685,1.1404,1.0926,0.948,0.0,0.0,0.9969,0.0,0.0,0.9776,0.0,0.0,0.9595,0.9414,0.0,0.904,0.893,0.8872,0.874,0.874,0.0,0.8612,0.0,0.0,0.8612,0.8612,0.8612,0.8612,0.8696,0.0,0.874,0.0,0.0,0.9087,0.0,0.0,0.0,0.0,0.9937,0.0,0.9702,0.9725,0.9681,0.973,0.0,0.0,0.9553,0.9464,0.9363,0.8836,0.8565,0.8436,0.8376,0.8279,0.822,0.8112,0.8047,0.7987,0.7857,0.7829,0.7824,0.7722,0.7657,0.7591,0.7591,0.7559,0.7489,0.7489,0.7489,0.7489,0.0,0.0,0.0,0.0,0.0,0.0,0.0,0.0,0.0,0.0,0.0,0.0,0.0,0.8586,0.0,0.963,0.9979,1.0208,1.0348,0.0,0.0,0.0,0.0,0.0,1.1614,1.1944,1.2173,1.2271,1.2414,1.2498,1.259,1.259,1.2216,1.1487,1.1487,1.1141,1.0496,1.0496,1.047,1.0393,1.0239,1.0536,1.1088,1.1049,1.1049,1.1083,1.1216,1.1059,1.0807,1.0019,0.0,0.0,0.0,0.0,0.0,0.0,0.989,0.0,0.9778,0.0,0.9437,0.9327,0.9305,0.9218,0.8955,0.0,0.8867,0.8696,0.8696,0.8696,0.8696,0.8696,0.8696,0.8696,0.8872,0.0,0.0,0.0,0.0,0.0,0.0,0.0,0.0,0.0,0.0,0.0,0.9895,0.9931,0.0,1.0077,0.9991,0.9701,0.9699,0.967,0.9646,0.9646,0.9396,0.9049,0.8894,0.8738,0.8576,0.8339,0.8209,0.8084,0.8047,0.8019,0.8019,0.8019,0.7857,0.7731,0.7731,0.7624,0.7526,0.7526,0.7521,0.7489,0.7489,0.7489,0.7546,0.0,0.0,0.0,0.0,0.0,0.0,0.0,0.0,0.0,0.0,0.0,0.0,0.0,0.9632,0.9988,0.0,0.0,0.0,0.0,0.0,0.0,1.175,1.1905,0.0,1.2158,0.0,1.2398,1.256,1.259,1.224,1.1559,1.1511,1.1138,1.0534,1.0486,1.0368,1.0221,1.0078,1.0292,1.0733,1.1074,1.1028,1.0744,1.0776,1.0807,1.0839,0.0,0.0,0.0,0.0,0.0,1.0232,1.0372,1.0197,0.991,0.9603,0.9533,0.9437,0.9327,0.9305,0.9301,0.9218,0.9218,0.0,0.0,0.0,0.0,0.9174,0.9174,0.9174,0.9174,0.9218,0.9218,0.0,0.0,0.0,0.0,0.0,0.0,0.0,0.0,0.0,1.0404,1.039,0.0,1.0311,1.0448,1.0418,1.0236,1.0206,1.0283,1.0396,1.0396,0.997,0.9396,0.9274,0.9177,0.9113,0.8797,0.8673,0.8608,0.8269,0.8172,0.8139,0.8014,0.7987,0.7954,0.7954,0.7792,0.7661,0.7661,0.7591,0.7489,0.7489,0.7489,0.7503,0.7541,0.0,0.0,0.0,0.0,0.0,0.0,0.0,0.0,0.0,0.0,0.0,0.0,0.0,0.0,0.0,0.0,0.0,0.0,0.0,0.0,0.0,1.1799,0.0,0.0,0.0,1.2336,1.2336,1.2529,1.2367,1.1887,1.1622,1.1217,1.0731,1.0467,1.0162,0.99,1.0043,1.0137,1.0254,1.0577,1.0593,1.0428,1.0713,1.0807,1.0807,0.0,0.0,0.0,0.0,0.0,0.0,0.0,1.0755,0.0,1.0116,1.0084,1.0022,0.9857,0.9838,0.971,0.9475,0.947,0.9339,0.9123,0.9081,0.9039,0.8958,0.9051,0.0,0.9103,0.9465,0.965,0.965,0.0,0.0,0.0,0.0,0.0,0.0,0.0,1.0737,0.0,0.0,0.0,1.0595,1.0641,1.0625,1.0587,1.0576,1.0681,1.0877,1.0877,1.0611,1.0288,0.9945,0.976,0.9594,0.9274,0.9113,0.8962,0.8451,0.8409,0.8441,0.8164,0.8116,0.8112,0.8112,0.7987,0.7857,0.7857,0.7727,0.7596,0.7596,0.7559,0.7489,0.7489,0.7669,0.0,0.0,0.0,0.0,0.0,0.0,0.0,0.0,0.0,0.0,0.0,0.0,0.0,0.0,0.0,0.0,0.0,0.0,0.0,0.0,0.0,0.0,0.0,0.0,0.0,1.2212,1.2367,1.2217,1.1746,1.167,1.1383,1.0897,1.0654,1.0414,1.021,1.0116,1.0014,0.9873,1.0159,1.0301,1.0339,1.0586,1.0807,1.0965,0.0,1.1356,0.0,0.0,1.1477,0.0,1.1175,1.1258,1.1191,1.0666,1.0681,1.0655,1.0434,1.0367,1.0217,0.9882,0.9826,0.9617,0.9282,0.92,0.9123,0.8959,0.9068,0.9107,0.9107,0.9734,1.0057,0.0,0.0,0.0,0.0,0.0,0.0,0.0,0.0,0.0,0.0,0.0,1.0916,1.0985,1.0909,1.088,1.0902,1.0902,1.1028,1.1216,1.1216,1.1216,1.1153,1.0681,1.0333,1.0066,0.9648,0.9408,0.9139,0.8584,0.8527,0.8613,0.8344,0.828,0.8302,0.8323,0.8209,0.8084,0.8047,0.7889,0.7764,0.7699,0.7591,0.7489,0.7489,0.7631,0.0,0.0,0.0,0.0,0.0,0.0,0.0,0.0,0.0,0.0,0.0,0.0,0.0,0.0,0.0,0.0,0.0,0.0,0.0,0.0,0.0,1.156,1.2044,0.0,1.1685,0.0,1.212,1.2004,1.1616,1.1666,1.1438,1.1021,1.0782,1.0609,1.0472,1.0036,0.9767,0.9649,0.98,1.0028,1.0269,1.0498,1.0814,1.1153,0.0,0.0,0.0,0.0,0.0,0.0,1.152,1.158,1.1335,1.0668,1.0774,1.0835,1.0762,1.0578,1.0532,1.0668,1.0506,1.0384,1.0344,1.0182,1.0065,1.0065,0.9882,0.9815,0.9815,1.0034,1.0305,0.0,0.0,0.0,0.0,0.0,0.0,0.0,0.0,0.0,0.0,1.1601,1.1515,1.1608,1.1474,1.1364,1.124,1.124,1.1373,1.156,1.156,1.156,1.1529,1.1272,1.0902,1.042,0.9785,0.9359,0.9022,0.8526,0.8326,0.8304,0.8502,0.857,0.8581,0.8709,0.8608,0.8414,0.8236,0.8079,0.7922,0.7731,0.7591,0.7489,0.7489,0.7508,0.7522,0.0,0.0,0.0,0.0,0.0,0.0,0.0,0.0,0.0,0.0,0.9057,0.0,0.0,0.0,0.0,0.0,0.0,0.0,1.1409,0.0,1.1252,1.1457,1.1392,1.1428,1.1654,1.1771,1.1911,1.2035,1.1571,1.1264,1.1071,1.0567,1.026,1.0084,0.9394,0.9369,0.9774,0.9531,0.9693,1.0079,1.0466,1.0814,1.1153,0.0,0.0,0.0,0.0,0.0,0.0,0.0,1.211,1.2034,1.1558,1.1491,1.1445,1.1394,1.1213,1.1104,1.1174,1.097,1.0815,1.07,1.0584,1.0512,1.0396,1.041,1.0446,1.0446,1.0792,1.1041,0.0,0.0,0.0,0.0,0.0,0.0,0.0,0.0,1.1803,1.1898,1.1706,1.1669,1.1741,1.1489,1.1417,1.1466,1.1466,1.1591,1.1716,1.1716,1.1716,1.1686,1.1387,1.1054,1.0636,1.0177,0.9747,0.9316,0.8778,0.8763,0.889,0.8705,0.8825,0.9018,0.909,0.8894,0.8673,0.8571,0.8339,0.8112,0.8014,0.7884,0.7787,0.7787,0.7787,0.7787,0.0,0.0,0.0,0.0,0.0,0.0,0.0,0.0,0.0,0.0,0.0,0.0,0.0,0.0,0.0,0.0,0.0,0.0,1.1372,0.0,1.0949,1.1217,1.0972,1.0965,1.1122,1.1365,1.1498,1.1498,1.1359,1.1117,1.0777,1.0438,1.0144,0.9906,0.9606,0.9537,0.96,0.9485,0.9636,0.9926,1.0276,1.0593,1.0846,1.2867,0.0,1.2785,0.0,1.2721,1.271,1.2622,1.2669,1.2617,1.2389,1.2234,1.2112,1.2043,1.1866,1.1746,1.1763,1.1558,1.1409,1.126,1.1186,1.1074,1.0962,1.0945,0.0,1.0962,1.1304,1.1557,1.1674,1.1839,0.0,0.0,0.0,0.0,0.0,1.2119,1.2074,1.205,1.1833,1.1783,1.1819,1.1527,1.1498,1.1654,1.1654,1.1747,1.1903,1.1903,1.1903,1.1819,1.1421,1.1093,1.0732,1.0316,0.988,0.9457,0.8992,0.9096,0.9307,0.9063,0.9223,0.9465,0.9512,0.9247,0.899,0.8894,0.8598,0.8339,0.8236,0.8079,0.7987,0.7987,0.7987,0.7987,0.7987,0.0,0.0,0.0,0.0,0.0,0.0,0.8047,0.8266,0.8829,0.0,0.0,0.0,0.0,0.0,0.0,0.0,0.0,0.0,0.0,0.0,0.0,1.0588,1.0498,1.0649,1.0895,1.0996,1.0933,1.0996,1.0776,1.0396,1.0244,1.0021,0.9798,0.9648,0.9571,0.9504,0.9426,0.9571,0.9836,1.0085,1.0339,1.0624,1.3859,1.3444,1.3171,1.3361,1.3135,1.2985,1.3231,1.3133,1.2974,1.3006,1.2947,1.2797,1.2606,1.2422,1.2378,1.2562,1.2415,1.2268,1.2268,1.2114,1.1966,0.0,0.0,1.1378,1.1378,1.1416,1.1627,1.2088,0.0,0.0,1.2797,0.0,1.2606,1.294,1.2349,1.2332,1.2642,1.2054,1.188,1.1974,1.1692,1.1685,1.1802,1.1802,1.1934,1.2096,1.2096,1.2096,1.2012,1.1481,1.1084,1.0706,1.0076,0.968,0.9343,0.9077,0.914,0.9354,0.9628,0.9781,0.9925,0.9983,0.9748,0.939,0.9081,0.8894,0.8668,0.8269,0.8079,0.7987,0.7987,0.7987,0.7987,0.7987,0.0,0.0,0.0,0.0,0.0,0.0,0.8107,0.8298,0.8576,0.0,0.0,0.0,0.0,0.0,0.0,0.0,0.0,1.1074,1.0782,0.0,1.061,1.0196,1.011,1.0308,1.0308,1.0434,1.0593,1.0403,1.0206,0.9983,0.9862,0.9804,0.9748,0.9308,0.9263,0.9486,0.9209,0.9394,0.9804,0.9804,1.0149,1.0593,1.4346,1.4165,1.4059,1.4064,1.3791,1.3594,1.364,1.3381,1.3202,1.3142,1.311,1.3119,1.32,1.29,1.279,0.0,1.282,1.2709,0.0,1.2636,1.2599,1.2599,1.2489,1.2415,1.2415,1.2415,1.2493,1.2668,0.0,0.0,0.0,1.2798,1.2677,1.2609,1.2522,1.2338,1.2069,1.1992,1.1911,1.1857,1.1784,1.184,1.1996,1.1996,1.2089,1.2243,1.2243,1.2243,1.2127,1.1511,1.1163,1.0887,1.0192,0.9703,0.9425,0.9572,0.9715,0.9908,1.0219,1.0407,1.0535,1.0528,1.0199,0.9786,0.96,0.9215,0.8861,0.8668,0.8571,0.8511,0.8382,0.8349,0.8349,0.8349,0.8349,0.0,0.0,0.0,0.0,0.0,0.8376,0.8505,0.0,0.8926,0.0,0.0,0.0,0.0,0.0,0.0,0.0,0.0,1.064,0.0,1.0402,1.0038,0.9894,0.9964,1.0053,1.0149,1.018,1.0021,0.9926,0.9856,0.9468,0.9436,0.9556,0.924,0.9263,0.9504,0.9414,0.947,0.9612,0.9862,1.0047,1.0238,1.481,1.4638,1.4511,1.4414,1.4144,1.3919,1.3769,1.3535,1.334,1.3331,1.3309,1.3346,1.3492,1.3273,0.0,1.3309,1.32,1.3119,1.3119,1.3119,1.3119,1.3119,1.3046,1.301,1.301,1.2936,0.0,1.2833,1.2713,1.2657,1.2657,1.2657,1.2551,1.243,1.2447,1.2248,1.1866,1.1904,1.187,1.1809,1.1864,1.2027,1.2182,1.2182,1.2274,1.2398,1.2398,1.2398,1.2319,1.1709,1.135,1.1064,1.0428,0.9959,0.9665,0.987,1.0188,1.0516,1.0719,1.0974,1.1146,1.1122,1.0656,1.0112,0.9643,0.924,0.8947,0.8825,0.8785,0.8787,0.8689,0.8641,0.8608,0.8608,0.8544,0.8517,0.8517,0.0,0.0,0.0,0.0,0.0,0.0,0.8874,0.9156,0.0,0.0,0.0,0.0,0.0,0.0,1.1074,1.0569,0.0,1.0292,0.9906,0.9676,0.9676,0.9766,0.9798,0.9798,0.974,0.9615,0.9536,0.9235,0.9197,0.9348,0.9167,0.9263,0.9516,0.9516,0.9516,0.9548,0.983,0.9958,1.0047,1.5211,1.4979,1.4643,0.0,1.4226,0.0,1.367,1.3548,1.3492,1.3492,1.3492,1.3492,1.3492,1.3492,1.3492,1.3492,0.0,0.0,0.0,1.3492,1.3492,1.3492,1.3309,1.3229,1.3229,1.3025,1.2826,1.2692,1.2357,1.2207,1.2207,1.2207,1.2301,1.2441,1.2135,1.1989,1.1984,1.1835,1.1802,1.1833,1.2027,1.2212,1.2336,1.2336,1.2428,1.259,1.259,1.259,1.2512,1.1997,1.1602,1.1274,1.0813,1.0401,1.0063,1.0037,1.0524,1.1048,1.1099,1.1419,1.1704,1.1587,1.1085,1.0336,0.9388,0.9055,0.8947,0.8865,0.8838,0.8895,0.9012,0.8914,0.8835,0.8835,0.8673,0.8549,0.8549,0.0,0.0,0.0,0.0,0.0,0.0,0.8871,0.9103,0.0,0.0,0.0,0.0,0.0,1.0889,1.1074,1.0569,1.0292,1.0292,0.9775,0.9516,0.9516,0.9516,0.9516,0.9516,0.9516,0.936,0.9095,0.9077,0.9083,0.9095,0.9077,0.9245,0.9516,0.9516,0.9516,0.9548,0.9772,0.9926,1.0047,0.0,0.0,1.5114,1.4796,1.4558,1.4277,1.395,1.3667,1.3492,1.3492,1.3492,1.3492,1.3492,1.3492,1.3492,1.3492,1.3492,1.3492,1.3492,1.3492,1.3492,1.3492,1.3455,1.3419,1.3419,1.3143,1.286,1.2533,1.2461,1.2417,1.2417,1.2417,1.232,1.2113,1.2032,1.1929,1.1851,1.1808,1.1957,1.2182,1.2243,1.2367,1.2529,1.2529,1.256,1.259,1.259,1.259,1.2535,1.2109,1.1905,1.1771,1.1395,1.1056,1.0707,1.0467,1.052,1.0702,1.0961,1.1094,1.1186,1.1157,1.0821,1.0379,0.9904,0.9688,0.9505,0.9231,0.9294,0.9371,0.9235,0.9196,0.9177,0.9177,0.9017,0.8894,0.8894,0.8894,0.0,0.0,0.8894,0.8894,0.8894,0.8977,0.9155,0.0,0.0,0.0,0.0,1.0378,1.0629,1.1099,1.0569,1.0292,1.0292,0.9775,0.9516,0.9516,0.9516,0.9516,0.9516,0.9516,0.936,0.9089,0.8884,0.8915,0.9083,0.8884,0.9175,0.974,0.974,0.9798,0.9894,1.0117,1.0212,1.0269,1.5389,1.5389,1.5243,1.4809,1.4582,1.435,1.3836,1.3609,1.3492,1.3492,1.3492,1.3492,1.3492,1.3492,1.3492,1.3492,1.3492,1.3492,1.3492,1.3492,1.3492,1.3492,1.3492,1.3492,1.3492,1.3177,1.2775,1.2266,1.2153,1.208,1.208,1.208,1.1984,1.1816,1.188,1.1879,1.1809,1.1957,1.212,1.2305,1.2406,1.2498,1.259,1.259,1.259,1.259,1.259,1.259,1.2566,1.2337,1.2154,1.198,1.1797,1.1495,1.1197,1.0997,1.0841,1.0763,1.0949,1.1112,1.1189,1.0959,1.069,1.0415,0.9985,0.9846,0.975,0.9573,0.9564,0.964,0.9745,0.9587,0.9486,0.9608,0.9338,0.9145,0.9145,0.9049,0.0,0.8985,0.8985,0.8985,0.8985,0.9081,0.9241,0.9485,0.9675,0.0,1.0112,1.0232,1.0424,1.0749,1.0328,1.0118,1.0118,0.9715,0.9516,0.9516,0.9516,0.9516,0.9516,0.9516,0.936,0.9083,0.8818,0.8854,0.9077,0.8901,0.9211,0.9804,0.9862,0.9926,1.0015,1.0238,1.0301,1.0339,1.5389,1.5389,1.5226,1.4621,1.4511,1.4291,1.3594,1.3492,1.3492,1.3492,1.3492,1.3492,1.3492,1.3492,1.3492,1.3492,1.3492,1.3492,1.3492,1.3492,1.3492,1.3492,1.3492,1.347,1.3426,1.3053,1.257,1.193,1.1723,1.1591,1.1591,1.1591,1.1622,1.1654,1.1747,1.1833,1.1895,1.2182,1.2336,1.2367,1.2529,1.259,1.259,1.259,1.259,1.259,1.259,1.259,1.259,1.259,1.2361,1.2099,1.2099,1.1853,1.1567,1.1567,1.1296,1.0995,1.0995,1.1161,1.1245,1.086,1.062,1.0383,0.9963,0.9877,0.9874,0.9838,0.9768,0.9841,1.0297,1.002,0.9815,1.0066,0.9754,0.9434,0.937,0.0,0.9113,0.9081,0.9081,0.9081,0.9081,0.9242,0.9338,0.9338,0.9649,0.9847,0.9847,1.0057,1.0178,1.0178,0.9997,0.9883,0.9847,0.9624,0.9516,0.9516,0.9516,0.9516,0.9516,0.9516,0.936,0.9083,0.886,0.8872,0.9053,0.9051,0.9345,0.9774,0.997,1.0047,1.011,1.0276,1.0333,1.0371,1.5389,1.5389,1.5226,1.4621,1.4511,1.4291,1.3594,1.3492,1.3492,1.3492,1.3492,1.3492,1.3492,1.3492,1.3492,1.3492,1.3492,1.3492,1.3492,1.3492,1.3492,1.3492,1.3492,1.3367,1.3089,1.2456,1.2006,1.1665,1.1613,1.1591,1.1591,1.1591,1.1654,1.1778,1.1802,1.1965,1.2243,1.2274,1.2406,1.256,1.259,1.259,1.259,1.259,1.259,1.259,1.259,1.259,1.259,1.259,1.2558,1.2511,1.2511,1.2226,1.1932,1.1932,1.1487,1.0995,1.0995,1.082,1.0639,1.0566,1.0524,1.0456,1.0247,1.0213,1.0177,1.0015,1.0089,1.0291,1.0652,1.0526,1.0445,1.0627,1.0396,1.0053,0.9766,0.0,0.9606,0.9452,0.942,0.942,0.942,0.9452,0.9478,0.9478,0.952,0.9576,0.9576,0.9612,0.9636,0.9636,0.9811,0.9799,0.9576,0.9534,0.9516,0.9516,0.9516,0.9516,0.9516,0.9516,0.936,0.9095,0.9053,0.8933,0.8782,0.9174,0.9462,0.9661,1.0084,1.0371,1.0498,1.053,1.0561,1.0561,1.5389,1.5389,1.5243,1.4809,1.4582,1.4342,1.3828,1.3609,1.3492,1.3492,1.3492,1.3492,1.3492,1.3492,1.3492,1.3492,1.3492,1.3492,1.3492,1.3492,1.3492,1.3492,1.3492,1.3258,1.276,1.2244,1.1882,1.1591,1.1591,1.1591,1.1591,1.1685,1.1747,1.1809,1.1988,1.2151,1.2305,1.2428,1.2529,1.259,1.259,1.259,1.259,1.259,1.259,1.259,1.259,1.259,1.259,1.259,1.259,1.259,1.259,1.2479,1.2313,1.2313,1.1686,1.0955,1.0791,1.0615,1.0496,1.0496,1.0496,1.047,1.0419,1.0419,1.0393,1.029,1.0285,1.0447,1.0959,1.0856,1.079,1.1169,1.0965,0.0,0.0,1.0149,0.9958,0.9708,0.9676,0.9612,0.9516,0.9516,0.9516,0.9516,0.9516,0.9516,0.9516,0.9516,0.9516,0.9516,0.963,0.9636,0.9516,0.9516,0.9516,0.9516,0.9516,0.9516,0.9516,0.9516,0.9444,0.9312,0.9161,0.9096,0.9095,0.9424,0.9633,0.9818,1.0291,1.053,1.0593,1.0593,1.0593,1.0593,1.5389,1.5389,1.5287,1.4958,1.4743,1.4443,1.404,1.377,1.3579,1.3506,1.3492,1.3492,1.3492,1.3492,1.3492,1.3492,1.3492,1.3492,1.3492,1.3492,1.3492,1.3492,1.3389,1.3108,1.2635,1.2229,1.1929,1.1716,1.1654,1.1654,1.1716,1.1778,1.1833,1.1934,1.2182,1.2336,1.2367,1.2529,1.259,1.259,1.259,1.259,1.259,1.259,1.259,1.259,1.259,1.259,1.259,1.259,1.259,1.259,1.259,1.259,1.259,1.259,1.1905,1.1034,1.0711,1.056,1.0496,1.0496,1.0496,1.0496,1.0496,1.0496,1.0496,1.0496,1.0419,1.053,1.113,1.1061,1.1068,1.1508,0.0,0.0,0.0,1.0523,1.0276,0.9958,0.9836,0.974,0.958,0.9516,0.9516,0.9516,0.9516,0.9516,0.9516,0.9516,0.9516,0.9516,0.9516,0.9516,0.9516,0.9516,0.9516,0.9516,0.9516,0.9516,0.9516,0.9516,0.9516,0.9504,0.9287,0.9223,0.9339,0.9584,0.9723,0.9842,1.031,1.0533,1.0593,1.0593,1.0624,1.0656,1.5389,1.5389,1.5287,1.4958,1.4878,1.4659,1.4077,1.396,1.3836,1.3536,1.3492,1.3492,1.3492,1.3492,1.3492,1.3492,1.3492,1.3492,1.3492,1.3492,1.3492,1.3492,1.3095,1.2923,1.3047,1.2432,1.2081,1.2058,1.1872,1.1872,1.2065,1.1864,1.1957,1.2274,1.2305,1.2406,1.259,1.259,1.259,1.259,1.259,1.259,1.259,1.259,1.259,1.259,1.259,1.259,1.259,1.259,1.259,1.259,1.259,1.259,1.259,1.259,1.2065,1.1384,1.105,1.0743,1.0496,1.0496,1.0496,1.0496,1.0496,1.0496,1.0496,1.0496,1.0496,1.0615,1.0971,1.1138,1.1331,1.1494,0.0,0.0,1.1122,1.0782,1.0498,1.0276,0.9989,0.9804,0.9772,0.9612,0.9516,0.9516,0.9516,0.9516,0.9516,0.9516,0.9516,0.9516,0.9516,0.9516,0.9516,0.9516,0.9516,0.9516,0.9516,0.9516,0.9516,0.9516,0.9516,0.9484,0.9492,0.9296,0.9053,0.9435,0.9577,0.9577,0.998,1.0314,1.0593,1.0593,1.0681,1.0776,1.5389,1.5389,1.5345,1.5228,1.5039,1.482,1.4572,1.4238,1.3938,1.3814,1.3623,1.3492,1.3492,1.3492,1.3492,1.3492,1.3492,1.3492,1.3492,1.3492,1.3572,1.3681,1.312,1.2905,1.3114,1.2441,1.2096,1.2096,1.2027,1.2027,1.2096,1.212,1.2182,1.2305,1.2436,1.2529,1.259,1.259,1.259,1.259,1.259,1.259,1.259,1.259,1.259,1.259,1.259,1.259,1.259,1.259,1.259,1.259,1.259,1.259,1.2551,1.2289,1.1733,1.1161,1.1034,1.0767,1.0496,1.0496,1.0496,1.0496,1.0496,1.0496,1.0496,1.0496,1.0496,1.0607,1.0931,1.1217,1.1472,1.167,0.0,1.1934,1.1591,1.1341,1.1059,1.0649,1.0301,1.0021,0.9836,0.9612,0.9516,0.9516,0.9516,0.9516,0.9516,0.9516,0.9516,0.9516,0.9516,0.9516,0.9516,0.9516,0.9516,0.9516,0.9516,0.9516,0.9516,0.9644,0.9676,0.9676,0.9766,0.9706,0.9571,0.971,0.9819,0.9877,1.0043,1.0362,1.0713,1.0713,1.0839,1.0996,1.5389,1.5389,1.5389,1.5389,1.5199,1.5017,1.4922,1.4487,1.4137,1.3996,1.3697,1.3492,1.3492,1.3492,1.3492,1.3492,1.3492,1.3492,1.3492,1.3572,1.3681,1.3899,1.3384,1.3172,1.3233,1.2708,1.236,1.2251,1.2182,1.2189,1.2251,1.2274,1.2336,1.2406,1.2529,1.259,1.259,1.259,1.259,1.259,1.259,1.259,1.259,1.259,1.259,1.259,1.259,1.259,1.259,1.259,1.259,1.259,1.259,1.2519,1.2328,1.1837,1.1368,1.0971,1.086,1.0679,1.0496,1.0496,1.0496,1.0496,1.0496,1.0496,1.0496,1.0496,1.0496,1.0607,1.0931,1.1265,1.1578,1.1817,1.211,1.2212,1.1988,1.1747,1.1435,1.1028,1.0618,1.0244,0.9894,0.9708,0.958,0.9516,0.9516,0.9516,0.9516,0.9516,0.9516,0.9516,0.9516,0.9516,0.9516,0.9516,0.9516,0.9516,0.958,0.958,0.9612,0.9772,0.9862,0.9868,0.9958,0.9957,0.9914,0.9914,1.0029,1.0181,1.0181,1.0479,1.0902,1.0926,1.1083,1.1279,1.5389,1.5389,1.5389,1.5389,1.5389,1.5279,1.4951,1.4677,1.4394,1.4064,1.3697,1.3492,1.3492,1.3492,1.3492,1.3492,1.3492,1.3492,1.3492,1.3681,1.3899,1.4093,1.3905,1.3729,1.3592,1.3259,1.2949,1.2598,1.2406,1.2406,1.259,1.2406,1.2398,1.259,1.259,1.259,1.259,1.259,1.259,1.259,1.259,1.259,1.259,1.259,1.259,1.259,1.259,1.259,1.259,1.259,1.259,1.259,1.259,1.2305,1.1884,1.1201,1.0995,1.0915,1.0591,1.0496,1.0496,1.0496,1.0496,1.0496,1.0496,1.0496,1.0496,1.0496,1.0496,1.0607,1.0931,1.1273,1.1606,1.1964,1.2162,1.2305,1.2305,1.1903,1.1529,1.1334,1.0902,1.0466,1.0047,0.9894,0.9708,0.9516,0.9516,0.9516,0.9516,0.9516,0.9516,0.9516,0.9516,0.9516,0.9516,0.9516,0.9516,0.9516,0.9708,0.9804,0.9804,0.9958,0.9983,0.9983,0.9983,0.9957,0.9914,0.9914,1.009,1.04,1.0393,1.0701,1.1122,1.1272,1.1435,1.1654,1.5389,1.5389,1.5389,1.5389,1.5389,1.5352,1.5258,1.4823,1.4474,1.4372,1.3843,1.3492,1.3492,1.3492,1.3492,1.3492,1.3492,1.3572,1.3717,1.3891,1.4101,1.4317,1.3976,1.3846,1.3958,1.3386,1.3036,1.2965,1.2656,1.2529,1.259,1.2529,1.2529,1.259,1.259,1.259,1.259,1.259,1.259,1.259,1.259,1.259,1.259,1.259,1.259,1.259,1.259,1.259,1.259,1.259,1.259,1.259,1.259,1.2168,1.1606,1.14,1.1029,1.0631,1.0528,1.0496,1.0496,1.0496,1.0496,1.0496,1.0496,1.0565,1.065,1.065,1.0895,1.116,1.1266,1.178,1.222,1.2326,1.2532,1.2652,1.2652,1.2336,1.1996,1.1685,1.1247,1.0744,1.0269,0.9958,0.9708,0.9516,0.9516,0.9516,0.9516,0.9516,0.9516,0.9516,0.9516,0.9516,0.9516,0.9516,0.958,0.9708,0.9772,0.9836,0.9958,1.0149,1.0206,1.0212,1.0371,1.0445,1.0532,1.0329,1.0486,1.0874,1.0779,1.1031,1.1466,1.1747,1.1965,1.2151,1.5389,1.5389,1.5389,1.5389,1.5389,1.5389,1.5389,1.4992,1.4611,1.4526,1.4011,1.3638,1.3506,1.3492,1.3492,1.3492,1.3492,1.3608,1.379,1.3992,1.4201,1.4389,1.4222,1.4112,1.4117,1.3703,1.3362,1.3092,1.2909,1.2734,1.259,1.259,1.259,1.259,1.259,1.259,1.259,1.259,1.259,1.259,1.259,1.259,1.259,1.259,1.259,1.259,1.259,1.259,1.259,1.259,1.259,1.2566,1.2423,1.2051,1.1646,1.1376,1.1029,1.0679,1.0536,1.0496,1.0496,1.0496,1.0496,1.0496,1.0496,1.0598,1.0733,1.0879,1.1162,1.1479,1.1768,1.22,1.2546,1.2687,1.275,1.2805,1.2805,1.2521,1.2182,1.1833,1.1498,1.1059,1.0466,1.0244,0.9989,0.9644,0.9612,0.9612,0.9612,0.9676,0.9702,0.9702,0.9702,0.9702,0.9702,0.9702,0.9734,0.9804,0.9932,1.0053,1.0149,1.0396,1.0491,1.0523,1.0713,1.0839,1.0919,1.0794,1.0984,1.1288,1.1348,1.1576,1.1903,1.2243,1.2436,1.2552,1.5389,1.5389,1.5389,1.5389,1.5389,1.5389,1.5389,1.5112,1.4798,1.4585,1.4269,1.3916,1.3616,1.3579,1.3579,1.3579,1.3594,1.3652,1.3871,1.4044,1.4201,1.4425,1.4533,1.4454,1.4164,1.4132,1.3807,1.3187,1.3147,1.2957,1.2638,1.2638,1.2622,1.259,1.259,1.259,1.259,1.259,1.259,1.259,1.259,1.259,1.259,1.259,1.259,1.259,1.259,1.259,1.259,1.259,1.259,1.2535,1.217,1.2014,1.1892,1.1273,1.105,1.0923,1.0631,1.052,1.0496,1.0496,1.0522,1.0522,1.0522,1.064,1.0865,1.1163,1.1393,1.1748,1.2431,1.258,1.2683,1.2992,1.292,1.2836,1.2836,1.2552,1.2212,1.1864,1.1716,1.1373,1.0719,1.0624,1.0371,0.9868,0.9836,0.9836,0.9836,0.9989,1.0047,1.0047,1.0047,1.0047,1.0047,1.0079,0.9989,0.9836,1.018,1.0339,1.0371,1.0681,1.0839,1.0839,1.1028,1.1122,1.1185,1.1303,1.149,1.1685,1.2034,1.2228,1.232,1.2696,1.2793,1.283,1.5389,1.5389,1.5389,1.5389,1.5389,1.5389,1.5389,1.5112,1.4878,1.4805,1.456,1.4372,1.4306,1.4298,1.4298,1.4298,1.4184,1.4216,1.4424,1.4363,1.4389,1.4569,1.4569,1.4573,1.4486,1.4217,1.4037,1.3886,1.3616,1.3306,1.2973,1.2973,1.2861,1.259,1.259,1.259,1.259,1.259,1.259,1.259,1.259,1.259,1.259,1.259,1.259,1.259,1.259,1.259,1.259,1.259,1.259,1.2582,1.2503,1.225,1.1958,1.1845,1.1416,1.0979,1.0907,1.0703,1.0496,1.0496,1.0573,1.0667,1.0667,1.0964,1.1298,1.1487,1.2127,1.2697,1.2859,1.3114,1.3296,1.3381,1.3294,1.315,1.2989,1.2797,1.2582,1.2243,1.1934,1.1591,1.1185,1.0681,1.0244,0.9983,1.011,1.018,1.018,1.0371,1.0466,1.0466,1.0466,1.0466,1.0466,1.0586,1.0491,1.018,1.0434,1.0586,1.0713,1.0933,1.109,1.1178,1.1247,1.1397,1.1646,1.184,1.1996,1.2182,1.2529,1.2476,1.2279,1.273,1.2721,1.2553,1.5389,1.5389,1.5389,1.5389,1.5389,1.5389,1.5389,1.5243,1.5075,1.4922,1.4794,1.464,1.4526,1.4511,1.4511,1.4511,1.4535,1.4554,1.4614,1.4622,1.4642,1.4613,1.4605,1.4605,1.4605,1.4423,1.424,1.4109,1.3926,1.3664,1.3322,1.3163,1.2996,1.2837,1.267,1.259,1.259,1.259,1.259,1.259,1.259,1.259,1.259,1.259,1.259,1.259,1.259,1.259,1.259,1.259,1.259,1.259,1.259,1.2463,1.2242,1.2067,1.1823,1.1595,1.1419,1.1296,1.1231,1.1231,1.1284,1.1235,1.0993,1.1231,1.1622,1.2091,1.2621,1.306,1.3202,1.3382,1.3511,1.3511,1.3376,1.3272,1.315,1.2958,1.2713,1.2467,1.2212,1.1903,1.1584,1.1083,1.0737,1.0611,1.0713,1.0776,1.0776,1.0965,1.109,1.109,1.109,1.109,1.109,1.1153,1.109,1.0933,1.0933,1.0965,1.1052,1.1303,1.1529,1.1685,1.174,1.1895,1.2143,1.2336,1.2467,1.2582,1.2981,1.29,1.2576,1.2992,1.295,1.2721,1.5396,1.5389,1.5389,1.5389,1.5389,1.5389,1.5389,1.5389,1.5287,1.5017,1.4988,1.4885,1.4662,1.4633,1.4633,1.4633,1.4842,1.4879,1.4797,1.4954,1.4954,1.4708,1.47,1.4668,1.4605,1.4605,1.4462,1.4204,1.4204,1.4021,1.3664,1.3394,1.3203,1.3076,1.2813,1.2654,1.259,1.259,1.259,1.259,1.259,1.259,1.259,1.259,1.259,1.259,1.259,1.259,1.259,1.259,1.259,1.259,1.259,1.259,1.2535,1.2232,1.2223,1.2227,1.1983,1.1974,1.2008,1.2008,1.2036,1.1942,1.1554,1.166,1.1999,1.2679,1.2973,1.316,1.3459,1.3511,1.3511,1.3511,1.3407,1.3333,1.3302,1.3058,1.2836,1.2683,1.2498,1.2243,1.1926,1.1615,1.1459,1.1428,1.1459,1.1459,1.1459,1.1654,1.1747,1.1747,1.1747,1.1747,1.1747,1.183,1.186,1.186,1.1727,1.1573,1.1459,1.174,1.2027,1.222,1.2336,1.2459,1.2613,1.2828,1.292,1.295,1.342,1.3304,1.29,1.3072,1.3011,1.2851,1.5447,1.5389,1.5389,1.5389,1.5389,1.5389,1.5389,1.5389,1.5374,1.533,1.5323,1.5309,1.5265,1.5258,1.5258,1.5258,1.54,1.5492,1.5486,1.5545,1.5459,1.5125,1.511,1.4967,1.4613,1.4605,1.4581,1.4534,1.4534,1.4351,1.4037,1.3997,1.3656,1.3092,1.3044,1.2877,1.259,1.259,1.259,1.259,1.259,1.259,1.259,1.259,1.259,1.259,1.259,1.259,1.259,1.259,1.259,1.259,1.259,1.259,1.2613,1.2687,1.2514,1.2313,1.2381,1.222,1.2008,1.2008,1.2092,1.2243,1.2529,1.2625,1.2708,1.2925,1.322,1.3451,1.3502,1.3511,1.3511,1.3511,1.348,1.3428,1.3333,1.325,1.315,1.2958,1.2836,1.2582,1.2274,1.2182,1.2081,1.1926,1.2081,1.2143,1.2143,1.2297,1.239,1.239,1.239,1.239,1.239,1.2712,1.2893,1.2885,1.306,1.2712,1.1996,1.2151,1.2398,1.2713,1.2713,1.2805,1.295,1.3277,1.342,1.345,1.3791,1.347,1.2748,1.2296,1.2161,1.2207,1.576,1.5701,1.56,1.5418,1.5389,1.5389,1.5389,1.5389,1.5389,1.5389,1.5499,1.5582,1.5582,1.5582,1.5582,1.5582,1.5745,1.5863,1.5759,1.5905,1.5817,1.5475,1.5497,1.5388,1.5221,1.5213,1.5125,1.4943,1.47,1.4526,1.4367,1.4204,1.395,1.3656,1.3449,1.3179,1.2893,1.2893,1.2773,1.259,1.259,1.259,1.259,1.259,1.259,1.259,1.259,1.259,1.259,1.259,1.259,1.259,1.259,1.259,1.2629,1.2775,1.2753,1.2721,1.29,1.2886,1.2839,1.2839,1.2868,1.2969,1.3148,1.319,1.3212,1.3271,1.3399,1.3511,1.3511,1.3511,1.3511,1.3511,1.3511,1.348,1.3437,1.3354,1.3241,1.3019,1.2958,1.2867,1.2705,1.2674,1.2644,1.2574,1.2644,1.2674,1.2674,1.2736,1.2886,1.3112,1.3112,1.3272,1.3604,1.3793,1.3908,1.3997,1.407,1.3662,1.2838,1.2847,1.2972,1.3186,1.3316,1.3437,1.3558,1.3731,1.3791,1.3821,1.4079,1.3714,1.3023,1.2522,1.2243,1.2101]}]]